<?xml version="1.0" encoding="UTF-8"?>
<gpx version="1.1" creator="2bulu-scraper" xmlns="http://www.topografix.com/GPX/1/1">
  <metadata><name>峨眉山徒步</name><desc>source: 2bulu.com trackId=74173177; exported 2026-09-01T16:00:39.254Z</desc>
    <bounds minlat="29.5227367" minlon="103.3268328" maxlat="29.5742301" maxlon="103.4414767"/>
    <link href="https://www.2bulu.com/track/t-9IDNYHLUXuHp%252FR2KBg5Tzw%253D%253D.htm"><text>2bulu 源页面</text></link>
  </metadata>
  <wpt lat="29.5705233" lon="103.44147"><ele>501</ele><name>
        </name></wpt>
  <wpt lat="29.5703475" lon="103.4414041"><ele>503</ele><name>
        </name></wpt>
  <wpt lat="29.5702876" lon="103.441299"><ele>499</ele><name>
        </name></wpt>
  <wpt lat="29.5656451" lon="103.4343861"><ele>547</ele><name>
        </name></wpt>
  <wpt lat="29.5651718" lon="103.4257837"><ele>645</ele><name>
        </name></wpt>
  <wpt lat="29.5645118" lon="103.4227463"><ele>702</ele><name>
        </name></wpt>
  <wpt lat="29.5653065" lon="103.4212661"><ele>786</ele><name>
        </name></wpt>
  <wpt lat="29.5667015" lon="103.4198733"><ele>800</ele><name>
        </name></wpt>
  <wpt lat="29.5692449" lon="103.419768"><ele>888</ele><name>
        </name></wpt>
  <wpt lat="29.5706172" lon="103.4157361"><ele>881</ele><name>
        </name></wpt>
  <wpt lat="29.5706172" lon="103.4157361"><ele>881</ele><name>
        </name></wpt>
  <wpt lat="29.5693843" lon="103.412538"><ele>874</ele><name>
        </name></wpt>
  <wpt lat="29.5686388" lon="103.4041817"><ele>749</ele><name>
        </name></wpt>
  <wpt lat="29.568908" lon="103.4039442"><ele>754</ele><name>
        </name></wpt>
  <wpt lat="29.5741275" lon="103.3924824"><ele>662</ele><name>
        </name></wpt>
  <wpt lat="29.5741748" lon="103.3921342"><ele>644</ele><name>
        </name></wpt>
  <wpt lat="29.5708556" lon="103.3915918"><ele>665</ele><name>
        </name></wpt>
  <wpt lat="29.5683834" lon="103.3908061"><ele>667</ele><name>
        </name></wpt>
  <wpt lat="29.5631628" lon="103.3888821"><ele>723</ele><name>
        </name></wpt>
  <wpt lat="29.5504041" lon="103.370381"><ele>1190</ele><name>
        </name></wpt>
  <wpt lat="29.549621" lon="103.368655"><ele>1254</ele><name>
        </name></wpt>
  <wpt lat="29.5494" lon="103.36629"><ele>1443</ele><name>这个点和上一个点中间有1535个台阶
        </name></wpt>
  <wpt lat="29.5503033" lon="103.358485"><ele>1656</ele><name>
        </name></wpt>
  <wpt lat="29.5502826" lon="103.3569678"><ele>1687</ele><name>
        </name></wpt>
  <wpt lat="29.5605683" lon="103.3516067"><ele>1587</ele><name>
        </name></wpt>
  <wpt lat="29.5605683" lon="103.3516067"><ele>1587</ele><name>
        </name></wpt>
  <wpt lat="29.561708" lon="103.3457825"><ele>1679</ele><name>
        </name></wpt>
  <wpt lat="29.5595283" lon="103.34387"><ele>1811</ele><name>这两点之间有1077层台阶
        </name></wpt>
  <wpt lat="29.558685" lon="103.3436083"><ele>1847</ele><name>
        </name></wpt>
  <wpt lat="29.5588233" lon="103.344405"><ele>1858</ele><name>
        </name></wpt>
  <wpt lat="29.5495797" lon="103.3424947"><ele>2122</ele><name>这两个点相距1256个台阶
        </name></wpt>
  <wpt lat="29.5495584" lon="103.3423668"><ele>2125</ele><name>
        </name></wpt>
  <wpt lat="29.5463033" lon="103.3374417"><ele>2256</ele><name>
        </name></wpt>
  <wpt lat="29.5462467" lon="103.33694"><ele>2280</ele><name>
        </name></wpt>
  <wpt lat="29.5423441" lon="103.3320543"><ele>2387</ele><name>
        </name></wpt>
  <wpt lat="29.5359256" lon="103.3340928"><ele>2422</ele><name>
        </name></wpt>
  <wpt lat="29.5227012" lon="103.3359099"><ele>3030</ele><name>
        </name></wpt>
  <wpt lat="29.5270732" lon="103.3326297"><ele>2936</ele><name>
        </name></wpt>
  <wpt lat="29.5272507" lon="103.3324013"><ele>2920</ele><name>
        </name></wpt>
  <wpt lat="29.5280893" lon="103.3309509"><ele>2883</ele><name>
        </name></wpt>
  <wpt lat="29.5297197" lon="103.3277584"><ele>2820</ele><name>
        </name></wpt>
  <wpt lat="29.5312797" lon="103.329755"><ele>2723</ele><name>
        </name></wpt>
  <wpt lat="29.5321531" lon="103.3302748"><ele>2670</ele><name>
        </name></wpt>
  <wpt lat="29.5322867" lon="103.3312378"><ele>2623</ele><name>
        </name></wpt>
  <wpt lat="29.5326261" lon="103.3318832"><ele>2606</ele><name>
        </name></wpt>
  <wpt lat="29.5327092" lon="103.3320547"><ele>2596</ele><name>
        </name></wpt>
  <trk><name>峨眉山徒步</name>
      <trkseg>
        <trkpt lat="29.5705617" lon="103.4413583"><ele>542.5</ele><time>2025-11-05T17:37:09.000Z</time></trkpt>
        <trkpt lat="29.5706617" lon="103.4413117"><ele>542.5</ele><time>2025-11-05T17:37:12.000Z</time></trkpt>
        <trkpt lat="29.570615" lon="103.4414083"><ele>533.47</ele><time>2025-11-05T17:39:06.000Z</time></trkpt>
        <trkpt lat="29.5705233" lon="103.44147"><ele>518.77</ele><time>2025-11-05T17:39:14.000Z</time></trkpt>
        <trkpt lat="29.5704274" lon="103.4414767"><ele>511.3</ele><time>2025-11-05T17:39:24.000Z</time></trkpt>
        <trkpt lat="29.5703475" lon="103.4414041"><ele>507.9</ele><time>2025-11-05T17:39:32.000Z</time></trkpt>
        <trkpt lat="29.5702876" lon="103.441299"><ele>505.62</ele><time>2025-11-05T17:39:40.000Z</time></trkpt>
        <trkpt lat="29.570192" lon="103.4412253"><ele>502.77</ele><time>2025-11-05T17:39:48.000Z</time></trkpt>
        <trkpt lat="29.5701131" lon="103.4411675"><ele>501.19</ele><time>2025-11-05T17:40:02.000Z</time></trkpt>
        <trkpt lat="29.5700467" lon="103.4410767"><ele>501.71</ele><time>2025-11-05T17:42:08.000Z</time></trkpt>
        <trkpt lat="29.56996" lon="103.4410133"><ele>500.24</ele><time>2025-11-05T17:42:18.000Z</time></trkpt>
        <trkpt lat="29.569855" lon="103.4409838"><ele>497.77</ele><time>2025-11-05T17:42:24.000Z</time></trkpt>
        <trkpt lat="29.5697506" lon="103.4409604"><ele>496.06</ele><time>2025-11-05T17:42:34.000Z</time></trkpt>
        <trkpt lat="29.5696538" lon="103.4409527"><ele>494.57</ele><time>2025-11-05T17:42:42.000Z</time></trkpt>
        <trkpt lat="29.5695588" lon="103.4409389"><ele>493.12</ele><time>2025-11-05T17:43:24.000Z</time></trkpt>
        <trkpt lat="29.5694692" lon="103.4409727"><ele>492.81</ele><time>2025-11-05T17:43:34.000Z</time></trkpt>
        <trkpt lat="29.5693602" lon="103.4409885"><ele>489.45</ele><time>2025-11-05T17:43:40.000Z</time></trkpt>
        <trkpt lat="29.5692736" lon="103.4409484"><ele>487.54</ele><time>2025-11-05T17:43:48.000Z</time></trkpt>
        <trkpt lat="29.5692137" lon="103.4408562"><ele>486.4</ele><time>2025-11-05T17:44:04.000Z</time></trkpt>
        <trkpt lat="29.5692367" lon="103.4409383"><ele>486.36</ele><time>2025-11-05T17:47:06.000Z</time></trkpt>
        <trkpt lat="29.5691267" lon="103.44096"><ele>486.98</ele><time>2025-11-05T17:47:14.000Z</time></trkpt>
        <trkpt lat="29.5690745" lon="103.4408688"><ele>487.63</ele><time>2025-11-05T17:47:30.000Z</time></trkpt>
        <trkpt lat="29.5690596" lon="103.4407616"><ele>488.82</ele><time>2025-11-05T17:47:48.000Z</time></trkpt>
        <trkpt lat="29.5690553" lon="103.4406487"><ele>489.42</ele><time>2025-11-05T17:47:56.000Z</time></trkpt>
        <trkpt lat="29.5690455" lon="103.4405333"><ele>490.48</ele><time>2025-11-05T17:48:04.000Z</time></trkpt>
        <trkpt lat="29.5690453" lon="103.440419"><ele>491.39</ele><time>2025-11-05T17:48:12.000Z</time></trkpt>
        <trkpt lat="29.5690337" lon="103.4403078"><ele>491.87</ele><time>2025-11-05T17:48:20.000Z</time></trkpt>
        <trkpt lat="29.5689931" lon="103.4402021"><ele>492.92</ele><time>2025-11-05T17:48:28.000Z</time></trkpt>
        <trkpt lat="29.5689282" lon="103.4401049"><ele>494.33</ele><time>2025-11-05T17:48:36.000Z</time></trkpt>
        <trkpt lat="29.5688586" lon="103.4400005"><ele>495.99</ele><time>2025-11-05T17:48:44.000Z</time></trkpt>
        <trkpt lat="29.5687844" lon="103.4399143"><ele>498.02</ele><time>2025-11-05T17:48:52.000Z</time></trkpt>
        <trkpt lat="29.568715" lon="103.4398247"><ele>500.16</ele><time>2025-11-05T17:49:00.000Z</time></trkpt>
        <trkpt lat="29.5686546" lon="103.4397418"><ele>502.07</ele><time>2025-11-05T17:49:08.000Z</time></trkpt>
        <trkpt lat="29.568599" lon="103.4396597"><ele>503.2</ele><time>2025-11-05T17:49:16.000Z</time></trkpt>
        <trkpt lat="29.5685385" lon="103.4395673"><ele>503.98</ele><time>2025-11-05T17:49:24.000Z</time></trkpt>
        <trkpt lat="29.5684746" lon="103.4394709"><ele>505.1</ele><time>2025-11-05T17:49:32.000Z</time></trkpt>
        <trkpt lat="29.5683969" lon="103.4393797"><ele>506.18</ele><time>2025-11-05T17:49:40.000Z</time></trkpt>
        <trkpt lat="29.5683081" lon="103.4393095"><ele>506.96</ele><time>2025-11-05T17:49:48.000Z</time></trkpt>
        <trkpt lat="29.5682299" lon="103.439237"><ele>507.62</ele><time>2025-11-05T17:49:56.000Z</time></trkpt>
        <trkpt lat="29.5681592" lon="103.4391587"><ele>508.04</ele><time>2025-11-05T17:50:04.000Z</time></trkpt>
        <trkpt lat="29.5680861" lon="103.4390827"><ele>508.2</ele><time>2025-11-05T17:50:12.000Z</time></trkpt>
        <trkpt lat="29.5680155" lon="103.4389939"><ele>508.41</ele><time>2025-11-05T17:50:20.000Z</time></trkpt>
        <trkpt lat="29.5679483" lon="103.4389129"><ele>509.14</ele><time>2025-11-05T17:50:28.000Z</time></trkpt>
        <trkpt lat="29.5678871" lon="103.4388227"><ele>509.94</ele><time>2025-11-05T17:50:36.000Z</time></trkpt>
        <trkpt lat="29.5678153" lon="103.4387343"><ele>510.78</ele><time>2025-11-05T17:50:44.000Z</time></trkpt>
        <trkpt lat="29.5677467" lon="103.4386318"><ele>511.52</ele><time>2025-11-05T17:50:54.000Z</time></trkpt>
        <trkpt lat="29.5676758" lon="103.4385456"><ele>511.77</ele><time>2025-11-05T17:51:02.000Z</time></trkpt>
        <trkpt lat="29.567604" lon="103.438445"><ele>511.65</ele><time>2025-11-05T17:51:12.000Z</time></trkpt>
        <trkpt lat="29.5675371" lon="103.4383575"><ele>511.93</ele><time>2025-11-05T17:51:20.000Z</time></trkpt>
        <trkpt lat="29.5674746" lon="103.4382752"><ele>512.18</ele><time>2025-11-05T17:51:28.000Z</time></trkpt>
        <trkpt lat="29.5674097" lon="103.4381995"><ele>512.44</ele><time>2025-11-05T17:51:36.000Z</time></trkpt>
        <trkpt lat="29.5673636" lon="103.4381107"><ele>513.11</ele><time>2025-11-05T17:51:44.000Z</time></trkpt>
        <trkpt lat="29.5673156" lon="103.4380164"><ele>513.84</ele><time>2025-11-05T17:51:54.000Z</time></trkpt>
        <trkpt lat="29.5672633" lon="103.437918"><ele>514.81</ele><time>2025-11-05T17:52:04.000Z</time></trkpt>
        <trkpt lat="29.567204" lon="103.4378161"><ele>515.93</ele><time>2025-11-05T17:52:14.000Z</time></trkpt>
        <trkpt lat="29.5671471" lon="103.4377084"><ele>517.08</ele><time>2025-11-05T17:52:22.000Z</time></trkpt>
        <trkpt lat="29.5670789" lon="103.4376165"><ele>517.86</ele><time>2025-11-05T17:52:32.000Z</time></trkpt>
        <trkpt lat="29.5670168" lon="103.4375348"><ele>519</ele><time>2025-11-05T17:52:40.000Z</time></trkpt>
        <trkpt lat="29.5669575" lon="103.4374424"><ele>519.94</ele><time>2025-11-05T17:52:50.000Z</time></trkpt>
        <trkpt lat="29.5669004" lon="103.4373453"><ele>520.74</ele><time>2025-11-05T17:52:58.000Z</time></trkpt>
        <trkpt lat="29.5668554" lon="103.4372503"><ele>521.41</ele><time>2025-11-05T17:53:06.000Z</time></trkpt>
        <trkpt lat="29.566797" lon="103.4371565"><ele>522.01</ele><time>2025-11-05T17:53:16.000Z</time></trkpt>
        <trkpt lat="29.5667367" lon="103.4370606"><ele>522.56</ele><time>2025-11-05T17:53:26.000Z</time></trkpt>
        <trkpt lat="29.566676" lon="103.4369564"><ele>523.1</ele><time>2025-11-05T17:53:36.000Z</time></trkpt>
        <trkpt lat="29.566623" lon="103.4368618"><ele>523.27</ele><time>2025-11-05T17:53:44.000Z</time></trkpt>
        <trkpt lat="29.566608" lon="103.4367612"><ele>523.8</ele><time>2025-11-05T17:53:52.000Z</time></trkpt>
        <trkpt lat="29.5665715" lon="103.4366681"><ele>523.5</ele><time>2025-11-05T17:54:00.000Z</time></trkpt>
        <trkpt lat="29.5664986" lon="103.4365893"><ele>522.6</ele><time>2025-11-05T17:54:08.000Z</time></trkpt>
        <trkpt lat="29.56643" lon="103.4364891"><ele>521.05</ele><time>2025-11-05T17:54:16.000Z</time></trkpt>
        <trkpt lat="29.5663773" lon="103.4363913"><ele>520.17</ele><time>2025-11-05T17:54:24.000Z</time></trkpt>
        <trkpt lat="29.5663451" lon="103.4362701"><ele>520.1</ele><time>2025-11-05T17:54:32.000Z</time></trkpt>
        <trkpt lat="29.56633" lon="103.4361506"><ele>520.57</ele><time>2025-11-05T17:54:40.000Z</time></trkpt>
        <trkpt lat="29.5662947" lon="103.4360331"><ele>521.06</ele><time>2025-11-05T17:54:48.000Z</time></trkpt>
        <trkpt lat="29.5662629" lon="103.4359257"><ele>521.72</ele><time>2025-11-05T17:54:56.000Z</time></trkpt>
        <trkpt lat="29.5662301" lon="103.4358223"><ele>523.43</ele><time>2025-11-05T17:55:02.000Z</time></trkpt>
        <trkpt lat="29.5661931" lon="103.4357124"><ele>525.4</ele><time>2025-11-05T17:55:10.000Z</time></trkpt>
        <trkpt lat="29.5661458" lon="103.4356047"><ele>527.12</ele><time>2025-11-05T17:55:20.000Z</time></trkpt>
        <trkpt lat="29.5660988" lon="103.4355029"><ele>529</ele><time>2025-11-05T17:55:28.000Z</time></trkpt>
        <trkpt lat="29.5660626" lon="103.4353957"><ele>530.59</ele><time>2025-11-05T17:55:38.000Z</time></trkpt>
        <trkpt lat="29.5660431" lon="103.4352761"><ele>531.93</ele><time>2025-11-05T17:55:48.000Z</time></trkpt>
        <trkpt lat="29.5660132" lon="103.4351634"><ele>532.56</ele><time>2025-11-05T17:56:00.000Z</time></trkpt>
        <trkpt lat="29.5659732" lon="103.4350652"><ele>533.48</ele><time>2025-11-05T17:56:08.000Z</time></trkpt>
        <trkpt lat="29.5659033" lon="103.4349824"><ele>534.48</ele><time>2025-11-05T17:56:20.000Z</time></trkpt>
        <trkpt lat="29.5658154" lon="103.4349207"><ele>535.56</ele><time>2025-11-05T17:56:28.000Z</time></trkpt>
        <trkpt lat="29.5657355" lon="103.4348466"><ele>536.78</ele><time>2025-11-05T17:56:38.000Z</time></trkpt>
        <trkpt lat="29.5656566" lon="103.4347862"><ele>538.55</ele><time>2025-11-05T17:56:48.000Z</time></trkpt>
        <trkpt lat="29.5655876" lon="103.434703"><ele>540.47</ele><time>2025-11-05T17:56:58.000Z</time></trkpt>
        <trkpt lat="29.5655675" lon="103.4345968"><ele>542.33</ele><time>2025-11-05T17:57:08.000Z</time></trkpt>
        <trkpt lat="29.56559" lon="103.4344916"><ele>544.17</ele><time>2025-11-05T17:57:18.000Z</time></trkpt>
        <trkpt lat="29.5656451" lon="103.4343861"><ele>545.73</ele><time>2025-11-05T17:57:30.000Z</time></trkpt>
        <trkpt lat="29.5657259" lon="103.434295"><ele>546.36</ele><time>2025-11-05T17:57:44.000Z</time></trkpt>
        <trkpt lat="29.5657721" lon="103.4341972"><ele>546.21</ele><time>2025-11-05T17:57:52.000Z</time></trkpt>
        <trkpt lat="29.5657934" lon="103.4340837"><ele>547.32</ele><time>2025-11-05T17:58:04.000Z</time></trkpt>
        <trkpt lat="29.5657782" lon="103.4339697"><ele>549.03</ele><time>2025-11-05T17:58:16.000Z</time></trkpt>
        <trkpt lat="29.5657661" lon="103.4338439"><ele>550.61</ele><time>2025-11-05T17:58:28.000Z</time></trkpt>
        <trkpt lat="29.5657629" lon="103.4337292"><ele>552.15</ele><time>2025-11-05T17:58:36.000Z</time></trkpt>
        <trkpt lat="29.5657829" lon="103.4336021"><ele>553.55</ele><time>2025-11-05T17:58:46.000Z</time></trkpt>
        <trkpt lat="29.5658042" lon="103.4334727"><ele>554.95</ele><time>2025-11-05T17:58:54.000Z</time></trkpt>
        <trkpt lat="29.565826" lon="103.4333594"><ele>555.49</ele><time>2025-11-05T17:59:02.000Z</time></trkpt>
        <trkpt lat="29.5658134" lon="103.4333013"><ele>556.05</ele><time>2025-11-05T17:59:08.000Z</time></trkpt>
        <trkpt lat="29.5657717" lon="103.4332277"><ele>556.55</ele><time>2025-11-05T17:59:18.000Z</time></trkpt>
        <trkpt lat="29.565726" lon="103.4331237"><ele>556.44</ele><time>2025-11-05T17:59:26.000Z</time></trkpt>
        <trkpt lat="29.5656875" lon="103.4330227"><ele>556.12</ele><time>2025-11-05T17:59:34.000Z</time></trkpt>
        <trkpt lat="29.5656332" lon="103.4329278"><ele>555.25</ele><time>2025-11-05T17:59:42.000Z</time></trkpt>
        <trkpt lat="29.5655761" lon="103.432823"><ele>554.03</ele><time>2025-11-05T17:59:50.000Z</time></trkpt>
        <trkpt lat="29.5655578" lon="103.432712"><ele>552.47</ele><time>2025-11-05T17:59:58.000Z</time></trkpt>
        <trkpt lat="29.5655332" lon="103.4326042"><ele>550.85</ele><time>2025-11-05T18:00:08.000Z</time></trkpt>
        <trkpt lat="29.5655233" lon="103.4324819"><ele>549.79</ele><time>2025-11-05T18:00:20.000Z</time></trkpt>
        <trkpt lat="29.5654894" lon="103.4323783"><ele>549.71</ele><time>2025-11-05T18:00:28.000Z</time></trkpt>
        <trkpt lat="29.5654493" lon="103.4322661"><ele>550.27</ele><time>2025-11-05T18:00:36.000Z</time></trkpt>
        <trkpt lat="29.5654015" lon="103.4321451"><ele>551.53</ele><time>2025-11-05T18:00:46.000Z</time></trkpt>
        <trkpt lat="29.5653341" lon="103.4320487"><ele>553.45</ele><time>2025-11-05T18:00:56.000Z</time></trkpt>
        <trkpt lat="29.5653104" lon="103.4319431"><ele>554.98</ele><time>2025-11-05T18:01:06.000Z</time></trkpt>
        <trkpt lat="29.5653392" lon="103.4318355"><ele>557.01</ele><time>2025-11-05T18:01:14.000Z</time></trkpt>
        <trkpt lat="29.5653856" lon="103.4317234"><ele>559.72</ele><time>2025-11-05T18:01:24.000Z</time></trkpt>
        <trkpt lat="29.5654196" lon="103.4316098"><ele>562.85</ele><time>2025-11-05T18:01:36.000Z</time></trkpt>
        <trkpt lat="29.5654613" lon="103.4315021"><ele>566.31</ele><time>2025-11-05T18:01:48.000Z</time></trkpt>
        <trkpt lat="29.5654898" lon="103.4313944"><ele>569.62</ele><time>2025-11-05T18:02:00.000Z</time></trkpt>
        <trkpt lat="29.5655177" lon="103.4312902"><ele>572.28</ele><time>2025-11-05T18:02:16.000Z</time></trkpt>
        <trkpt lat="29.5655305" lon="103.4311834"><ele>574.57</ele><time>2025-11-05T18:02:26.000Z</time></trkpt>
        <trkpt lat="29.5655493" lon="103.4310679"><ele>576.82</ele><time>2025-11-05T18:02:40.000Z</time></trkpt>
        <trkpt lat="29.5655123" lon="103.4309555"><ele>578.53</ele><time>2025-11-05T18:02:50.000Z</time></trkpt>
        <trkpt lat="29.5654388" lon="103.4308848"><ele>579.77</ele><time>2025-11-05T18:02:58.000Z</time></trkpt>
        <trkpt lat="29.5653764" lon="103.4307994"><ele>580.9</ele><time>2025-11-05T18:03:10.000Z</time></trkpt>
        <trkpt lat="29.5653618" lon="103.43069"><ele>582.1</ele><time>2025-11-05T18:03:20.000Z</time></trkpt>
        <trkpt lat="29.5653485" lon="103.4305803"><ele>583.05</ele><time>2025-11-05T18:03:28.000Z</time></trkpt>
        <trkpt lat="29.5653212" lon="103.4304779"><ele>584.06</ele><time>2025-11-05T18:03:38.000Z</time></trkpt>
        <trkpt lat="29.5652952" lon="103.4303637"><ele>584.94</ele><time>2025-11-05T18:03:50.000Z</time></trkpt>
        <trkpt lat="29.5652836" lon="103.4302513"><ele>585.91</ele><time>2025-11-05T18:03:58.000Z</time></trkpt>
        <trkpt lat="29.5652899" lon="103.4301252"><ele>586.47</ele><time>2025-11-05T18:04:06.000Z</time></trkpt>
        <trkpt lat="29.5652832" lon="103.4300044"><ele>586.95</ele><time>2025-11-05T18:04:16.000Z</time></trkpt>
        <trkpt lat="29.5652453" lon="103.4298951"><ele>587.62</ele><time>2025-11-05T18:04:24.000Z</time></trkpt>
        <trkpt lat="29.5651971" lon="103.4297826"><ele>588.82</ele><time>2025-11-05T18:04:36.000Z</time></trkpt>
        <trkpt lat="29.5651595" lon="103.4296673"><ele>590.62</ele><time>2025-11-05T18:04:46.000Z</time></trkpt>
        <trkpt lat="29.5651084" lon="103.429567"><ele>591.99</ele><time>2025-11-05T18:05:10.000Z</time></trkpt>
        <trkpt lat="29.5650438" lon="103.4294786"><ele>593.5</ele><time>2025-11-05T18:05:22.000Z</time></trkpt>
        <trkpt lat="29.5649914" lon="103.42939"><ele>594.1</ele><time>2025-11-05T18:05:34.000Z</time></trkpt>
        <trkpt lat="29.5649497" lon="103.4292978"><ele>594.19</ele><time>2025-11-05T18:05:42.000Z</time></trkpt>
        <trkpt lat="29.5649293" lon="103.4291799"><ele>593.55</ele><time>2025-11-05T18:05:50.000Z</time></trkpt>
        <trkpt lat="29.5649124" lon="103.4290525"><ele>593.01</ele><time>2025-11-05T18:06:02.000Z</time></trkpt>
        <trkpt lat="29.5648878" lon="103.4289205"><ele>592.45</ele><time>2025-11-05T18:06:12.000Z</time></trkpt>
        <trkpt lat="29.5648818" lon="103.4287906"><ele>592.17</ele><time>2025-11-05T18:06:22.000Z</time></trkpt>
        <trkpt lat="29.5648689" lon="103.4286686"><ele>592.7</ele><time>2025-11-05T18:06:32.000Z</time></trkpt>
        <trkpt lat="29.5648623" lon="103.4285398"><ele>593.65</ele><time>2025-11-05T18:06:44.000Z</time></trkpt>
        <trkpt lat="29.5648503" lon="103.4284296"><ele>594.7</ele><time>2025-11-05T18:06:58.000Z</time></trkpt>
        <trkpt lat="29.5649211" lon="103.4283866"><ele>595.78</ele><time>2025-11-05T18:07:42.000Z</time></trkpt>
        <trkpt lat="29.5650097" lon="103.4283522"><ele>595.18</ele><time>2025-11-05T18:07:50.000Z</time></trkpt>
        <trkpt lat="29.5650927" lon="103.4282967"><ele>594.63</ele><time>2025-11-05T18:07:58.000Z</time></trkpt>
        <trkpt lat="29.5651578" lon="103.4282184"><ele>594.45</ele><time>2025-11-05T18:08:06.000Z</time></trkpt>
        <trkpt lat="29.5652337" lon="103.4281327"><ele>594.51</ele><time>2025-11-05T18:08:16.000Z</time></trkpt>
        <trkpt lat="29.5653175" lon="103.4280767"><ele>594.64</ele><time>2025-11-05T18:08:34.000Z</time></trkpt>
        <trkpt lat="29.5654049" lon="103.4280325"><ele>595.27</ele><time>2025-11-05T18:08:42.000Z</time></trkpt>
        <trkpt lat="29.5654567" lon="103.4279503"><ele>595.58</ele><time>2025-11-05T18:08:58.000Z</time></trkpt>
        <trkpt lat="29.565491" lon="103.4278342"><ele>595.93</ele><time>2025-11-05T18:09:12.000Z</time></trkpt>
        <trkpt lat="29.5654857" lon="103.427717"><ele>596.82</ele><time>2025-11-05T18:09:18.000Z</time></trkpt>
        <trkpt lat="29.5654238" lon="103.4276147"><ele>597.42</ele><time>2025-11-05T18:09:28.000Z</time></trkpt>
        <trkpt lat="29.565397" lon="103.4275067"><ele>598.05</ele><time>2025-11-05T18:09:38.000Z</time></trkpt>
        <trkpt lat="29.5653678" lon="103.4274016"><ele>598.8</ele><time>2025-11-05T18:09:48.000Z</time></trkpt>
        <trkpt lat="29.565337" lon="103.4272916"><ele>599.58</ele><time>2025-11-05T18:09:58.000Z</time></trkpt>
        <trkpt lat="29.5653011" lon="103.4271835"><ele>600.36</ele><time>2025-11-05T18:10:06.000Z</time></trkpt>
        <trkpt lat="29.5652373" lon="103.427099"><ele>601.67</ele><time>2025-11-05T18:10:14.000Z</time></trkpt>
        <trkpt lat="29.5651589" lon="103.4270268"><ele>602.63</ele><time>2025-11-05T18:10:22.000Z</time></trkpt>
        <trkpt lat="29.5650743" lon="103.4269579"><ele>603.91</ele><time>2025-11-05T18:10:30.000Z</time></trkpt>
        <trkpt lat="29.5649742" lon="103.4269001"><ele>605.15</ele><time>2025-11-05T18:10:44.000Z</time></trkpt>
        <trkpt lat="29.5649285" lon="103.4268079"><ele>606.2</ele><time>2025-11-05T18:10:54.000Z</time></trkpt>
        <trkpt lat="29.5649393" lon="103.4267071"><ele>607.41</ele><time>2025-11-05T18:11:04.000Z</time></trkpt>
        <trkpt lat="29.5650012" lon="103.4266269"><ele>608.44</ele><time>2025-11-05T18:11:24.000Z</time></trkpt>
        <trkpt lat="29.5650235" lon="103.4265292"><ele>610.01</ele><time>2025-11-05T18:11:48.000Z</time></trkpt>
        <trkpt lat="29.5650678" lon="103.4263982"><ele>612.98</ele><time>2025-11-05T18:12:20.000Z</time></trkpt>
        <trkpt lat="29.565117" lon="103.4262859"><ele>616.6</ele><time>2025-11-05T18:12:48.000Z</time></trkpt>
        <trkpt lat="29.565144" lon="103.4261424"><ele>620.73</ele><time>2025-11-05T18:13:22.000Z</time></trkpt>
        <trkpt lat="29.565143" lon="103.4260165"><ele>624.63</ele><time>2025-11-05T18:13:52.000Z</time></trkpt>
        <trkpt lat="29.5651601" lon="103.4259077"><ele>629.09</ele><time>2025-11-05T18:14:20.000Z</time></trkpt>
        <trkpt lat="29.5651718" lon="103.4257837"><ele>633.18</ele><time>2025-11-05T18:14:52.000Z</time></trkpt>
        <trkpt lat="29.565119" lon="103.4256895"><ele>638.31</ele><time>2025-11-05T18:15:40.000Z</time></trkpt>
        <trkpt lat="29.5650667" lon="103.4255991"><ele>644.89</ele><time>2025-11-05T18:15:46.000Z</time></trkpt>
        <trkpt lat="29.5650082" lon="103.4254898"><ele>647.99</ele><time>2025-11-05T18:15:54.000Z</time></trkpt>
        <trkpt lat="29.5649645" lon="103.4253738"><ele>650.14</ele><time>2025-11-05T18:16:04.000Z</time></trkpt>
        <trkpt lat="29.5649075" lon="103.4252685"><ele>652.49</ele><time>2025-11-05T18:16:14.000Z</time></trkpt>
        <trkpt lat="29.5648417" lon="103.425184"><ele>654.09</ele><time>2025-11-05T18:16:22.000Z</time></trkpt>
        <trkpt lat="29.5647209" lon="103.4251206"><ele>655.34</ele><time>2025-11-05T18:17:08.000Z</time></trkpt>
        <trkpt lat="29.5647499" lon="103.4251451"><ele>658.03</ele><time>2025-11-05T18:17:54.000Z</time></trkpt>
        <trkpt lat="29.564812" lon="103.4251021"><ele>660</ele><time>2025-11-05T18:18:04.000Z</time></trkpt>
        <trkpt lat="29.5648084" lon="103.4250049"><ele>661.07</ele><time>2025-11-05T18:18:18.000Z</time></trkpt>
        <trkpt lat="29.5647318" lon="103.4248923"><ele>661.34</ele><time>2025-11-05T18:18:42.000Z</time></trkpt>
        <trkpt lat="29.5646983" lon="103.4247812"><ele>660.81</ele><time>2025-11-05T18:18:58.000Z</time></trkpt>
        <trkpt lat="29.564675" lon="103.4246719"><ele>660.63</ele><time>2025-11-05T18:19:12.000Z</time></trkpt>
        <trkpt lat="29.5646766" lon="103.4244794"><ele>660.58</ele><time>2025-11-05T18:19:48.000Z</time></trkpt>
        <trkpt lat="29.5646518" lon="103.4243373"><ele>661.15</ele><time>2025-11-05T18:20:02.000Z</time></trkpt>
        <trkpt lat="29.5645742" lon="103.4241846"><ele>660.61</ele><time>2025-11-05T18:20:42.000Z</time></trkpt>
        <trkpt lat="29.5644918" lon="103.4240617"><ele>664.61</ele><time>2025-11-05T18:21:20.000Z</time></trkpt>
        <trkpt lat="29.5644183" lon="103.4239614"><ele>668.82</ele><time>2025-11-05T18:21:44.000Z</time></trkpt>
        <trkpt lat="29.5643563" lon="103.4238668"><ele>670.66</ele><time>2025-11-05T18:22:12.000Z</time></trkpt>
        <trkpt lat="29.5643454" lon="103.4237285"><ele>673.9</ele><time>2025-11-05T18:22:36.000Z</time></trkpt>
        <trkpt lat="29.5643577" lon="103.4236041"><ele>677.39</ele><time>2025-11-05T18:22:56.000Z</time></trkpt>
        <trkpt lat="29.5643782" lon="103.4234877"><ele>679.97</ele><time>2025-11-05T18:23:04.000Z</time></trkpt>
        <trkpt lat="29.5644525" lon="103.4234283"><ele>681.71</ele><time>2025-11-05T18:23:16.000Z</time></trkpt>
        <trkpt lat="29.5645046" lon="103.4232979"><ele>683.9</ele><time>2025-11-05T18:23:54.000Z</time></trkpt>
        <trkpt lat="29.5645557" lon="103.4231519"><ele>689.49</ele><time>2025-11-05T18:24:22.000Z</time></trkpt>
        <trkpt lat="29.5645644" lon="103.4230313"><ele>691.86</ele><time>2025-11-05T18:24:38.000Z</time></trkpt>
        <trkpt lat="29.564532" lon="103.4228881"><ele>693.6</ele><time>2025-11-05T18:25:02.000Z</time></trkpt>
        <trkpt lat="29.5645118" lon="103.4227463"><ele>695.02</ele><time>2025-11-05T18:25:38.000Z</time></trkpt>
        <trkpt lat="29.5644655" lon="103.4226449"><ele>697.81</ele><time>2025-11-05T18:26:02.000Z</time></trkpt>
        <trkpt lat="29.564471" lon="103.4225349"><ele>699.4</ele><time>2025-11-05T18:26:12.000Z</time></trkpt>
        <trkpt lat="29.5644624" lon="103.4223986"><ele>700.6</ele><time>2025-11-05T18:26:52.000Z</time></trkpt>
        <trkpt lat="29.5644455" lon="103.4222696"><ele>703.01</ele><time>2025-11-05T18:27:18.000Z</time></trkpt>
        <trkpt lat="29.5644293" lon="103.4221594"><ele>706.02</ele><time>2025-11-05T18:27:40.000Z</time></trkpt>
        <trkpt lat="29.5643924" lon="103.4220551"><ele>709.71</ele><time>2025-11-05T18:28:12.000Z</time></trkpt>
        <trkpt lat="29.5643405" lon="103.421967"><ele>715.21</ele><time>2025-11-05T18:28:22.000Z</time></trkpt>
        <trkpt lat="29.5643445" lon="103.421864"><ele>718.73</ele><time>2025-11-05T18:28:52.000Z</time></trkpt>
        <trkpt lat="29.5643379" lon="103.4217568"><ele>724.44</ele><time>2025-11-05T18:29:34.000Z</time></trkpt>
        <trkpt lat="29.5643626" lon="103.4216468"><ele>731.22</ele><time>2025-11-05T18:30:00.000Z</time></trkpt>
        <trkpt lat="29.5643556" lon="103.4215124"><ele>735.73</ele><time>2025-11-05T18:30:34.000Z</time></trkpt>
        <trkpt lat="29.5642986" lon="103.4213994"><ele>740.19</ele><time>2025-11-05T18:31:02.000Z</time></trkpt>
        <trkpt lat="29.5643317" lon="103.4213245"><ele>744.37</ele><time>2025-11-05T18:31:32.000Z</time></trkpt>
        <trkpt lat="29.5643883" lon="103.4213796"><ele>748.64</ele><time>2025-11-05T18:31:50.000Z</time></trkpt>
        <trkpt lat="29.5644039" lon="103.4213335"><ele>752.02</ele><time>2025-11-05T18:32:08.000Z</time></trkpt>
        <trkpt lat="29.5644615" lon="103.4212707"><ele>753.86</ele><time>2025-11-05T18:32:20.000Z</time></trkpt>
        <trkpt lat="29.5645463" lon="103.4212119"><ele>754.65</ele><time>2025-11-05T18:32:40.000Z</time></trkpt>
        <trkpt lat="29.5646405" lon="103.4211597"><ele>755.32</ele><time>2025-11-05T18:32:54.000Z</time></trkpt>
        <trkpt lat="29.5646941" lon="103.4210692"><ele>756</ele><time>2025-11-05T18:33:10.000Z</time></trkpt>
        <trkpt lat="29.5647399" lon="103.4211174"><ele>756.77</ele><time>2025-11-05T18:33:28.000Z</time></trkpt>
        <trkpt lat="29.5648116" lon="103.4211758"><ele>758.12</ele><time>2025-11-05T18:33:56.000Z</time></trkpt>
        <trkpt lat="29.564855" lon="103.4212815"><ele>759.7</ele><time>2025-11-05T18:34:06.000Z</time></trkpt>
        <trkpt lat="29.5648972" lon="103.4213892"><ele>761.34</ele><time>2025-11-05T18:34:28.000Z</time></trkpt>
        <trkpt lat="29.5649765" lon="103.4213865"><ele>762.95</ele><time>2025-11-05T18:35:26.000Z</time></trkpt>
        <trkpt lat="29.565095" lon="103.4213746"><ele>766.5</ele><time>2025-11-05T18:36:02.000Z</time></trkpt>
        <trkpt lat="29.5652098" lon="103.4213278"><ele>770.5</ele><time>2025-11-05T18:36:44.000Z</time></trkpt>
        <trkpt lat="29.5653065" lon="103.4212661"><ele>775.02</ele><time>2025-11-05T18:37:24.000Z</time></trkpt>
        <trkpt lat="29.56539" lon="103.4212033"><ele>779.7</ele><time>2025-11-05T18:38:50.000Z</time></trkpt>
        <trkpt lat="29.5654767" lon="103.421165"><ele>784.69</ele><time>2025-11-05T18:39:10.000Z</time></trkpt>
        <trkpt lat="29.5655619" lon="103.4211281"><ele>787.83</ele><time>2025-11-05T18:39:20.000Z</time></trkpt>
        <trkpt lat="29.5656508" lon="103.421094"><ele>789.5</ele><time>2025-11-05T18:39:32.000Z</time></trkpt>
        <trkpt lat="29.5657483" lon="103.4210959"><ele>790.14</ele><time>2025-11-05T18:39:48.000Z</time></trkpt>
        <trkpt lat="29.5658476" lon="103.4211306"><ele>790.43</ele><time>2025-11-05T18:39:58.000Z</time></trkpt>
        <trkpt lat="29.5659508" lon="103.4211405"><ele>790.67</ele><time>2025-11-05T18:40:24.000Z</time></trkpt>
        <trkpt lat="29.5660625" lon="103.4211471"><ele>791.24</ele><time>2025-11-05T18:41:00.000Z</time></trkpt>
        <trkpt lat="29.5661619" lon="103.4211336"><ele>791.78</ele><time>2025-11-05T18:41:30.000Z</time></trkpt>
        <trkpt lat="29.5662385" lon="103.4210664"><ele>794.5</ele><time>2025-11-05T18:41:44.000Z</time></trkpt>
        <trkpt lat="29.5662683" lon="103.4209645"><ele>797.21</ele><time>2025-11-05T18:41:54.000Z</time></trkpt>
        <trkpt lat="29.566305" lon="103.4208623"><ele>799.06</ele><time>2025-11-05T18:42:06.000Z</time></trkpt>
        <trkpt lat="29.5663325" lon="103.4207561"><ele>800.84</ele><time>2025-11-05T18:42:20.000Z</time></trkpt>
        <trkpt lat="29.5663267" lon="103.4206456"><ele>802.46</ele><time>2025-11-05T18:42:36.000Z</time></trkpt>
        <trkpt lat="29.5663412" lon="103.4205272"><ele>803.94</ele><time>2025-11-05T18:42:56.000Z</time></trkpt>
        <trkpt lat="29.5663845" lon="103.4204282"><ele>803.71</ele><time>2025-11-05T18:43:16.000Z</time></trkpt>
        <trkpt lat="29.5664434" lon="103.4203397"><ele>802.37</ele><time>2025-11-05T18:43:36.000Z</time></trkpt>
        <trkpt lat="29.5665317" lon="103.4202682"><ele>801.39</ele><time>2025-11-05T18:43:54.000Z</time></trkpt>
        <trkpt lat="29.5666028" lon="103.4201908"><ele>801.01</ele><time>2025-11-05T18:44:06.000Z</time></trkpt>
        <trkpt lat="29.56664" lon="103.4200911"><ele>801.13</ele><time>2025-11-05T18:44:20.000Z</time></trkpt>
        <trkpt lat="29.5666658" lon="103.419989"><ele>801.16</ele><time>2025-11-05T18:44:32.000Z</time></trkpt>
        <trkpt lat="29.5667015" lon="103.4198733"><ele>800.92</ele><time>2025-11-05T18:44:56.000Z</time></trkpt>
        <trkpt lat="29.5667913" lon="103.419866"><ele>800.61</ele><time>2025-11-05T18:45:56.000Z</time></trkpt>
        <trkpt lat="29.566935" lon="103.4200133"><ele>799.27</ele><time>2025-11-05T18:46:58.000Z</time></trkpt>
        <trkpt lat="29.5670017" lon="103.4200833"><ele>801.65</ele><time>2025-11-05T18:47:20.000Z</time></trkpt>
        <trkpt lat="29.5670119" lon="103.4201858"><ele>803.56</ele><time>2025-11-05T18:47:52.000Z</time></trkpt>
        <trkpt lat="29.5669942" lon="103.4202914"><ele>805.43</ele><time>2025-11-05T18:48:06.000Z</time></trkpt>
        <trkpt lat="29.5670314" lon="103.4203768"><ele>807.65</ele><time>2025-11-05T18:48:30.000Z</time></trkpt>
        <trkpt lat="29.5670911" lon="103.420452"><ele>810.04</ele><time>2025-11-05T18:48:52.000Z</time></trkpt>
        <trkpt lat="29.5672167" lon="103.4204751"><ele>812.65</ele><time>2025-11-05T18:49:36.000Z</time></trkpt>
        <trkpt lat="29.5673268" lon="103.4204725"><ele>814.86</ele><time>2025-11-05T18:49:56.000Z</time></trkpt>
        <trkpt lat="29.5674328" lon="103.4204651"><ele>817.42</ele><time>2025-11-05T18:50:38.000Z</time></trkpt>
        <trkpt lat="29.5675169" lon="103.420414"><ele>822.1</ele><time>2025-11-05T18:51:12.000Z</time></trkpt>
        <trkpt lat="29.5676599" lon="103.4203364"><ele>825.54</ele><time>2025-11-05T18:52:04.000Z</time></trkpt>
        <trkpt lat="29.567769" lon="103.4202563"><ele>829.65</ele><time>2025-11-05T18:52:40.000Z</time></trkpt>
        <trkpt lat="29.5678529" lon="103.4201911"><ele>832.94</ele><time>2025-11-05T18:52:58.000Z</time></trkpt>
        <trkpt lat="29.5679568" lon="103.4201532"><ele>835.89</ele><time>2025-11-05T18:53:38.000Z</time></trkpt>
        <trkpt lat="29.5680508" lon="103.4201155"><ele>837.92</ele><time>2025-11-05T18:54:08.000Z</time></trkpt>
        <trkpt lat="29.5681772" lon="103.4200839"><ele>840.19</ele><time>2025-11-05T18:55:04.000Z</time></trkpt>
        <trkpt lat="29.5683297" lon="103.4200713"><ele>845.44</ele><time>2025-11-05T18:55:50.000Z</time></trkpt>
        <trkpt lat="29.5684638" lon="103.4200638"><ele>851.62</ele><time>2025-11-05T18:56:44.000Z</time></trkpt>
        <trkpt lat="29.5685715" lon="103.420049"><ele>857.37</ele><time>2025-11-05T18:57:14.000Z</time></trkpt>
        <trkpt lat="29.5686843" lon="103.4200495"><ele>862.81</ele><time>2025-11-05T18:57:48.000Z</time></trkpt>
        <trkpt lat="29.5687953" lon="103.4200027"><ele>869.08</ele><time>2025-11-05T18:58:38.000Z</time></trkpt>
        <trkpt lat="29.5688748" lon="103.4199377"><ele>874.3</ele><time>2025-11-05T18:58:56.000Z</time></trkpt>
        <trkpt lat="29.5689594" lon="103.4198946"><ele>878.77</ele><time>2025-11-05T18:59:14.000Z</time></trkpt>
        <trkpt lat="29.569054" lon="103.4198527"><ele>882.01</ele><time>2025-11-05T18:59:26.000Z</time></trkpt>
        <trkpt lat="29.5691468" lon="103.4198099"><ele>884.07</ele><time>2025-11-05T18:59:34.000Z</time></trkpt>
        <trkpt lat="29.5692449" lon="103.419768"><ele>885.33</ele><time>2025-11-05T18:59:48.000Z</time></trkpt>
        <trkpt lat="29.5693351" lon="103.4197239"><ele>886.52</ele><time>2025-11-05T19:00:18.000Z</time></trkpt>
        <trkpt lat="29.5694207" lon="103.4196714"><ele>887.93</ele><time>2025-11-05T19:00:58.000Z</time></trkpt>
        <trkpt lat="29.569495" lon="103.4196084"><ele>888.56</ele><time>2025-11-05T19:01:08.000Z</time></trkpt>
        <trkpt lat="29.5695643" lon="103.4195284"><ele>889.22</ele><time>2025-11-05T19:01:20.000Z</time></trkpt>
        <trkpt lat="29.5696276" lon="103.4194366"><ele>889.64</ele><time>2025-11-05T19:01:38.000Z</time></trkpt>
        <trkpt lat="29.5696807" lon="103.4193458"><ele>890.4</ele><time>2025-11-05T19:01:50.000Z</time></trkpt>
        <trkpt lat="29.5697332" lon="103.4192591"><ele>889.93</ele><time>2025-11-05T19:02:00.000Z</time></trkpt>
        <trkpt lat="29.5697777" lon="103.4191609"><ele>888.5</ele><time>2025-11-05T19:02:16.000Z</time></trkpt>
        <trkpt lat="29.5697722" lon="103.4190461"><ele>886.91</ele><time>2025-11-05T19:02:34.000Z</time></trkpt>
        <trkpt lat="29.5697617" lon="103.4189372"><ele>886.39</ele><time>2025-11-05T19:02:44.000Z</time></trkpt>
        <trkpt lat="29.569765" lon="103.4188304"><ele>886.44</ele><time>2025-11-05T19:03:02.000Z</time></trkpt>
        <trkpt lat="29.5697727" lon="103.4187211"><ele>886.81</ele><time>2025-11-05T19:03:18.000Z</time></trkpt>
        <trkpt lat="29.5697924" lon="103.4186171"><ele>887.54</ele><time>2025-11-05T19:03:32.000Z</time></trkpt>
        <trkpt lat="29.5698217" lon="103.4184833"><ele>888.12</ele><time>2025-11-05T19:04:34.000Z</time></trkpt>
        <trkpt lat="29.5697567" lon="103.4183933"><ele>887.85</ele><time>2025-11-05T19:04:50.000Z</time></trkpt>
        <trkpt lat="29.569789" lon="103.4182949"><ele>887.49</ele><time>2025-11-05T19:05:46.000Z</time></trkpt>
        <trkpt lat="29.5698475" lon="103.4182039"><ele>887.41</ele><time>2025-11-05T19:06:02.000Z</time></trkpt>
        <trkpt lat="29.5698759" lon="103.4181027"><ele>887.7</ele><time>2025-11-05T19:06:14.000Z</time></trkpt>
        <trkpt lat="29.5699226" lon="103.4180065"><ele>888.61</ele><time>2025-11-05T19:06:32.000Z</time></trkpt>
        <trkpt lat="29.5699706" lon="103.417895"><ele>889.76</ele><time>2025-11-05T19:06:42.000Z</time></trkpt>
        <trkpt lat="29.5700192" lon="103.4177916"><ele>889.78</ele><time>2025-11-05T19:06:58.000Z</time></trkpt>
        <trkpt lat="29.5700321" lon="103.417682"><ele>888.46</ele><time>2025-11-05T19:07:10.000Z</time></trkpt>
        <trkpt lat="29.5700292" lon="103.4175752"><ele>886.84</ele><time>2025-11-05T19:07:24.000Z</time></trkpt>
        <trkpt lat="29.5700171" lon="103.4174671"><ele>884.84</ele><time>2025-11-05T19:07:38.000Z</time></trkpt>
        <trkpt lat="29.5700135" lon="103.4173575"><ele>882.72</ele><time>2025-11-05T19:07:46.000Z</time></trkpt>
        <trkpt lat="29.5700433" lon="103.4172423"><ele>880.99</ele><time>2025-11-05T19:07:58.000Z</time></trkpt>
        <trkpt lat="29.5700592" lon="103.4171289"><ele>879.62</ele><time>2025-11-05T19:08:10.000Z</time></trkpt>
        <trkpt lat="29.5701173" lon="103.4170517"><ele>878.71</ele><time>2025-11-05T19:08:18.000Z</time></trkpt>
        <trkpt lat="29.570217" lon="103.4170341"><ele>878.4</ele><time>2025-11-05T19:08:32.000Z</time></trkpt>
        <trkpt lat="29.5703219" lon="103.4170501"><ele>878.23</ele><time>2025-11-05T19:08:46.000Z</time></trkpt>
        <trkpt lat="29.5703852" lon="103.4169928"><ele>878.13</ele><time>2025-11-05T19:08:56.000Z</time></trkpt>
        <trkpt lat="29.5703972" lon="103.4168957"><ele>877.26</ele><time>2025-11-05T19:09:14.000Z</time></trkpt>
        <trkpt lat="29.5703755" lon="103.4167784"><ele>876.2</ele><time>2025-11-05T19:09:26.000Z</time></trkpt>
        <trkpt lat="29.5703572" lon="103.4166582"><ele>875.21</ele><time>2025-11-05T19:09:40.000Z</time></trkpt>
        <trkpt lat="29.5703728" lon="103.4165447"><ele>874.95</ele><time>2025-11-05T19:10:00.000Z</time></trkpt>
        <trkpt lat="29.5703748" lon="103.4164302"><ele>874.8</ele><time>2025-11-05T19:10:14.000Z</time></trkpt>
        <trkpt lat="29.5703786" lon="103.4163172"><ele>874.93</ele><time>2025-11-05T19:10:28.000Z</time></trkpt>
        <trkpt lat="29.5704395" lon="103.4162113"><ele>875.09</ele><time>2025-11-05T19:10:46.000Z</time></trkpt>
        <trkpt lat="29.570539" lon="103.4161631"><ele>875.61</ele><time>2025-11-05T19:11:12.000Z</time></trkpt>
        <trkpt lat="29.5706368" lon="103.4160957"><ele>876.29</ele><time>2025-11-05T19:11:34.000Z</time></trkpt>
        <trkpt lat="29.5707378" lon="103.4160203"><ele>876.98</ele><time>2025-11-05T19:12:12.000Z</time></trkpt>
        <trkpt lat="29.5707229" lon="103.4159276"><ele>877.12</ele><time>2025-11-05T19:12:28.000Z</time></trkpt>
        <trkpt lat="29.5706444" lon="103.4158398"><ele>877.58</ele><time>2025-11-05T19:12:42.000Z</time></trkpt>
        <trkpt lat="29.5706172" lon="103.4157361"><ele>878.75</ele><time>2025-11-05T19:12:54.000Z</time></trkpt>
        <trkpt lat="29.5705578" lon="103.4157607"><ele>879.85</ele><time>2025-11-05T19:13:10.000Z</time></trkpt>
        <trkpt lat="29.5704633" lon="103.4157406"><ele>878.28</ele><time>2025-11-05T19:13:26.000Z</time></trkpt>
        <trkpt lat="29.5703946" lon="103.4156689"><ele>877.43</ele><time>2025-11-05T19:13:46.000Z</time></trkpt>
        <trkpt lat="29.5703169" lon="103.4156036"><ele>877.89</ele><time>2025-11-05T19:14:06.000Z</time></trkpt>
        <trkpt lat="29.5702388" lon="103.4155404"><ele>877.42</ele><time>2025-11-05T19:14:16.000Z</time></trkpt>
        <trkpt lat="29.5701497" lon="103.4155252"><ele>876.98</ele><time>2025-11-05T19:14:32.000Z</time></trkpt>
        <trkpt lat="29.5700332" lon="103.4155004"><ele>876.39</ele><time>2025-11-05T19:15:02.000Z</time></trkpt>
        <trkpt lat="29.5699376" lon="103.4154319"><ele>876.09</ele><time>2025-11-05T19:15:18.000Z</time></trkpt>
        <trkpt lat="29.569879" lon="103.4153293"><ele>877.47</ele><time>2025-11-05T19:15:32.000Z</time></trkpt>
        <trkpt lat="29.5698351" lon="103.4152275"><ele>878.99</ele><time>2025-11-05T19:15:40.000Z</time></trkpt>
        <trkpt lat="29.5698483" lon="103.4151138"><ele>880.16</ele><time>2025-11-05T19:15:50.000Z</time></trkpt>
        <trkpt lat="29.5698592" lon="103.4149998"><ele>881.55</ele><time>2025-11-05T19:16:00.000Z</time></trkpt>
        <trkpt lat="29.5698362" lon="103.4148883"><ele>883.12</ele><time>2025-11-05T19:16:10.000Z</time></trkpt>
        <trkpt lat="29.5697663" lon="103.4148062"><ele>884.53</ele><time>2025-11-05T19:16:20.000Z</time></trkpt>
        <trkpt lat="29.5696812" lon="103.4147313"><ele>886.07</ele><time>2025-11-05T19:16:32.000Z</time></trkpt>
        <trkpt lat="29.5695936" lon="103.4146763"><ele>886.9</ele><time>2025-11-05T19:16:44.000Z</time></trkpt>
        <trkpt lat="29.5695049" lon="103.4147039"><ele>886.9</ele><time>2025-11-05T19:16:56.000Z</time></trkpt>
        <trkpt lat="29.569406" lon="103.4147523"><ele>886.17</ele><time>2025-11-05T19:17:08.000Z</time></trkpt>
        <trkpt lat="29.5693079" lon="103.4147955"><ele>885.41</ele><time>2025-11-05T19:17:20.000Z</time></trkpt>
        <trkpt lat="29.5692023" lon="103.4148164"><ele>884.41</ele><time>2025-11-05T19:17:34.000Z</time></trkpt>
        <trkpt lat="29.5691772" lon="103.414736"><ele>882.73</ele><time>2025-11-05T19:18:08.000Z</time></trkpt>
        <trkpt lat="29.5691182" lon="103.414645"><ele>881.08</ele><time>2025-11-05T19:18:20.000Z</time></trkpt>
        <trkpt lat="29.5690879" lon="103.4145371"><ele>880.1</ele><time>2025-11-05T19:18:32.000Z</time></trkpt>
        <trkpt lat="29.569064" lon="103.4144191"><ele>879.54</ele><time>2025-11-05T19:18:44.000Z</time></trkpt>
        <trkpt lat="29.5690896" lon="103.4143077"><ele>879.31</ele><time>2025-11-05T19:18:56.000Z</time></trkpt>
        <trkpt lat="29.5691044" lon="103.4141983"><ele>879.73</ele><time>2025-11-05T19:19:08.000Z</time></trkpt>
        <trkpt lat="29.5690781" lon="103.4140879"><ele>880.28</ele><time>2025-11-05T19:19:20.000Z</time></trkpt>
        <trkpt lat="29.5691082" lon="103.4139761"><ele>879.86</ele><time>2025-11-05T19:19:30.000Z</time></trkpt>
        <trkpt lat="29.5691555" lon="103.4138653"><ele>879.36</ele><time>2025-11-05T19:19:42.000Z</time></trkpt>
        <trkpt lat="29.5691367" lon="103.41376"><ele>879.94</ele><time>2025-11-05T19:19:54.000Z</time></trkpt>
        <trkpt lat="29.5690804" lon="103.4136768"><ele>880.48</ele><time>2025-11-05T19:20:04.000Z</time></trkpt>
        <trkpt lat="29.5690404" lon="103.4135839"><ele>880.4</ele><time>2025-11-05T19:20:14.000Z</time></trkpt>
        <trkpt lat="29.5690173" lon="103.413476"><ele>880.62</ele><time>2025-11-05T19:20:32.000Z</time></trkpt>
        <trkpt lat="29.5690233" lon="103.413325"><ele>881.38</ele><time>2025-11-05T19:21:36.000Z</time></trkpt>
        <trkpt lat="29.5689683" lon="103.4132417"><ele>881</ele><time>2025-11-05T19:21:50.000Z</time></trkpt>
        <trkpt lat="29.5689937" lon="103.4131329"><ele>880.53</ele><time>2025-11-05T19:22:00.000Z</time></trkpt>
        <trkpt lat="29.5690732" lon="103.4130712"><ele>880.3</ele><time>2025-11-05T19:22:14.000Z</time></trkpt>
        <trkpt lat="29.5691299" lon="103.4129801"><ele>880.21</ele><time>2025-11-05T19:22:26.000Z</time></trkpt>
        <trkpt lat="29.5692032" lon="103.4128874"><ele>879.91</ele><time>2025-11-05T19:22:40.000Z</time></trkpt>
        <trkpt lat="29.5692889" lon="103.4128071"><ele>878.87</ele><time>2025-11-05T19:22:50.000Z</time></trkpt>
        <trkpt lat="29.5693736" lon="103.4127406"><ele>877.89</ele><time>2025-11-05T19:23:00.000Z</time></trkpt>
        <trkpt lat="29.5694064" lon="103.4126398"><ele>876.99</ele><time>2025-11-05T19:23:12.000Z</time></trkpt>
        <trkpt lat="29.5693843" lon="103.412538"><ele>876.05</ele><time>2025-11-05T19:23:22.000Z</time></trkpt>
        <trkpt lat="29.5693033" lon="103.4124735"><ele>874.95</ele><time>2025-11-05T19:23:56.000Z</time></trkpt>
        <trkpt lat="29.5693415" lon="103.4124359"><ele>874.67</ele><time>2025-11-05T19:24:10.000Z</time></trkpt>
        <trkpt lat="29.5693174" lon="103.4123589"><ele>874.56</ele><time>2025-11-05T19:24:40.000Z</time></trkpt>
        <trkpt lat="29.5693295" lon="103.4122551"><ele>873.07</ele><time>2025-11-05T19:25:00.000Z</time></trkpt>
        <trkpt lat="29.5692787" lon="103.4121713"><ele>872.39</ele><time>2025-11-05T19:25:38.000Z</time></trkpt>
        <trkpt lat="29.5691736" lon="103.4121494"><ele>869.64</ele><time>2025-11-05T19:26:06.000Z</time></trkpt>
        <trkpt lat="29.5690403" lon="103.4121023"><ele>866.01</ele><time>2025-11-05T19:27:04.000Z</time></trkpt>
        <trkpt lat="29.5689337" lon="103.4120415"><ele>862.18</ele><time>2025-11-05T19:27:36.000Z</time></trkpt>
        <trkpt lat="29.5688633" lon="103.4119639"><ele>855.82</ele><time>2025-11-05T19:27:48.000Z</time></trkpt>
        <trkpt lat="29.568793" lon="103.4118844"><ele>851.47</ele><time>2025-11-05T19:28:00.000Z</time></trkpt>
        <trkpt lat="29.5687073" lon="103.4118456"><ele>848.43</ele><time>2025-11-05T19:28:16.000Z</time></trkpt>
        <trkpt lat="29.5686012" lon="103.4118236"><ele>846.31</ele><time>2025-11-05T19:28:52.000Z</time></trkpt>
        <trkpt lat="29.5685157" lon="103.4117595"><ele>845.75</ele><time>2025-11-05T19:29:26.000Z</time></trkpt>
        <trkpt lat="29.5684365" lon="103.4116532"><ele>845.34</ele><time>2025-11-05T19:29:58.000Z</time></trkpt>
        <trkpt lat="29.568358" lon="103.4115602"><ele>843.69</ele><time>2025-11-05T19:30:08.000Z</time></trkpt>
        <trkpt lat="29.5683492" lon="103.4114514"><ele>842.32</ele><time>2025-11-05T19:30:30.000Z</time></trkpt>
        <trkpt lat="29.5683868" lon="103.4113388"><ele>840.8</ele><time>2025-11-05T19:30:42.000Z</time></trkpt>
        <trkpt lat="29.5684136" lon="103.4112313"><ele>840.16</ele><time>2025-11-05T19:31:02.000Z</time></trkpt>
        <trkpt lat="29.5684644" lon="103.4111402"><ele>839.14</ele><time>2025-11-05T19:31:16.000Z</time></trkpt>
        <trkpt lat="29.5685145" lon="103.4110329"><ele>837.32</ele><time>2025-11-05T19:31:28.000Z</time></trkpt>
        <trkpt lat="29.5685533" lon="103.41093"><ele>835.8</ele><time>2025-11-05T19:31:44.000Z</time></trkpt>
        <trkpt lat="29.5685792" lon="103.4108205"><ele>834.94</ele><time>2025-11-05T19:31:58.000Z</time></trkpt>
        <trkpt lat="29.5685904" lon="103.4107099"><ele>835.27</ele><time>2025-11-05T19:32:26.000Z</time></trkpt>
        <trkpt lat="29.5686083" lon="103.4106017"><ele>834.94</ele><time>2025-11-05T19:32:42.000Z</time></trkpt>
        <trkpt lat="29.5686334" lon="103.4104934"><ele>833.98</ele><time>2025-11-05T19:32:54.000Z</time></trkpt>
        <trkpt lat="29.5686139" lon="103.4103775"><ele>833.13</ele><time>2025-11-05T19:33:16.000Z</time></trkpt>
        <trkpt lat="29.5686029" lon="103.4102689"><ele>831.26</ele><time>2025-11-05T19:33:26.000Z</time></trkpt>
        <trkpt lat="29.5686261" lon="103.4101609"><ele>829.73</ele><time>2025-11-05T19:33:40.000Z</time></trkpt>
        <trkpt lat="29.56861" lon="103.4100567"><ele>828.08</ele><time>2025-11-05T19:33:48.000Z</time></trkpt>
        <trkpt lat="29.5685504" lon="103.40998"><ele>827.7</ele><time>2025-11-05T19:34:00.000Z</time></trkpt>
        <trkpt lat="29.5684651" lon="103.4099357"><ele>828.39</ele><time>2025-11-05T19:34:18.000Z</time></trkpt>
        <trkpt lat="29.5683723" lon="103.409904"><ele>828.65</ele><time>2025-11-05T19:34:32.000Z</time></trkpt>
        <trkpt lat="29.5683098" lon="103.4098242"><ele>829.36</ele><time>2025-11-05T19:34:48.000Z</time></trkpt>
        <trkpt lat="29.5682755" lon="103.4097197"><ele>828.04</ele><time>2025-11-05T19:35:10.000Z</time></trkpt>
        <trkpt lat="29.5682433" lon="103.4095967"><ele>826.78</ele><time>2025-11-05T19:36:22.000Z</time></trkpt>
        <trkpt lat="29.5682117" lon="103.4095"><ele>822.79</ele><time>2025-11-05T19:36:30.000Z</time></trkpt>
        <trkpt lat="29.5681574" lon="103.409416"><ele>821.07</ele><time>2025-11-05T19:37:06.000Z</time></trkpt>
        <trkpt lat="29.5681108" lon="103.4093214"><ele>817.56</ele><time>2025-11-05T19:37:28.000Z</time></trkpt>
        <trkpt lat="29.5680689" lon="103.4092236"><ele>814.91</ele><time>2025-11-05T19:37:58.000Z</time></trkpt>
        <trkpt lat="29.5680326" lon="103.409121"><ele>813.31</ele><time>2025-11-05T19:38:16.000Z</time></trkpt>
        <trkpt lat="29.5679781" lon="103.4090319"><ele>811.54</ele><time>2025-11-05T19:38:36.000Z</time></trkpt>
        <trkpt lat="29.5679265" lon="103.408937"><ele>809.85</ele><time>2025-11-05T19:39:04.000Z</time></trkpt>
        <trkpt lat="29.5678906" lon="103.4088356"><ele>806.86</ele><time>2025-11-05T19:39:20.000Z</time></trkpt>
        <trkpt lat="29.5678832" lon="103.4087282"><ele>803.87</ele><time>2025-11-05T19:39:48.000Z</time></trkpt>
        <trkpt lat="29.5678505" lon="103.4086302"><ele>799.97</ele><time>2025-11-05T19:40:00.000Z</time></trkpt>
        <trkpt lat="29.567794" lon="103.4085488"><ele>796.63</ele><time>2025-11-05T19:40:12.000Z</time></trkpt>
        <trkpt lat="29.5677267" lon="103.4084781"><ele>793.69</ele><time>2025-11-05T19:40:36.000Z</time></trkpt>
        <trkpt lat="29.5676494" lon="103.4084166"><ele>790.9</ele><time>2025-11-05T19:40:52.000Z</time></trkpt>
        <trkpt lat="29.5675786" lon="103.4084676"><ele>788.83</ele><time>2025-11-05T19:41:14.000Z</time></trkpt>
        <trkpt lat="29.567534" lon="103.4085685"><ele>784.3</ele><time>2025-11-05T19:41:24.000Z</time></trkpt>
        <trkpt lat="29.5674505" lon="103.4086246"><ele>780.3</ele><time>2025-11-05T19:41:34.000Z</time></trkpt>
        <trkpt lat="29.5673527" lon="103.4086079"><ele>778.02</ele><time>2025-11-05T19:41:44.000Z</time></trkpt>
        <trkpt lat="29.5672637" lon="103.4085599"><ele>776.38</ele><time>2025-11-05T19:41:50.000Z</time></trkpt>
        <trkpt lat="29.5671795" lon="103.4085003"><ele>775.74</ele><time>2025-11-05T19:42:00.000Z</time></trkpt>
        <trkpt lat="29.5670899" lon="103.4084463"><ele>774.52</ele><time>2025-11-05T19:42:10.000Z</time></trkpt>
        <trkpt lat="29.5669957" lon="103.4084231"><ele>773.13</ele><time>2025-11-05T19:42:20.000Z</time></trkpt>
        <trkpt lat="29.5668963" lon="103.4084273"><ele>772.39</ele><time>2025-11-05T19:42:28.000Z</time></trkpt>
        <trkpt lat="29.5667879" lon="103.4084441"><ele>772.18</ele><time>2025-11-05T19:42:38.000Z</time></trkpt>
        <trkpt lat="29.566693" lon="103.4084233"><ele>772.02</ele><time>2025-11-05T19:42:46.000Z</time></trkpt>
        <trkpt lat="29.5666438" lon="103.4083357"><ele>772.14</ele><time>2025-11-05T19:42:56.000Z</time></trkpt>
        <trkpt lat="29.5666535" lon="103.4082159"><ele>772.47</ele><time>2025-11-05T19:43:06.000Z</time></trkpt>
        <trkpt lat="29.5666722" lon="103.4080874"><ele>773.17</ele><time>2025-11-05T19:43:30.000Z</time></trkpt>
        <trkpt lat="29.5666831" lon="103.4079723"><ele>773.05</ele><time>2025-11-05T19:43:42.000Z</time></trkpt>
        <trkpt lat="29.5666657" lon="103.4078671"><ele>772.69</ele><time>2025-11-05T19:43:52.000Z</time></trkpt>
        <trkpt lat="29.5666381" lon="103.4077675"><ele>772.86</ele><time>2025-11-05T19:43:58.000Z</time></trkpt>
        <trkpt lat="29.5666189" lon="103.4076497"><ele>773.31</ele><time>2025-11-05T19:44:12.000Z</time></trkpt>
        <trkpt lat="29.5665852" lon="103.4075374"><ele>774.85</ele><time>2025-11-05T19:44:22.000Z</time></trkpt>
        <trkpt lat="29.5665324" lon="103.4074766"><ele>775.56</ele><time>2025-11-05T19:44:36.000Z</time></trkpt>
        <trkpt lat="29.5664747" lon="103.407401"><ele>775.02</ele><time>2025-11-05T19:44:52.000Z</time></trkpt>
        <trkpt lat="29.5664531" lon="103.4072997"><ele>774.32</ele><time>2025-11-05T19:44:58.000Z</time></trkpt>
        <trkpt lat="29.5664458" lon="103.4071771"><ele>774.53</ele><time>2025-11-05T19:45:06.000Z</time></trkpt>
        <trkpt lat="29.5664246" lon="103.4070653"><ele>776.54</ele><time>2025-11-05T19:45:16.000Z</time></trkpt>
        <trkpt lat="29.5664358" lon="103.4069579"><ele>777.17</ele><time>2025-11-05T19:45:24.000Z</time></trkpt>
        <trkpt lat="29.5664687" lon="103.4068462"><ele>777.18</ele><time>2025-11-05T19:45:36.000Z</time></trkpt>
        <trkpt lat="29.5665491" lon="103.4067704"><ele>776.5</ele><time>2025-11-05T19:45:44.000Z</time></trkpt>
        <trkpt lat="29.5666196" lon="103.4066892"><ele>775.55</ele><time>2025-11-05T19:45:54.000Z</time></trkpt>
        <trkpt lat="29.5666928" lon="103.4066128"><ele>774.15</ele><time>2025-11-05T19:46:02.000Z</time></trkpt>
        <trkpt lat="29.5667681" lon="103.4065489"><ele>773.14</ele><time>2025-11-05T19:46:10.000Z</time></trkpt>
        <trkpt lat="29.5668356" lon="103.40648"><ele>773.17</ele><time>2025-11-05T19:46:18.000Z</time></trkpt>
        <trkpt lat="29.5668998" lon="103.4063984"><ele>773.48</ele><time>2025-11-05T19:46:30.000Z</time></trkpt>
        <trkpt lat="29.5669478" lon="103.406308"><ele>772.93</ele><time>2025-11-05T19:46:38.000Z</time></trkpt>
        <trkpt lat="29.5670052" lon="103.406205"><ele>772.23</ele><time>2025-11-05T19:46:48.000Z</time></trkpt>
        <trkpt lat="29.5670519" lon="103.4061069"><ele>771.53</ele><time>2025-11-05T19:47:00.000Z</time></trkpt>
        <trkpt lat="29.5671049" lon="103.4060067"><ele>770.66</ele><time>2025-11-05T19:47:10.000Z</time></trkpt>
        <trkpt lat="29.5671519" lon="103.4059073"><ele>769.94</ele><time>2025-11-05T19:47:20.000Z</time></trkpt>
        <trkpt lat="29.5671379" lon="103.4057985"><ele>769.02</ele><time>2025-11-05T19:47:32.000Z</time></trkpt>
        <trkpt lat="29.5670706" lon="103.4056976"><ele>767.25</ele><time>2025-11-05T19:47:42.000Z</time></trkpt>
        <trkpt lat="29.5669935" lon="103.4056064"><ele>765.64</ele><time>2025-11-05T19:47:56.000Z</time></trkpt>
        <trkpt lat="29.5668977" lon="103.4055224"><ele>764.33</ele><time>2025-11-05T19:48:04.000Z</time></trkpt>
        <trkpt lat="29.5668257" lon="103.4054228"><ele>762.68</ele><time>2025-11-05T19:48:14.000Z</time></trkpt>
        <trkpt lat="29.5667637" lon="103.4053207"><ele>762.3</ele><time>2025-11-05T19:48:22.000Z</time></trkpt>
        <trkpt lat="29.5667318" lon="103.4052018"><ele>762.43</ele><time>2025-11-05T19:48:34.000Z</time></trkpt>
        <trkpt lat="29.566763" lon="103.4050922"><ele>762.46</ele><time>2025-11-05T19:48:44.000Z</time></trkpt>
        <trkpt lat="29.5668517" lon="103.4050936"><ele>762.86</ele><time>2025-11-05T19:48:54.000Z</time></trkpt>
        <trkpt lat="29.5669593" lon="103.405133"><ele>763.48</ele><time>2025-11-05T19:49:04.000Z</time></trkpt>
        <trkpt lat="29.5670672" lon="103.4051341"><ele>763.45</ele><time>2025-11-05T19:49:12.000Z</time></trkpt>
        <trkpt lat="29.5671662" lon="103.4051033"><ele>763.17</ele><time>2025-11-05T19:49:22.000Z</time></trkpt>
        <trkpt lat="29.5672723" lon="103.4050864"><ele>762.19</ele><time>2025-11-05T19:49:32.000Z</time></trkpt>
        <trkpt lat="29.5673678" lon="103.4050686"><ele>761.25</ele><time>2025-11-05T19:49:42.000Z</time></trkpt>
        <trkpt lat="29.5674613" lon="103.4050715"><ele>759.72</ele><time>2025-11-05T19:49:52.000Z</time></trkpt>
        <trkpt lat="29.5675555" lon="103.405091"><ele>758.04</ele><time>2025-11-05T19:50:00.000Z</time></trkpt>
        <trkpt lat="29.5676626" lon="103.4051027"><ele>756.69</ele><time>2025-11-05T19:50:12.000Z</time></trkpt>
        <trkpt lat="29.5677696" lon="103.4050989"><ele>755.83</ele><time>2025-11-05T19:50:22.000Z</time></trkpt>
        <trkpt lat="29.5678608" lon="103.4050565"><ele>755.26</ele><time>2025-11-05T19:50:34.000Z</time></trkpt>
        <trkpt lat="29.5679509" lon="103.4050082"><ele>754.8</ele><time>2025-11-05T19:50:40.000Z</time></trkpt>
        <trkpt lat="29.5680375" lon="103.4049626"><ele>754.8</ele><time>2025-11-05T19:50:48.000Z</time></trkpt>
        <trkpt lat="29.5681245" lon="103.4049022"><ele>755.1</ele><time>2025-11-05T19:50:58.000Z</time></trkpt>
        <trkpt lat="29.5682234" lon="103.4048621"><ele>755.36</ele><time>2025-11-05T19:51:10.000Z</time></trkpt>
        <trkpt lat="29.5683092" lon="103.4048018"><ele>755.94</ele><time>2025-11-05T19:51:18.000Z</time></trkpt>
        <trkpt lat="29.5683409" lon="103.4047687"><ele>756.22</ele><time>2025-11-05T19:51:20.000Z</time></trkpt>
        <trkpt lat="29.5683809" lon="103.4046888"><ele>756.34</ele><time>2025-11-05T19:51:30.000Z</time></trkpt>
        <trkpt lat="29.5684257" lon="103.4045808"><ele>756.19</ele><time>2025-11-05T19:51:42.000Z</time></trkpt>
        <trkpt lat="29.5684836" lon="103.4044845"><ele>755.59</ele><time>2025-11-05T19:51:50.000Z</time></trkpt>
        <trkpt lat="29.5685354" lon="103.4043813"><ele>754.78</ele><time>2025-11-05T19:52:02.000Z</time></trkpt>
        <trkpt lat="29.5685844" lon="103.4042801"><ele>753.45</ele><time>2025-11-05T19:52:12.000Z</time></trkpt>
        <trkpt lat="29.5686388" lon="103.4041817"><ele>752.23</ele><time>2025-11-05T19:52:24.000Z</time></trkpt>
        <trkpt lat="29.5686941" lon="103.4040959"><ele>750.92</ele><time>2025-11-05T19:52:44.000Z</time></trkpt>
        <trkpt lat="29.5687445" lon="103.4040059"><ele>749.54</ele><time>2025-11-05T19:52:54.000Z</time></trkpt>
        <trkpt lat="29.5688192" lon="103.4039437"><ele>748.45</ele><time>2025-11-05T19:53:00.000Z</time></trkpt>
        <trkpt lat="29.568908" lon="103.4039442"><ele>748.73</ele><time>2025-11-05T19:53:06.000Z</time></trkpt>
        <trkpt lat="29.5690071" lon="103.4039584"><ele>750.82</ele><time>2025-11-05T19:53:36.000Z</time></trkpt>
        <trkpt lat="29.5690996" lon="103.404011"><ele>749.91</ele><time>2025-11-05T19:53:44.000Z</time></trkpt>
        <trkpt lat="29.5691872" lon="103.4039856"><ele>748.74</ele><time>2025-11-05T19:53:52.000Z</time></trkpt>
        <trkpt lat="29.5692802" lon="103.4039205"><ele>747.86</ele><time>2025-11-05T19:54:02.000Z</time></trkpt>
        <trkpt lat="29.5693739" lon="103.4038545"><ele>746.89</ele><time>2025-11-05T19:54:12.000Z</time></trkpt>
        <trkpt lat="29.569464" lon="103.4037866"><ele>746.16</ele><time>2025-11-05T19:54:20.000Z</time></trkpt>
        <trkpt lat="29.569555" lon="103.4037286"><ele>745.71</ele><time>2025-11-05T19:54:30.000Z</time></trkpt>
        <trkpt lat="29.5696277" lon="103.4036527"><ele>744.93</ele><time>2025-11-05T19:54:40.000Z</time></trkpt>
        <trkpt lat="29.5696988" lon="103.4035703"><ele>744.36</ele><time>2025-11-05T19:54:52.000Z</time></trkpt>
        <trkpt lat="29.569774" lon="103.4034741"><ele>743.52</ele><time>2025-11-05T19:55:04.000Z</time></trkpt>
        <trkpt lat="29.5698525" lon="103.403395"><ele>741.36</ele><time>2025-11-05T19:55:10.000Z</time></trkpt>
        <trkpt lat="29.569935" lon="103.4033145"><ele>741.2</ele><time>2025-11-05T19:55:22.000Z</time></trkpt>
        <trkpt lat="29.5699961" lon="103.4032246"><ele>742.32</ele><time>2025-11-05T19:55:30.000Z</time></trkpt>
        <trkpt lat="29.5700417" lon="103.4031148"><ele>743.56</ele><time>2025-11-05T19:55:40.000Z</time></trkpt>
        <trkpt lat="29.5700739" lon="103.403002"><ele>744.14</ele><time>2025-11-05T19:55:50.000Z</time></trkpt>
        <trkpt lat="29.5701151" lon="103.4028907"><ele>744.12</ele><time>2025-11-05T19:56:02.000Z</time></trkpt>
        <trkpt lat="29.5701861" lon="103.4028221"><ele>742.56</ele><time>2025-11-05T19:56:10.000Z</time></trkpt>
        <trkpt lat="29.5702858" lon="103.4027996"><ele>741.72</ele><time>2025-11-05T19:56:22.000Z</time></trkpt>
        <trkpt lat="29.570392" lon="103.4027892"><ele>740.68</ele><time>2025-11-05T19:56:32.000Z</time></trkpt>
        <trkpt lat="29.5705007" lon="103.4027697"><ele>739.35</ele><time>2025-11-05T19:56:42.000Z</time></trkpt>
        <trkpt lat="29.5706075" lon="103.402768"><ele>738.51</ele><time>2025-11-05T19:56:54.000Z</time></trkpt>
        <trkpt lat="29.5707138" lon="103.4027593"><ele>737.78</ele><time>2025-11-05T19:57:04.000Z</time></trkpt>
        <trkpt lat="29.570812" lon="103.4027355"><ele>737.14</ele><time>2025-11-05T19:57:16.000Z</time></trkpt>
        <trkpt lat="29.5709034" lon="103.4027019"><ele>735.92</ele><time>2025-11-05T19:57:26.000Z</time></trkpt>
        <trkpt lat="29.5709913" lon="103.4026541"><ele>734.41</ele><time>2025-11-05T19:57:36.000Z</time></trkpt>
        <trkpt lat="29.5710697" lon="103.4025795"><ele>732.81</ele><time>2025-11-05T19:57:48.000Z</time></trkpt>
        <trkpt lat="29.5711226" lon="103.4024863"><ele>731.09</ele><time>2025-11-05T19:58:02.000Z</time></trkpt>
        <trkpt lat="29.571205" lon="103.40245"><ele>729.33</ele><time>2025-11-05T19:59:22.000Z</time></trkpt>
        <trkpt lat="29.5712583" lon="103.40235"><ele>728.28</ele><time>2025-11-05T19:59:32.000Z</time></trkpt>
        <trkpt lat="29.5713032" lon="103.4022571"><ele>727.39</ele><time>2025-11-05T19:59:40.000Z</time></trkpt>
        <trkpt lat="29.5713556" lon="103.4021589"><ele>726.66</ele><time>2025-11-05T19:59:50.000Z</time></trkpt>
        <trkpt lat="29.5714241" lon="103.4020893"><ele>726.2</ele><time>2025-11-05T19:59:56.000Z</time></trkpt>
        <trkpt lat="29.571497" lon="103.4020237"><ele>726.2</ele><time>2025-11-05T20:00:04.000Z</time></trkpt>
        <trkpt lat="29.5715656" lon="103.4019483"><ele>726.42</ele><time>2025-11-05T20:00:12.000Z</time></trkpt>
        <trkpt lat="29.5716532" lon="103.4019045"><ele>726.19</ele><time>2025-11-05T20:00:22.000Z</time></trkpt>
        <trkpt lat="29.571755" lon="103.4018998"><ele>726.41</ele><time>2025-11-05T20:00:34.000Z</time></trkpt>
        <trkpt lat="29.5718559" lon="103.4018864"><ele>726.88</ele><time>2025-11-05T20:00:44.000Z</time></trkpt>
        <trkpt lat="29.57194" lon="103.4018317"><ele>727.1</ele><time>2025-11-05T20:00:58.000Z</time></trkpt>
        <trkpt lat="29.5720073" lon="103.4017482"><ele>726.41</ele><time>2025-11-05T20:01:10.000Z</time></trkpt>
        <trkpt lat="29.5720778" lon="103.4016758"><ele>724.04</ele><time>2025-11-05T20:01:18.000Z</time></trkpt>
        <trkpt lat="29.572157" lon="103.4016126"><ele>722.05</ele><time>2025-11-05T20:01:24.000Z</time></trkpt>
        <trkpt lat="29.5722372" lon="103.4015595"><ele>720.78</ele><time>2025-11-05T20:01:32.000Z</time></trkpt>
        <trkpt lat="29.5722676" lon="103.4014538"><ele>720.79</ele><time>2025-11-05T20:01:44.000Z</time></trkpt>
        <trkpt lat="29.5722946" lon="103.4013469"><ele>720.79</ele><time>2025-11-05T20:01:58.000Z</time></trkpt>
        <trkpt lat="29.572348" lon="103.4012647"><ele>720.58</ele><time>2025-11-05T20:02:08.000Z</time></trkpt>
        <trkpt lat="29.5723801" lon="103.4011692"><ele>720.68</ele><time>2025-11-05T20:02:22.000Z</time></trkpt>
        <trkpt lat="29.57236" lon="103.4010694"><ele>721.33</ele><time>2025-11-05T20:02:36.000Z</time></trkpt>
        <trkpt lat="29.5723267" lon="103.4009647"><ele>722.44</ele><time>2025-11-05T20:02:50.000Z</time></trkpt>
        <trkpt lat="29.5722943" lon="103.4008612"><ele>723.84</ele><time>2025-11-05T20:03:06.000Z</time></trkpt>
        <trkpt lat="29.572251" lon="103.4007587"><ele>725.54</ele><time>2025-11-05T20:03:22.000Z</time></trkpt>
        <trkpt lat="29.57222" lon="103.4006554"><ele>727.5</ele><time>2025-11-05T20:03:40.000Z</time></trkpt>
        <trkpt lat="29.5722636" lon="103.400577"><ele>729.57</ele><time>2025-11-05T20:03:54.000Z</time></trkpt>
        <trkpt lat="29.5723571" lon="103.4005766"><ele>731</ele><time>2025-11-05T20:04:08.000Z</time></trkpt>
        <trkpt lat="29.5724509" lon="103.4006322"><ele>732.12</ele><time>2025-11-05T20:04:28.000Z</time></trkpt>
        <trkpt lat="29.5725411" lon="103.4006957"><ele>733.36</ele><time>2025-11-05T20:04:46.000Z</time></trkpt>
        <trkpt lat="29.5726325" lon="103.4007465"><ele>735.1</ele><time>2025-11-05T20:05:06.000Z</time></trkpt>
        <trkpt lat="29.5727243" lon="103.4007815"><ele>737.77</ele><time>2025-11-05T20:05:20.000Z</time></trkpt>
        <trkpt lat="29.5728193" lon="103.4007784"><ele>740.23</ele><time>2025-11-05T20:05:40.000Z</time></trkpt>
        <trkpt lat="29.5728688" lon="103.4007003"><ele>742.63</ele><time>2025-11-05T20:05:54.000Z</time></trkpt>
        <trkpt lat="29.5728312" lon="103.4006107"><ele>745.02</ele><time>2025-11-05T20:06:08.000Z</time></trkpt>
        <trkpt lat="29.5727627" lon="103.4005236"><ele>747.51</ele><time>2025-11-05T20:06:28.000Z</time></trkpt>
        <trkpt lat="29.5727616" lon="103.4003956"><ele>750.04</ele><time>2025-11-05T20:07:00.000Z</time></trkpt>
        <trkpt lat="29.5728326" lon="103.4003734"><ele>751.96</ele><time>2025-11-05T20:07:22.000Z</time></trkpt>
        <trkpt lat="29.5729275" lon="103.400403"><ele>753.53</ele><time>2025-11-05T20:07:40.000Z</time></trkpt>
        <trkpt lat="29.5730342" lon="103.4003935"><ele>754.81</ele><time>2025-11-05T20:07:56.000Z</time></trkpt>
        <trkpt lat="29.5731051" lon="103.4003259"><ele>755.96</ele><time>2025-11-05T20:08:12.000Z</time></trkpt>
        <trkpt lat="29.573094" lon="103.4002315"><ele>757.18</ele><time>2025-11-05T20:08:34.000Z</time></trkpt>
        <trkpt lat="29.5730559" lon="103.4001265"><ele>759.04</ele><time>2025-11-05T20:08:50.000Z</time></trkpt>
        <trkpt lat="29.5730254" lon="103.4000156"><ele>761.52</ele><time>2025-11-05T20:09:08.000Z</time></trkpt>
        <trkpt lat="29.5730329" lon="103.3999022"><ele>765.51</ele><time>2025-11-05T20:09:26.000Z</time></trkpt>
        <trkpt lat="29.5730724" lon="103.3997919"><ele>768.65</ele><time>2025-11-05T20:09:44.000Z</time></trkpt>
        <trkpt lat="29.5731285" lon="103.3996862"><ele>770.82</ele><time>2025-11-05T20:09:58.000Z</time></trkpt>
        <trkpt lat="29.5731722" lon="103.3995737"><ele>772.58</ele><time>2025-11-05T20:10:12.000Z</time></trkpt>
        <trkpt lat="29.5732253" lon="103.3994748"><ele>774.01</ele><time>2025-11-05T20:10:22.000Z</time></trkpt>
        <trkpt lat="29.573244" lon="103.3993739"><ele>775.25</ele><time>2025-11-05T20:10:30.000Z</time></trkpt>
        <trkpt lat="29.5732442" lon="103.399264"><ele>776.39</ele><time>2025-11-05T20:10:40.000Z</time></trkpt>
        <trkpt lat="29.5732091" lon="103.3991582"><ele>777.56</ele><time>2025-11-05T20:10:54.000Z</time></trkpt>
        <trkpt lat="29.5731667" lon="103.3990518"><ele>778.52</ele><time>2025-11-05T20:11:06.000Z</time></trkpt>
        <trkpt lat="29.5731132" lon="103.3989552"><ele>778.81</ele><time>2025-11-05T20:11:18.000Z</time></trkpt>
        <trkpt lat="29.5730914" lon="103.3988459"><ele>778.08</ele><time>2025-11-05T20:11:32.000Z</time></trkpt>
        <trkpt lat="29.5730866" lon="103.3987364"><ele>775.89</ele><time>2025-11-05T20:11:44.000Z</time></trkpt>
        <trkpt lat="29.5730971" lon="103.398621"><ele>773.23</ele><time>2025-11-05T20:11:56.000Z</time></trkpt>
        <trkpt lat="29.5730843" lon="103.3985112"><ele>770.59</ele><time>2025-11-05T20:12:06.000Z</time></trkpt>
        <trkpt lat="29.5730602" lon="103.398409"><ele>768.27</ele><time>2025-11-05T20:12:16.000Z</time></trkpt>
        <trkpt lat="29.5730035" lon="103.3983219"><ele>766.26</ele><time>2025-11-05T20:12:28.000Z</time></trkpt>
        <trkpt lat="29.5729346" lon="103.3982474"><ele>764.04</ele><time>2025-11-05T20:12:38.000Z</time></trkpt>
        <trkpt lat="29.5728521" lon="103.3981752"><ele>762.3</ele><time>2025-11-05T20:12:48.000Z</time></trkpt>
        <trkpt lat="29.5727916" lon="103.3980826"><ele>761.36</ele><time>2025-11-05T20:12:58.000Z</time></trkpt>
        <trkpt lat="29.5727183" lon="103.3980092"><ele>760.47</ele><time>2025-11-05T20:13:06.000Z</time></trkpt>
        <trkpt lat="29.5726326" lon="103.3979448"><ele>760.01</ele><time>2025-11-05T20:13:14.000Z</time></trkpt>
        <trkpt lat="29.5725403" lon="103.3979018"><ele>759.88</ele><time>2025-11-05T20:13:24.000Z</time></trkpt>
        <trkpt lat="29.5724391" lon="103.3978984"><ele>761.05</ele><time>2025-11-05T20:13:34.000Z</time></trkpt>
        <trkpt lat="29.5723468" lon="103.3978739"><ele>762.49</ele><time>2025-11-05T20:13:44.000Z</time></trkpt>
        <trkpt lat="29.5722637" lon="103.3978124"><ele>763.44</ele><time>2025-11-05T20:13:54.000Z</time></trkpt>
        <trkpt lat="29.5721802" lon="103.3977596"><ele>763.68</ele><time>2025-11-05T20:14:04.000Z</time></trkpt>
        <trkpt lat="29.5721136" lon="103.3976815"><ele>763.52</ele><time>2025-11-05T20:14:16.000Z</time></trkpt>
        <trkpt lat="29.5720342" lon="103.3976186"><ele>762.35</ele><time>2025-11-05T20:14:28.000Z</time></trkpt>
        <trkpt lat="29.5719691" lon="103.3975302"><ele>760.22</ele><time>2025-11-05T20:14:48.000Z</time></trkpt>
        <trkpt lat="29.5719444" lon="103.3974276"><ele>757.85</ele><time>2025-11-05T20:15:00.000Z</time></trkpt>
        <trkpt lat="29.5719362" lon="103.3973212"><ele>755.98</ele><time>2025-11-05T20:15:12.000Z</time></trkpt>
        <trkpt lat="29.5719666" lon="103.3972174"><ele>754.09</ele><time>2025-11-05T20:15:26.000Z</time></trkpt>
        <trkpt lat="29.5719737" lon="103.3971081"><ele>752.16</ele><time>2025-11-05T20:15:38.000Z</time></trkpt>
        <trkpt lat="29.5720128" lon="103.3969972"><ele>750.11</ele><time>2025-11-05T20:15:56.000Z</time></trkpt>
        <trkpt lat="29.5720957" lon="103.3969826"><ele>747.23</ele><time>2025-11-05T20:16:06.000Z</time></trkpt>
        <trkpt lat="29.57216" lon="103.39707"><ele>744.59</ele><time>2025-11-05T20:16:18.000Z</time></trkpt>
        <trkpt lat="29.5722178" lon="103.397182"><ele>741.97</ele><time>2025-11-05T20:16:30.000Z</time></trkpt>
        <trkpt lat="29.5722812" lon="103.3972796"><ele>739.66</ele><time>2025-11-05T20:16:42.000Z</time></trkpt>
        <trkpt lat="29.5723441" lon="103.3973664"><ele>737.57</ele><time>2025-11-05T20:16:56.000Z</time></trkpt>
        <trkpt lat="29.5724327" lon="103.3973729"><ele>734.96</ele><time>2025-11-05T20:17:18.000Z</time></trkpt>
        <trkpt lat="29.5724729" lon="103.397287"><ele>731.75</ele><time>2025-11-05T20:17:34.000Z</time></trkpt>
        <trkpt lat="29.5725165" lon="103.3971751"><ele>728.98</ele><time>2025-11-05T20:17:46.000Z</time></trkpt>
        <trkpt lat="29.5725569" lon="103.3970597"><ele>726.88</ele><time>2025-11-05T20:17:58.000Z</time></trkpt>
        <trkpt lat="29.5726058" lon="103.396962"><ele>725.38</ele><time>2025-11-05T20:18:12.000Z</time></trkpt>
        <trkpt lat="29.5726683" lon="103.3970141"><ele>723.71</ele><time>2025-11-05T20:18:26.000Z</time></trkpt>
        <trkpt lat="29.5726756" lon="103.3971365"><ele>721.73</ele><time>2025-11-05T20:18:34.000Z</time></trkpt>
        <trkpt lat="29.572692" lon="103.3972667"><ele>720.43</ele><time>2025-11-05T20:18:44.000Z</time></trkpt>
        <trkpt lat="29.5727255" lon="103.3973929"><ele>719.3</ele><time>2025-11-05T20:18:56.000Z</time></trkpt>
        <trkpt lat="29.5728087" lon="103.3974279"><ele>717.75</ele><time>2025-11-05T20:19:10.000Z</time></trkpt>
        <trkpt lat="29.572877" lon="103.3973484"><ele>715.62</ele><time>2025-11-05T20:19:22.000Z</time></trkpt>
        <trkpt lat="29.5729307" lon="103.3972271"><ele>713.37</ele><time>2025-11-05T20:19:34.000Z</time></trkpt>
        <trkpt lat="29.5729695" lon="103.3971038"><ele>711.36</ele><time>2025-11-05T20:19:44.000Z</time></trkpt>
        <trkpt lat="29.5730208" lon="103.397004"><ele>709.1</ele><time>2025-11-05T20:19:52.000Z</time></trkpt>
        <trkpt lat="29.5730677" lon="103.3968988"><ele>707.68</ele><time>2025-11-05T20:20:04.000Z</time></trkpt>
        <trkpt lat="29.5731241" lon="103.3968113"><ele>706.61</ele><time>2025-11-05T20:20:12.000Z</time></trkpt>
        <trkpt lat="29.5731728" lon="103.3967119"><ele>706.18</ele><time>2025-11-05T20:20:22.000Z</time></trkpt>
        <trkpt lat="29.573182" lon="103.3965976"><ele>705.63</ele><time>2025-11-05T20:20:32.000Z</time></trkpt>
        <trkpt lat="29.5731832" lon="103.3964794"><ele>705.19</ele><time>2025-11-05T20:20:44.000Z</time></trkpt>
        <trkpt lat="29.5731851" lon="103.3963671"><ele>704.55</ele><time>2025-11-05T20:20:54.000Z</time></trkpt>
        <trkpt lat="29.57321" lon="103.3962564"><ele>703.71</ele><time>2025-11-05T20:21:10.000Z</time></trkpt>
        <trkpt lat="29.573305" lon="103.396205"><ele>702.24</ele><time>2025-11-05T20:22:20.000Z</time></trkpt>
        <trkpt lat="29.57333" lon="103.3960917"><ele>701.41</ele><time>2025-11-05T20:23:22.000Z</time></trkpt>
        <trkpt lat="29.57336" lon="103.3959833"><ele>699.12</ele><time>2025-11-05T20:23:32.000Z</time></trkpt>
        <trkpt lat="29.5733209" lon="103.3958849"><ele>698.6</ele><time>2025-11-05T20:24:20.000Z</time></trkpt>
        <trkpt lat="29.573321" lon="103.3957714"><ele>700.66</ele><time>2025-11-05T20:24:30.000Z</time></trkpt>
        <trkpt lat="29.5733393" lon="103.3956621"><ele>702.1</ele><time>2025-11-05T20:24:38.000Z</time></trkpt>
        <trkpt lat="29.5733314" lon="103.3955472"><ele>703.05</ele><time>2025-11-05T20:24:48.000Z</time></trkpt>
        <trkpt lat="29.5733253" lon="103.3954364"><ele>702.98</ele><time>2025-11-05T20:24:56.000Z</time></trkpt>
        <trkpt lat="29.5733155" lon="103.3953276"><ele>702.17</ele><time>2025-11-05T20:25:06.000Z</time></trkpt>
        <trkpt lat="29.5733073" lon="103.3952194"><ele>700.64</ele><time>2025-11-05T20:25:16.000Z</time></trkpt>
        <trkpt lat="29.5733639" lon="103.3952365"><ele>698.6</ele><time>2025-11-05T20:25:34.000Z</time></trkpt>
        <trkpt lat="29.5733954" lon="103.3953432"><ele>695.98</ele><time>2025-11-05T20:25:42.000Z</time></trkpt>
        <trkpt lat="29.5734256" lon="103.3954631"><ele>694.39</ele><time>2025-11-05T20:25:52.000Z</time></trkpt>
        <trkpt lat="29.5735048" lon="103.3955493"><ele>693.19</ele><time>2025-11-05T20:26:02.000Z</time></trkpt>
        <trkpt lat="29.5735781" lon="103.3955051"><ele>692.77</ele><time>2025-11-05T20:26:12.000Z</time></trkpt>
        <trkpt lat="29.57361" lon="103.3953998"><ele>691.88</ele><time>2025-11-05T20:26:22.000Z</time></trkpt>
        <trkpt lat="29.5736219" lon="103.3952764"><ele>691.03</ele><time>2025-11-05T20:26:34.000Z</time></trkpt>
        <trkpt lat="29.5736608" lon="103.3951581"><ele>690.11</ele><time>2025-11-05T20:26:46.000Z</time></trkpt>
        <trkpt lat="29.5736738" lon="103.3950315"><ele>688.82</ele><time>2025-11-05T20:27:00.000Z</time></trkpt>
        <trkpt lat="29.5736733" lon="103.3949176"><ele>687.09</ele><time>2025-11-05T20:27:08.000Z</time></trkpt>
        <trkpt lat="29.5736214" lon="103.3948314"><ele>685.46</ele><time>2025-11-05T20:27:22.000Z</time></trkpt>
        <trkpt lat="29.5735834" lon="103.3947291"><ele>682.34</ele><time>2025-11-05T20:27:40.000Z</time></trkpt>
        <trkpt lat="29.5735666" lon="103.3946207"><ele>678.06</ele><time>2025-11-05T20:27:50.000Z</time></trkpt>
        <trkpt lat="29.5735373" lon="103.394514"><ele>675.11</ele><time>2025-11-05T20:28:02.000Z</time></trkpt>
        <trkpt lat="29.5735017" lon="103.3944109"><ele>672.65</ele><time>2025-11-05T20:28:12.000Z</time></trkpt>
        <trkpt lat="29.573449" lon="103.3943104"><ele>670.78</ele><time>2025-11-05T20:28:22.000Z</time></trkpt>
        <trkpt lat="29.5734259" lon="103.3942057"><ele>670.1</ele><time>2025-11-05T20:28:32.000Z</time></trkpt>
        <trkpt lat="29.5734109" lon="103.3940993"><ele>669.28</ele><time>2025-11-05T20:28:42.000Z</time></trkpt>
        <trkpt lat="29.5734154" lon="103.3939823"><ele>668.86</ele><time>2025-11-05T20:29:00.000Z</time></trkpt>
        <trkpt lat="29.5734112" lon="103.3938742"><ele>669.44</ele><time>2025-11-05T20:29:14.000Z</time></trkpt>
        <trkpt lat="29.5734472" lon="103.3937587"><ele>670.71</ele><time>2025-11-05T20:29:26.000Z</time></trkpt>
        <trkpt lat="29.5734951" lon="103.3936566"><ele>671.61</ele><time>2025-11-05T20:29:32.000Z</time></trkpt>
        <trkpt lat="29.5735561" lon="103.3935723"><ele>672.25</ele><time>2025-11-05T20:29:50.000Z</time></trkpt>
        <trkpt lat="29.5736289" lon="103.393504"><ele>673.43</ele><time>2025-11-05T20:30:08.000Z</time></trkpt>
        <trkpt lat="29.5737204" lon="103.3934465"><ele>675.57</ele><time>2025-11-05T20:30:20.000Z</time></trkpt>
        <trkpt lat="29.5738235" lon="103.3934039"><ele>677.35</ele><time>2025-11-05T20:30:30.000Z</time></trkpt>
        <trkpt lat="29.573914" lon="103.3933252"><ele>677.63</ele><time>2025-11-05T20:30:40.000Z</time></trkpt>
        <trkpt lat="29.5739844" lon="103.3932406"><ele>678.26</ele><time>2025-11-05T20:30:52.000Z</time></trkpt>
        <trkpt lat="29.5740223" lon="103.3931274"><ele>679.61</ele><time>2025-11-05T20:31:22.000Z</time></trkpt>
        <trkpt lat="29.5740581" lon="103.393001"><ele>679.78</ele><time>2025-11-05T20:31:48.000Z</time></trkpt>
        <trkpt lat="29.5740955" lon="103.392893"><ele>677.9</ele><time>2025-11-05T20:32:04.000Z</time></trkpt>
        <trkpt lat="29.5741385" lon="103.3927899"><ele>676.74</ele><time>2025-11-05T20:32:22.000Z</time></trkpt>
        <trkpt lat="29.5741303" lon="103.3926835"><ele>675.17</ele><time>2025-11-05T20:32:38.000Z</time></trkpt>
        <trkpt lat="29.5741223" lon="103.3925768"><ele>673.38</ele><time>2025-11-05T20:32:58.000Z</time></trkpt>
        <trkpt lat="29.5740671" lon="103.3924977"><ele>671.11</ele><time>2025-11-05T20:33:34.000Z</time></trkpt>
        <trkpt lat="29.5741275" lon="103.3924824"><ele>667.71</ele><time>2025-11-05T20:33:54.000Z</time></trkpt>
        <trkpt lat="29.5741685" lon="103.3924001"><ele>665.04</ele><time>2025-11-05T20:34:28.000Z</time></trkpt>
        <trkpt lat="29.5742142" lon="103.3923015"><ele>660.55</ele><time>2025-11-05T20:34:54.000Z</time></trkpt>
        <trkpt lat="29.5742301" lon="103.3921946"><ele>654.12</ele><time>2025-11-05T20:35:02.000Z</time></trkpt>
        <trkpt lat="29.5742166" lon="103.3921928"><ele>649.59</ele><time>2025-11-05T20:35:08.000Z</time></trkpt>
        <trkpt lat="29.5741748" lon="103.3921342"><ele>646.2</ele><time>2025-11-05T20:35:18.000Z</time></trkpt>
        <trkpt lat="29.574101" lon="103.3920774"><ele>645.17</ele><time>2025-11-05T20:36:18.000Z</time></trkpt>
        <trkpt lat="29.5740057" lon="103.3920342"><ele>648.11</ele><time>2025-11-05T20:36:40.000Z</time></trkpt>
        <trkpt lat="29.573907" lon="103.3920387"><ele>650.73</ele><time>2025-11-05T20:37:02.000Z</time></trkpt>
        <trkpt lat="29.5738074" lon="103.39207"><ele>652.82</ele><time>2025-11-05T20:37:22.000Z</time></trkpt>
        <trkpt lat="29.5737143" lon="103.3920604"><ele>653.72</ele><time>2025-11-05T20:37:40.000Z</time></trkpt>
        <trkpt lat="29.5736332" lon="103.3920016"><ele>654.14</ele><time>2025-11-05T20:37:50.000Z</time></trkpt>
        <trkpt lat="29.5735942" lon="103.3918992"><ele>653.99</ele><time>2025-11-05T20:38:02.000Z</time></trkpt>
        <trkpt lat="29.5735425" lon="103.391785"><ele>654.3</ele><time>2025-11-05T20:38:22.000Z</time></trkpt>
        <trkpt lat="29.573486" lon="103.3916806"><ele>654.73</ele><time>2025-11-05T20:38:58.000Z</time></trkpt>
        <trkpt lat="29.5733946" lon="103.3916364"><ele>654.93</ele><time>2025-11-05T20:39:18.000Z</time></trkpt>
        <trkpt lat="29.5733002" lon="103.3916502"><ele>654.66</ele><time>2025-11-05T20:39:28.000Z</time></trkpt>
        <trkpt lat="29.573198" lon="103.3916836"><ele>654.76</ele><time>2025-11-05T20:39:44.000Z</time></trkpt>
        <trkpt lat="29.5730977" lon="103.3916969"><ele>655.34</ele><time>2025-11-05T20:40:04.000Z</time></trkpt>
        <trkpt lat="29.5730029" lon="103.3917357"><ele>656.61</ele><time>2025-11-05T20:40:16.000Z</time></trkpt>
        <trkpt lat="29.5729106" lon="103.3917843"><ele>657.42</ele><time>2025-11-05T20:40:30.000Z</time></trkpt>
        <trkpt lat="29.5728267" lon="103.3918534"><ele>659.13</ele><time>2025-11-05T20:40:38.000Z</time></trkpt>
        <trkpt lat="29.5727281" lon="103.3918697"><ele>659.33</ele><time>2025-11-05T20:40:52.000Z</time></trkpt>
        <trkpt lat="29.5726574" lon="103.3918096"><ele>659.49</ele><time>2025-11-05T20:41:04.000Z</time></trkpt>
        <trkpt lat="29.5725686" lon="103.39182"><ele>659.62</ele><time>2025-11-05T20:41:24.000Z</time></trkpt>
        <trkpt lat="29.5724707" lon="103.3918149"><ele>660.43</ele><time>2025-11-05T20:41:38.000Z</time></trkpt>
        <trkpt lat="29.5723974" lon="103.3917542"><ele>661.79</ele><time>2025-11-05T20:41:54.000Z</time></trkpt>
        <trkpt lat="29.5723136" lon="103.3917086"><ele>663.26</ele><time>2025-11-05T20:42:04.000Z</time></trkpt>
        <trkpt lat="29.5722125" lon="103.3916916"><ele>664.7</ele><time>2025-11-05T20:42:16.000Z</time></trkpt>
        <trkpt lat="29.5721152" lon="103.3916597"><ele>666.5</ele><time>2025-11-05T20:42:24.000Z</time></trkpt>
        <trkpt lat="29.5720127" lon="103.3916237"><ele>668.35</ele><time>2025-11-05T20:42:40.000Z</time></trkpt>
        <trkpt lat="29.5719036" lon="103.3916028"><ele>669.92</ele><time>2025-11-05T20:42:50.000Z</time></trkpt>
        <trkpt lat="29.5718114" lon="103.3916428"><ele>670.73</ele><time>2025-11-05T20:43:02.000Z</time></trkpt>
        <trkpt lat="29.5717208" lon="103.3916192"><ele>670.24</ele><time>2025-11-05T20:43:16.000Z</time></trkpt>
        <trkpt lat="29.5716278" lon="103.3916402"><ele>669.49</ele><time>2025-11-05T20:43:28.000Z</time></trkpt>
        <trkpt lat="29.5715322" lon="103.3916376"><ele>667.95</ele><time>2025-11-05T20:43:36.000Z</time></trkpt>
        <trkpt lat="29.5714356" lon="103.3916598"><ele>665.65</ele><time>2025-11-05T20:43:48.000Z</time></trkpt>
        <trkpt lat="29.571325" lon="103.391664"><ele>663.35</ele><time>2025-11-05T20:43:58.000Z</time></trkpt>
        <trkpt lat="29.5712231" lon="103.3916655"><ele>661.05</ele><time>2025-11-05T20:44:06.000Z</time></trkpt>
        <trkpt lat="29.5711302" lon="103.3916676"><ele>659.39</ele><time>2025-11-05T20:44:20.000Z</time></trkpt>
        <trkpt lat="29.5710381" lon="103.3916678"><ele>658.66</ele><time>2025-11-05T20:44:34.000Z</time></trkpt>
        <trkpt lat="29.5709357" lon="103.3916637"><ele>659.84</ele><time>2025-11-05T20:44:48.000Z</time></trkpt>
        <trkpt lat="29.5708556" lon="103.3915918"><ele>661.2</ele><time>2025-11-05T20:44:58.000Z</time></trkpt>
        <trkpt lat="29.5707677" lon="103.3915344"><ele>662.66</ele><time>2025-11-05T20:45:30.000Z</time></trkpt>
        <trkpt lat="29.5706822" lon="103.3914635"><ele>663.28</ele><time>2025-11-05T20:46:04.000Z</time></trkpt>
        <trkpt lat="29.570595" lon="103.3914166"><ele>664.28</ele><time>2025-11-05T20:46:24.000Z</time></trkpt>
        <trkpt lat="29.5705658" lon="103.3913047"><ele>666.05</ele><time>2025-11-05T20:46:52.000Z</time></trkpt>
        <trkpt lat="29.5704964" lon="103.3912574"><ele>668.14</ele><time>2025-11-05T20:47:08.000Z</time></trkpt>
        <trkpt lat="29.570408" lon="103.391247"><ele>668.85</ele><time>2025-11-05T20:47:22.000Z</time></trkpt>
        <trkpt lat="29.5703418" lon="103.3911856"><ele>669.52</ele><time>2025-11-05T20:47:36.000Z</time></trkpt>
        <trkpt lat="29.570299" lon="103.3910952"><ele>670.5</ele><time>2025-11-05T20:47:56.000Z</time></trkpt>
        <trkpt lat="29.570224" lon="103.3910942"><ele>672.01</ele><time>2025-11-05T20:48:20.000Z</time></trkpt>
        <trkpt lat="29.570152" lon="103.3910468"><ele>673.08</ele><time>2025-11-05T20:48:38.000Z</time></trkpt>
        <trkpt lat="29.5700558" lon="103.3909574"><ele>674.29</ele><time>2025-11-05T20:49:24.000Z</time></trkpt>
        <trkpt lat="29.5699572" lon="103.3909184"><ele>676.62</ele><time>2025-11-05T20:49:36.000Z</time></trkpt>
        <trkpt lat="29.5698619" lon="103.3909028"><ele>678.98</ele><time>2025-11-05T20:49:50.000Z</time></trkpt>
        <trkpt lat="29.5697649" lon="103.3908957"><ele>680.19</ele><time>2025-11-05T20:50:06.000Z</time></trkpt>
        <trkpt lat="29.5696676" lon="103.3908947"><ele>679.81</ele><time>2025-11-05T20:50:20.000Z</time></trkpt>
        <trkpt lat="29.5695629" lon="103.3909082"><ele>678.94</ele><time>2025-11-05T20:50:42.000Z</time></trkpt>
        <trkpt lat="29.5694682" lon="103.3909246"><ele>678.06</ele><time>2025-11-05T20:51:00.000Z</time></trkpt>
        <trkpt lat="29.5693739" lon="103.3909155"><ele>676.88</ele><time>2025-11-05T20:51:12.000Z</time></trkpt>
        <trkpt lat="29.5692895" lon="103.39085"><ele>675.85</ele><time>2025-11-05T20:51:32.000Z</time></trkpt>
        <trkpt lat="29.5691922" lon="103.3908348"><ele>674.45</ele><time>2025-11-05T20:51:42.000Z</time></trkpt>
        <trkpt lat="29.5691071" lon="103.3908792"><ele>673.79</ele><time>2025-11-05T20:51:52.000Z</time></trkpt>
        <trkpt lat="29.5690169" lon="103.3908932"><ele>673.19</ele><time>2025-11-05T20:52:00.000Z</time></trkpt>
        <trkpt lat="29.5689618" lon="103.3909874"><ele>672.72</ele><time>2025-11-05T20:52:14.000Z</time></trkpt>
        <trkpt lat="29.5689396" lon="103.391102"><ele>672.28</ele><time>2025-11-05T20:52:28.000Z</time></trkpt>
        <trkpt lat="29.5688863" lon="103.3911868"><ele>671.13</ele><time>2025-11-05T20:52:36.000Z</time></trkpt>
        <trkpt lat="29.5687974" lon="103.3912172"><ele>669.87</ele><time>2025-11-05T20:52:50.000Z</time></trkpt>
        <trkpt lat="29.5687008" lon="103.3911987"><ele>669.45</ele><time>2025-11-05T20:53:02.000Z</time></trkpt>
        <trkpt lat="29.5686924" lon="103.3911087"><ele>670.25</ele><time>2025-11-05T20:53:10.000Z</time></trkpt>
        <trkpt lat="29.5686775" lon="103.3909556"><ele>670.74</ele><time>2025-11-05T20:53:36.000Z</time></trkpt>
        <trkpt lat="29.5686251" lon="103.3908168"><ele>667.58</ele><time>2025-11-05T20:53:42.000Z</time></trkpt>
        <trkpt lat="29.5685433" lon="103.3907488"><ele>665.35</ele><time>2025-11-05T20:53:46.000Z</time></trkpt>
        <trkpt lat="29.5684594" lon="103.390697"><ele>664.6</ele><time>2025-11-05T20:53:58.000Z</time></trkpt>
        <trkpt lat="29.568372" lon="103.3907175"><ele>663.18</ele><time>2025-11-05T20:54:24.000Z</time></trkpt>
        <trkpt lat="29.5683834" lon="103.3908061"><ele>663.92</ele><time>2025-11-05T20:54:38.000Z</time></trkpt>
        <trkpt lat="29.5683267" lon="103.3908581"><ele>665.03</ele><time>2025-11-05T20:55:22.000Z</time></trkpt>
        <trkpt lat="29.5682363" lon="103.3909029"><ele>667.9</ele><time>2025-11-05T20:55:46.000Z</time></trkpt>
        <trkpt lat="29.5681373" lon="103.3909248"><ele>672.46</ele><time>2025-11-05T20:56:12.000Z</time></trkpt>
        <trkpt lat="29.5680476" lon="103.3908854"><ele>677.51</ele><time>2025-11-05T20:56:46.000Z</time></trkpt>
        <trkpt lat="29.5679555" lon="103.3908547"><ele>680.43</ele><time>2025-11-05T20:57:00.000Z</time></trkpt>
        <trkpt lat="29.5678604" lon="103.3908537"><ele>681.58</ele><time>2025-11-05T20:57:10.000Z</time></trkpt>
        <trkpt lat="29.5677822" lon="103.3907912"><ele>681.63</ele><time>2025-11-05T20:57:26.000Z</time></trkpt>
        <trkpt lat="29.5676942" lon="103.3907543"><ele>681.36</ele><time>2025-11-05T20:57:34.000Z</time></trkpt>
        <trkpt lat="29.5676082" lon="103.3907135"><ele>680.73</ele><time>2025-11-05T20:57:46.000Z</time></trkpt>
        <trkpt lat="29.5675555" lon="103.3906338"><ele>680.07</ele><time>2025-11-05T20:57:54.000Z</time></trkpt>
        <trkpt lat="29.56751" lon="103.3905378"><ele>679.83</ele><time>2025-11-05T20:58:08.000Z</time></trkpt>
        <trkpt lat="29.5674979" lon="103.3904167"><ele>679.47</ele><time>2025-11-05T20:58:16.000Z</time></trkpt>
        <trkpt lat="29.5674615" lon="103.3902924"><ele>680.43</ele><time>2025-11-05T20:58:26.000Z</time></trkpt>
        <trkpt lat="29.5673761" lon="103.3902696"><ele>681.36</ele><time>2025-11-05T20:58:36.000Z</time></trkpt>
        <trkpt lat="29.5672741" lon="103.3902916"><ele>681.9</ele><time>2025-11-05T20:58:48.000Z</time></trkpt>
        <trkpt lat="29.5671799" lon="103.3902801"><ele>681.08</ele><time>2025-11-05T20:59:00.000Z</time></trkpt>
        <trkpt lat="29.5670834" lon="103.390269"><ele>679.24</ele><time>2025-11-05T20:59:10.000Z</time></trkpt>
        <trkpt lat="29.566988" lon="103.3902496"><ele>678.1</ele><time>2025-11-05T20:59:22.000Z</time></trkpt>
        <trkpt lat="29.5668962" lon="103.3902181"><ele>676.85</ele><time>2025-11-05T20:59:40.000Z</time></trkpt>
        <trkpt lat="29.5668322" lon="103.3901359"><ele>675.33</ele><time>2025-11-05T20:59:54.000Z</time></trkpt>
        <trkpt lat="29.5667783" lon="103.3900411"><ele>674.02</ele><time>2025-11-05T21:00:06.000Z</time></trkpt>
        <trkpt lat="29.5667153" lon="103.3899573"><ele>673.28</ele><time>2025-11-05T21:00:20.000Z</time></trkpt>
        <trkpt lat="29.5666425" lon="103.3898787"><ele>673.46</ele><time>2025-11-05T21:00:36.000Z</time></trkpt>
        <trkpt lat="29.5665509" lon="103.3898503"><ele>673.44</ele><time>2025-11-05T21:00:52.000Z</time></trkpt>
        <trkpt lat="29.5664578" lon="103.3898365"><ele>673.59</ele><time>2025-11-05T21:01:04.000Z</time></trkpt>
        <trkpt lat="29.5663567" lon="103.389824"><ele>674.15</ele><time>2025-11-05T21:01:14.000Z</time></trkpt>
        <trkpt lat="29.566281" lon="103.389761"><ele>674.99</ele><time>2025-11-05T21:01:26.000Z</time></trkpt>
        <trkpt lat="29.5661965" lon="103.3897396"><ele>676.89</ele><time>2025-11-05T21:01:40.000Z</time></trkpt>
        <trkpt lat="29.5661217" lon="103.3896717"><ele>679.35</ele><time>2025-11-05T21:01:50.000Z</time></trkpt>
        <trkpt lat="29.5660279" lon="103.3896594"><ele>681.39</ele><time>2025-11-05T21:02:02.000Z</time></trkpt>
        <trkpt lat="29.5659428" lon="103.3896983"><ele>683.8</ele><time>2025-11-05T21:02:12.000Z</time></trkpt>
        <trkpt lat="29.5658467" lon="103.3897337"><ele>685.69</ele><time>2025-11-05T21:02:26.000Z</time></trkpt>
        <trkpt lat="29.5657503" lon="103.389739"><ele>687.5</ele><time>2025-11-05T21:02:40.000Z</time></trkpt>
        <trkpt lat="29.5656617" lon="103.3896963"><ele>689.09</ele><time>2025-11-05T21:03:04.000Z</time></trkpt>
        <trkpt lat="29.5655877" lon="103.389608"><ele>690.86</ele><time>2025-11-05T21:03:36.000Z</time></trkpt>
        <trkpt lat="29.5655074" lon="103.389536"><ele>693.03</ele><time>2025-11-05T21:03:50.000Z</time></trkpt>
        <trkpt lat="29.5654189" lon="103.3894866"><ele>694.82</ele><time>2025-11-05T21:04:06.000Z</time></trkpt>
        <trkpt lat="29.5653448" lon="103.3894229"><ele>696.49</ele><time>2025-11-05T21:04:16.000Z</time></trkpt>
        <trkpt lat="29.5652525" lon="103.3894098"><ele>697.87</ele><time>2025-11-05T21:04:26.000Z</time></trkpt>
        <trkpt lat="29.5651704" lon="103.3893643"><ele>699.04</ele><time>2025-11-05T21:04:46.000Z</time></trkpt>
        <trkpt lat="29.5651254" lon="103.3892732"><ele>699.28</ele><time>2025-11-05T21:04:54.000Z</time></trkpt>
        <trkpt lat="29.5650875" lon="103.3892071"><ele>699.42</ele><time>2025-11-05T21:05:08.000Z</time></trkpt>
        <trkpt lat="29.5650425" lon="103.3891066"><ele>698.68</ele><time>2025-11-05T21:05:24.000Z</time></trkpt>
        <trkpt lat="29.5649721" lon="103.3890012"><ele>693.4</ele><time>2025-11-05T21:05:38.000Z</time></trkpt>
        <trkpt lat="29.5648769" lon="103.3889484"><ele>691.89</ele><time>2025-11-05T21:05:46.000Z</time></trkpt>
        <trkpt lat="29.5647852" lon="103.3889086"><ele>691.85</ele><time>2025-11-05T21:06:20.000Z</time></trkpt>
        <trkpt lat="29.5646942" lon="103.388919"><ele>693.94</ele><time>2025-11-05T21:06:44.000Z</time></trkpt>
        <trkpt lat="29.5646093" lon="103.3888945"><ele>695.17</ele><time>2025-11-05T21:06:56.000Z</time></trkpt>
        <trkpt lat="29.5645171" lon="103.3888561"><ele>696.52</ele><time>2025-11-05T21:07:08.000Z</time></trkpt>
        <trkpt lat="29.5644258" lon="103.3888287"><ele>697.54</ele><time>2025-11-05T21:07:18.000Z</time></trkpt>
        <trkpt lat="29.5643239" lon="103.3888136"><ele>698.38</ele><time>2025-11-05T21:07:36.000Z</time></trkpt>
        <trkpt lat="29.5642221" lon="103.388804"><ele>700.15</ele><time>2025-11-05T21:07:54.000Z</time></trkpt>
        <trkpt lat="29.5641221" lon="103.3888482"><ele>703.1</ele><time>2025-11-05T21:08:26.000Z</time></trkpt>
        <trkpt lat="29.5640207" lon="103.3888788"><ele>706.28</ele><time>2025-11-05T21:08:50.000Z</time></trkpt>
        <trkpt lat="29.5639276" lon="103.3889099"><ele>707.15</ele><time>2025-11-05T21:09:22.000Z</time></trkpt>
        <trkpt lat="29.5638365" lon="103.3889314"><ele>708.03</ele><time>2025-11-05T21:09:36.000Z</time></trkpt>
        <trkpt lat="29.5637368" lon="103.3889099"><ele>709.7</ele><time>2025-11-05T21:09:46.000Z</time></trkpt>
        <trkpt lat="29.5636463" lon="103.3888555"><ele>710.73</ele><time>2025-11-05T21:10:04.000Z</time></trkpt>
        <trkpt lat="29.5635569" lon="103.3888203"><ele>712.27</ele><time>2025-11-05T21:10:18.000Z</time></trkpt>
        <trkpt lat="29.5634563" lon="103.3888278"><ele>713.92</ele><time>2025-11-05T21:10:42.000Z</time></trkpt>
        <trkpt lat="29.5633588" lon="103.3888477"><ele>716.1</ele><time>2025-11-05T21:11:02.000Z</time></trkpt>
        <trkpt lat="29.5632593" lon="103.3888539"><ele>717.82</ele><time>2025-11-05T21:11:18.000Z</time></trkpt>
        <trkpt lat="29.5631628" lon="103.3888821"><ele>719.58</ele><time>2025-11-05T21:11:30.000Z</time></trkpt>
        <trkpt lat="29.5630777" lon="103.3889483"><ele>720.96</ele><time>2025-11-05T21:11:42.000Z</time></trkpt>
        <trkpt lat="29.5630066" lon="103.389037"><ele>721.19</ele><time>2025-11-05T21:12:06.000Z</time></trkpt>
        <trkpt lat="29.5629111" lon="103.3890786"><ele>721.2</ele><time>2025-11-05T21:12:18.000Z</time></trkpt>
        <trkpt lat="29.5628169" lon="103.3890852"><ele>721.54</ele><time>2025-11-05T21:12:30.000Z</time></trkpt>
        <trkpt lat="29.5627215" lon="103.3890928"><ele>722.73</ele><time>2025-11-05T21:12:44.000Z</time></trkpt>
        <trkpt lat="29.5626283" lon="103.3890769"><ele>724.26</ele><time>2025-11-05T21:12:58.000Z</time></trkpt>
        <trkpt lat="29.5625388" lon="103.3890838"><ele>725.53</ele><time>2025-11-05T21:13:20.000Z</time></trkpt>
        <trkpt lat="29.5624581" lon="103.3890433"><ele>727.15</ele><time>2025-11-05T21:13:38.000Z</time></trkpt>
        <trkpt lat="29.5623717" lon="103.3890242"><ele>728.72</ele><time>2025-11-05T21:13:52.000Z</time></trkpt>
        <trkpt lat="29.5622801" lon="103.3890004"><ele>730.39</ele><time>2025-11-05T21:14:04.000Z</time></trkpt>
        <trkpt lat="29.562189" lon="103.3890012"><ele>732.03</ele><time>2025-11-05T21:14:14.000Z</time></trkpt>
        <trkpt lat="29.5621098" lon="103.389054"><ele>733.44</ele><time>2025-11-05T21:14:32.000Z</time></trkpt>
        <trkpt lat="29.5620287" lon="103.3891096"><ele>734.88</ele><time>2025-11-05T21:14:42.000Z</time></trkpt>
        <trkpt lat="29.5619865" lon="103.3892041"><ele>735.66</ele><time>2025-11-05T21:15:00.000Z</time></trkpt>
        <trkpt lat="29.5620559" lon="103.3892757"><ele>735.25</ele><time>2025-11-05T21:15:18.000Z</time></trkpt>
        <trkpt lat="29.5621112" lon="103.3893808"><ele>734.15</ele><time>2025-11-05T21:15:26.000Z</time></trkpt>
        <trkpt lat="29.5621041" lon="103.389484"><ele>733.48</ele><time>2025-11-05T21:15:36.000Z</time></trkpt>
        <trkpt lat="29.5620271" lon="103.3895243"><ele>733.41</ele><time>2025-11-05T21:15:44.000Z</time></trkpt>
        <trkpt lat="29.561924" lon="103.3895156"><ele>733.23</ele><time>2025-11-05T21:15:58.000Z</time></trkpt>
        <trkpt lat="29.5618222" lon="103.3894906"><ele>733</ele><time>2025-11-05T21:16:06.000Z</time></trkpt>
        <trkpt lat="29.5617638" lon="103.3894038"><ele>732.44</ele><time>2025-11-05T21:16:18.000Z</time></trkpt>
        <trkpt lat="29.5616895" lon="103.3893289"><ele>732.51</ele><time>2025-11-05T21:16:26.000Z</time></trkpt>
        <trkpt lat="29.5615992" lon="103.389311"><ele>732.2</ele><time>2025-11-05T21:16:38.000Z</time></trkpt>
        <trkpt lat="29.5614983" lon="103.3893447"><ele>730.74</ele><time>2025-11-05T21:16:48.000Z</time></trkpt>
        <trkpt lat="29.5614095" lon="103.3893276"><ele>730.38</ele><time>2025-11-05T21:17:12.000Z</time></trkpt>
        <trkpt lat="29.5613087" lon="103.3893118"><ele>730.82</ele><time>2025-11-05T21:17:24.000Z</time></trkpt>
        <trkpt lat="29.5612135" lon="103.3893235"><ele>731.2</ele><time>2025-11-05T21:17:40.000Z</time></trkpt>
        <trkpt lat="29.5611221" lon="103.3893381"><ele>731.8</ele><time>2025-11-05T21:17:52.000Z</time></trkpt>
        <trkpt lat="29.561031" lon="103.3893661"><ele>732.45</ele><time>2025-11-05T21:18:04.000Z</time></trkpt>
        <trkpt lat="29.5609372" lon="103.3893744"><ele>733.11</ele><time>2025-11-05T21:18:16.000Z</time></trkpt>
        <trkpt lat="29.5608398" lon="103.3894093"><ele>733.71</ele><time>2025-11-05T21:18:28.000Z</time></trkpt>
        <trkpt lat="29.5607487" lon="103.3894406"><ele>733.88</ele><time>2025-11-05T21:18:38.000Z</time></trkpt>
        <trkpt lat="29.5606476" lon="103.3894519"><ele>734.23</ele><time>2025-11-05T21:18:46.000Z</time></trkpt>
        <trkpt lat="29.5605514" lon="103.3894766"><ele>734.82</ele><time>2025-11-05T21:18:56.000Z</time></trkpt>
        <trkpt lat="29.56045" lon="103.3895022"><ele>735.33</ele><time>2025-11-05T21:19:06.000Z</time></trkpt>
        <trkpt lat="29.5603565" lon="103.3894889"><ele>735.75</ele><time>2025-11-05T21:19:20.000Z</time></trkpt>
        <trkpt lat="29.5602713" lon="103.3894375"><ele>736.24</ele><time>2025-11-05T21:19:28.000Z</time></trkpt>
        <trkpt lat="29.5602452" lon="103.389349"><ele>736.27</ele><time>2025-11-05T21:19:38.000Z</time></trkpt>
        <trkpt lat="29.5602763" lon="103.389249"><ele>736.07</ele><time>2025-11-05T21:19:50.000Z</time></trkpt>
        <trkpt lat="29.5602346" lon="103.3891798"><ele>736.64</ele><time>2025-11-05T21:20:20.000Z</time></trkpt>
        <trkpt lat="29.5601826" lon="103.3890906"><ele>739.29</ele><time>2025-11-05T21:20:42.000Z</time></trkpt>
        <trkpt lat="29.5601633" lon="103.3889876"><ele>742.91</ele><time>2025-11-05T21:20:52.000Z</time></trkpt>
        <trkpt lat="29.5601308" lon="103.3888829"><ele>745.4</ele><time>2025-11-05T21:21:08.000Z</time></trkpt>
        <trkpt lat="29.5601149" lon="103.3887701"><ele>747.81</ele><time>2025-11-05T21:21:22.000Z</time></trkpt>
        <trkpt lat="29.5601741" lon="103.3886989"><ele>749.01</ele><time>2025-11-05T21:21:42.000Z</time></trkpt>
        <trkpt lat="29.5601284" lon="103.3886563"><ele>751.29</ele><time>2025-11-05T21:21:52.000Z</time></trkpt>
        <trkpt lat="29.5600486" lon="103.3886086"><ele>753.36</ele><time>2025-11-05T21:22:00.000Z</time></trkpt>
        <trkpt lat="29.5599409" lon="103.3885677"><ele>754.58</ele><time>2025-11-05T21:22:08.000Z</time></trkpt>
        <trkpt lat="29.5598642" lon="103.3884944"><ele>755.1</ele><time>2025-11-05T21:22:20.000Z</time></trkpt>
        <trkpt lat="29.5597897" lon="103.3884208"><ele>754.67</ele><time>2025-11-05T21:22:34.000Z</time></trkpt>
        <trkpt lat="29.5597287" lon="103.388336"><ele>755.03</ele><time>2025-11-05T21:22:48.000Z</time></trkpt>
        <trkpt lat="29.5596751" lon="103.3882451"><ele>756.09</ele><time>2025-11-05T21:23:00.000Z</time></trkpt>
        <trkpt lat="29.5597136" lon="103.3881506"><ele>756.96</ele><time>2025-11-05T21:23:10.000Z</time></trkpt>
        <trkpt lat="29.5597486" lon="103.3880493"><ele>758.05</ele><time>2025-11-05T21:23:16.000Z</time></trkpt>
        <trkpt lat="29.5596905" lon="103.3879888"><ele>757.43</ele><time>2025-11-05T21:23:26.000Z</time></trkpt>
        <trkpt lat="29.5596093" lon="103.3879126"><ele>754.79</ele><time>2025-11-05T21:23:38.000Z</time></trkpt>
        <trkpt lat="29.5595147" lon="103.3878814"><ele>752.13</ele><time>2025-11-05T21:23:46.000Z</time></trkpt>
        <trkpt lat="29.5594096" lon="103.387874"><ele>750.65</ele><time>2025-11-05T21:23:54.000Z</time></trkpt>
        <trkpt lat="29.5593156" lon="103.3878202"><ele>750.5</ele><time>2025-11-05T21:24:04.000Z</time></trkpt>
        <trkpt lat="29.5592238" lon="103.3877969"><ele>751.1</ele><time>2025-11-05T21:24:14.000Z</time></trkpt>
        <trkpt lat="29.5591345" lon="103.3878172"><ele>751.57</ele><time>2025-11-05T21:24:24.000Z</time></trkpt>
        <trkpt lat="29.5590385" lon="103.3877997"><ele>753.65</ele><time>2025-11-05T21:24:32.000Z</time></trkpt>
        <trkpt lat="29.5589414" lon="103.3877805"><ele>755.56</ele><time>2025-11-05T21:24:46.000Z</time></trkpt>
        <trkpt lat="29.5588454" lon="103.3877637"><ele>758.03</ele><time>2025-11-05T21:24:58.000Z</time></trkpt>
        <trkpt lat="29.5587487" lon="103.3877268"><ele>759.35</ele><time>2025-11-05T21:25:08.000Z</time></trkpt>
        <trkpt lat="29.5586544" lon="103.387689"><ele>760.28</ele><time>2025-11-05T21:25:20.000Z</time></trkpt>
        <trkpt lat="29.5585686" lon="103.3876368"><ele>760.76</ele><time>2025-11-05T21:25:34.000Z</time></trkpt>
        <trkpt lat="29.5585108" lon="103.3875488"><ele>761.21</ele><time>2025-11-05T21:25:44.000Z</time></trkpt>
        <trkpt lat="29.5584426" lon="103.3874639"><ele>762.54</ele><time>2025-11-05T21:25:54.000Z</time></trkpt>
        <trkpt lat="29.5583614" lon="103.3874064"><ele>763.9</ele><time>2025-11-05T21:26:08.000Z</time></trkpt>
        <trkpt lat="29.5583113" lon="103.3873201"><ele>764.8</ele><time>2025-11-05T21:26:20.000Z</time></trkpt>
        <trkpt lat="29.5582418" lon="103.3872537"><ele>765.96</ele><time>2025-11-05T21:26:34.000Z</time></trkpt>
        <trkpt lat="29.55814" lon="103.3872557"><ele>768.04</ele><time>2025-11-05T21:26:54.000Z</time></trkpt>
        <trkpt lat="29.5580705" lon="103.3871984"><ele>768.97</ele><time>2025-11-05T21:27:14.000Z</time></trkpt>
        <trkpt lat="29.558001" lon="103.3871204"><ele>770.58</ele><time>2025-11-05T21:27:28.000Z</time></trkpt>
        <trkpt lat="29.5579231" lon="103.3870598"><ele>771.88</ele><time>2025-11-05T21:27:42.000Z</time></trkpt>
        <trkpt lat="29.5578394" lon="103.3870085"><ele>773.39</ele><time>2025-11-05T21:27:56.000Z</time></trkpt>
        <trkpt lat="29.5577325" lon="103.3869968"><ele>775.07</ele><time>2025-11-05T21:28:14.000Z</time></trkpt>
        <trkpt lat="29.5577114" lon="103.3869178"><ele>775.9</ele><time>2025-11-05T21:28:34.000Z</time></trkpt>
        <trkpt lat="29.5576707" lon="103.3868229"><ele>776.89</ele><time>2025-11-05T21:29:04.000Z</time></trkpt>
        <trkpt lat="29.5575925" lon="103.3867622"><ele>779.56</ele><time>2025-11-05T21:29:16.000Z</time></trkpt>
        <trkpt lat="29.5575686" lon="103.3866598"><ele>781.94</ele><time>2025-11-05T21:29:26.000Z</time></trkpt>
        <trkpt lat="29.5574984" lon="103.3865927"><ele>783.43</ele><time>2025-11-05T21:29:48.000Z</time></trkpt>
        <trkpt lat="29.5573978" lon="103.386593"><ele>784.62</ele><time>2025-11-05T21:29:56.000Z</time></trkpt>
        <trkpt lat="29.5573139" lon="103.3865444"><ele>784.87</ele><time>2025-11-05T21:30:12.000Z</time></trkpt>
        <trkpt lat="29.5572734" lon="103.3864562"><ele>784.97</ele><time>2025-11-05T21:30:32.000Z</time></trkpt>
        <trkpt lat="29.5572079" lon="103.3863753"><ele>783.39</ele><time>2025-11-05T21:30:42.000Z</time></trkpt>
        <trkpt lat="29.5571286" lon="103.3863922"><ele>782.58</ele><time>2025-11-05T21:30:56.000Z</time></trkpt>
        <trkpt lat="29.5570406" lon="103.3863867"><ele>782.76</ele><time>2025-11-05T21:31:18.000Z</time></trkpt>
        <trkpt lat="29.5570205" lon="103.3862994"><ele>783.72</ele><time>2025-11-05T21:31:32.000Z</time></trkpt>
        <trkpt lat="29.5570161" lon="103.3861845"><ele>784.66</ele><time>2025-11-05T21:31:50.000Z</time></trkpt>
        <trkpt lat="29.5569504" lon="103.3861247"><ele>785.15</ele><time>2025-11-05T21:32:04.000Z</time></trkpt>
        <trkpt lat="29.5568872" lon="103.3860409"><ele>785.39</ele><time>2025-11-05T21:32:14.000Z</time></trkpt>
        <trkpt lat="29.5567806" lon="103.3860286"><ele>785.69</ele><time>2025-11-05T21:32:46.000Z</time></trkpt>
        <trkpt lat="29.5566867" lon="103.3860706"><ele>785.22</ele><time>2025-11-05T21:32:56.000Z</time></trkpt>
        <trkpt lat="29.5565983" lon="103.38614"><ele>784.22</ele><time>2025-11-05T21:34:32.000Z</time></trkpt>
        <trkpt lat="29.5564867" lon="103.3860833"><ele>783.01</ele><time>2025-11-05T21:35:28.000Z</time></trkpt>
        <trkpt lat="29.55646" lon="103.3859767"><ele>786.75</ele><time>2025-11-05T21:36:30.000Z</time></trkpt>
        <trkpt lat="29.5564417" lon="103.3858633"><ele>788.83</ele><time>2025-11-05T21:37:12.000Z</time></trkpt>
        <trkpt lat="29.5564036" lon="103.3859277"><ele>794.28</ele><time>2025-11-05T21:37:34.000Z</time></trkpt>
        <trkpt lat="29.556255" lon="103.3860667"><ele>799.54</ele><time>2025-11-05T21:38:34.000Z</time></trkpt>
        <trkpt lat="29.5561817" lon="103.3861283"><ele>804.81</ele><time>2025-11-05T21:38:54.000Z</time></trkpt>
        <trkpt lat="29.5561126" lon="103.3860673"><ele>809.28</ele><time>2025-11-05T21:39:22.000Z</time></trkpt>
        <trkpt lat="29.5559773" lon="103.386"><ele>812.95</ele><time>2025-11-05T21:40:18.000Z</time></trkpt>
        <trkpt lat="29.5560246" lon="103.385964"><ele>816.88</ele><time>2025-11-05T21:41:10.000Z</time></trkpt>
        <trkpt lat="29.5560931" lon="103.3858897"><ele>823.39</ele><time>2025-11-05T21:41:20.000Z</time></trkpt>
        <trkpt lat="29.5560106" lon="103.3858453"><ele>828.04</ele><time>2025-11-05T21:41:54.000Z</time></trkpt>
        <trkpt lat="29.5560476" lon="103.3857991"><ele>832.41</ele><time>2025-11-05T21:42:12.000Z</time></trkpt>
        <trkpt lat="29.5560509" lon="103.3856802"><ele>834.94</ele><time>2025-11-05T21:42:42.000Z</time></trkpt>
        <trkpt lat="29.5560532" lon="103.3855634"><ele>837.51</ele><time>2025-11-05T21:43:04.000Z</time></trkpt>
        <trkpt lat="29.5560676" lon="103.3854514"><ele>839.7</ele><time>2025-11-05T21:43:24.000Z</time></trkpt>
        <trkpt lat="29.5560388" lon="103.3855045"><ele>840.04</ele><time>2025-11-05T21:44:04.000Z</time></trkpt>
        <trkpt lat="29.555961" lon="103.3855586"><ele>846.73</ele><time>2025-11-05T21:44:42.000Z</time></trkpt>
        <trkpt lat="29.5559249" lon="103.3855031"><ele>852.44</ele><time>2025-11-05T21:45:34.000Z</time></trkpt>
        <trkpt lat="29.5557633" lon="103.3855533"><ele>855.91</ele><time>2025-11-05T21:47:00.000Z</time></trkpt>
        <trkpt lat="29.5557417" lon="103.3854433"><ele>862.49</ele><time>2025-11-05T21:47:48.000Z</time></trkpt>
        <trkpt lat="29.5556777" lon="103.3853615"><ele>868.64</ele><time>2025-11-05T21:48:28.000Z</time></trkpt>
        <trkpt lat="29.5556718" lon="103.3852642"><ele>872.71</ele><time>2025-11-05T21:49:12.000Z</time></trkpt>
        <trkpt lat="29.5556551" lon="103.3851595"><ele>877.4</ele><time>2025-11-05T21:49:40.000Z</time></trkpt>
        <trkpt lat="29.5556683" lon="103.3850561"><ele>881.14</ele><time>2025-11-05T21:50:32.000Z</time></trkpt>
        <trkpt lat="29.5556069" lon="103.3850475"><ele>885.38</ele><time>2025-11-05T21:50:54.000Z</time></trkpt>
        <trkpt lat="29.5554967" lon="103.3850683"><ele>890.77</ele><time>2025-11-05T21:52:20.000Z</time></trkpt>
        <trkpt lat="29.5554967" lon="103.3850683"><ele>890.77</ele><time>2025-11-05T21:55:17.000Z</time></trkpt>
      </trkseg>
      <trkseg>
        <trkpt lat="29.5555817" lon="103.3850167"><ele>893.79</ele><time>2025-11-05T21:55:23.000Z</time></trkpt>
        <trkpt lat="29.5555817" lon="103.3850167"><ele>893.79</ele><time>2025-11-05T21:56:38.000Z</time></trkpt>
        <trkpt lat="29.5554917" lon="103.3850433"><ele>896.55</ele><time>2025-11-05T21:57:40.000Z</time></trkpt>
        <trkpt lat="29.5556" lon="103.3850167"><ele>895.02</ele><time>2025-11-05T22:16:50.000Z</time></trkpt>
        <trkpt lat="29.5555233" lon="103.3849533"><ele>896.04</ele><time>2025-11-05T22:17:02.000Z</time></trkpt>
        <trkpt lat="29.5554297" lon="103.3849619"><ele>896.07</ele><time>2025-11-05T22:17:10.000Z</time></trkpt>
        <trkpt lat="29.5553396" lon="103.3849356"><ele>896.56</ele><time>2025-11-05T22:17:42.000Z</time></trkpt>
        <trkpt lat="29.5552053" lon="103.3849603"><ele>898.77</ele><time>2025-11-05T22:18:34.000Z</time></trkpt>
        <trkpt lat="29.5551015" lon="103.3849433"><ele>903.77</ele><time>2025-11-05T22:18:54.000Z</time></trkpt>
        <trkpt lat="29.5549837" lon="103.3848835"><ele>907.01</ele><time>2025-11-05T22:19:24.000Z</time></trkpt>
        <trkpt lat="29.5548792" lon="103.3848026"><ele>911.52</ele><time>2025-11-05T22:19:50.000Z</time></trkpt>
        <trkpt lat="29.5547977" lon="103.3847255"><ele>916.46</ele><time>2025-11-05T22:20:10.000Z</time></trkpt>
        <trkpt lat="29.554723" lon="103.3846562"><ele>920.31</ele><time>2025-11-05T22:20:24.000Z</time></trkpt>
        <trkpt lat="29.5546831" lon="103.3845609"><ele>923.4</ele><time>2025-11-05T22:20:50.000Z</time></trkpt>
        <trkpt lat="29.554825" lon="103.38446"><ele>925.94</ele><time>2025-11-05T22:22:26.000Z</time></trkpt>
        <trkpt lat="29.5548817" lon="103.3843767"><ele>932.2</ele><time>2025-11-05T22:22:56.000Z</time></trkpt>
        <trkpt lat="29.554975" lon="103.3843117"><ele>936.63</ele><time>2025-11-05T22:23:34.000Z</time></trkpt>
        <trkpt lat="29.555062" lon="103.3842268"><ele>940.32</ele><time>2025-11-05T22:24:18.000Z</time></trkpt>
        <trkpt lat="29.5550794" lon="103.3841157"><ele>944.48</ele><time>2025-11-05T22:25:02.000Z</time></trkpt>
        <trkpt lat="29.5550265" lon="103.3840217"><ele>949.95</ele><time>2025-11-05T22:25:20.000Z</time></trkpt>
        <trkpt lat="29.5549835" lon="103.3839195"><ele>953.93</ele><time>2025-11-05T22:25:32.000Z</time></trkpt>
        <trkpt lat="29.55496" lon="103.3838016"><ele>956.28</ele><time>2025-11-05T22:25:48.000Z</time></trkpt>
        <trkpt lat="29.5549986" lon="103.3837099"><ele>958.48</ele><time>2025-11-05T22:26:16.000Z</time></trkpt>
        <trkpt lat="29.5550477" lon="103.38361"><ele>958.15</ele><time>2025-11-05T22:26:28.000Z</time></trkpt>
        <trkpt lat="29.5550348" lon="103.3835113"><ele>957.87</ele><time>2025-11-05T22:26:42.000Z</time></trkpt>
        <trkpt lat="29.5549931" lon="103.383413"><ele>957.8</ele><time>2025-11-05T22:26:56.000Z</time></trkpt>
        <trkpt lat="29.5549169" lon="103.3833461"><ele>957.67</ele><time>2025-11-05T22:27:06.000Z</time></trkpt>
        <trkpt lat="29.5548294" lon="103.383372"><ele>958.16</ele><time>2025-11-05T22:27:20.000Z</time></trkpt>
        <trkpt lat="29.5547713" lon="103.3833211"><ele>958.48</ele><time>2025-11-05T22:27:28.000Z</time></trkpt>
        <trkpt lat="29.5546949" lon="103.3832637"><ele>957.93</ele><time>2025-11-05T22:27:38.000Z</time></trkpt>
        <trkpt lat="29.5546091" lon="103.3832163"><ele>957.27</ele><time>2025-11-05T22:27:52.000Z</time></trkpt>
        <trkpt lat="29.5545143" lon="103.3831958"><ele>956.94</ele><time>2025-11-05T22:28:04.000Z</time></trkpt>
        <trkpt lat="29.5544586" lon="103.3831138"><ele>956.45</ele><time>2025-11-05T22:28:26.000Z</time></trkpt>
        <trkpt lat="29.5544169" lon="103.3830154"><ele>956.69</ele><time>2025-11-05T22:28:44.000Z</time></trkpt>
        <trkpt lat="29.5543511" lon="103.3829309"><ele>956.95</ele><time>2025-11-05T22:29:16.000Z</time></trkpt>
        <trkpt lat="29.5543738" lon="103.3828464"><ele>959.34</ele><time>2025-11-05T22:29:36.000Z</time></trkpt>
        <trkpt lat="29.5543918" lon="103.3827473"><ele>961.77</ele><time>2025-11-05T22:30:04.000Z</time></trkpt>
        <trkpt lat="29.5543972" lon="103.3826405"><ele>964.67</ele><time>2025-11-05T22:30:44.000Z</time></trkpt>
        <trkpt lat="29.5543507" lon="103.3825419"><ele>968.38</ele><time>2025-11-05T22:31:08.000Z</time></trkpt>
        <trkpt lat="29.5542822" lon="103.3824584"><ele>971.7</ele><time>2025-11-05T22:31:50.000Z</time></trkpt>
        <trkpt lat="29.5542247" lon="103.3823568"><ele>975.62</ele><time>2025-11-05T22:32:12.000Z</time></trkpt>
        <trkpt lat="29.55421" lon="103.3822389"><ele>978.71</ele><time>2025-11-05T22:32:36.000Z</time></trkpt>
        <trkpt lat="29.5542142" lon="103.3821281"><ele>981.97</ele><time>2025-11-05T22:32:54.000Z</time></trkpt>
        <trkpt lat="29.5542309" lon="103.3820224"><ele>983.45</ele><time>2025-11-05T22:33:10.000Z</time></trkpt>
        <trkpt lat="29.5542025" lon="103.3819188"><ele>984.03</ele><time>2025-11-05T22:33:26.000Z</time></trkpt>
        <trkpt lat="29.5541922" lon="103.3818096"><ele>983.67</ele><time>2025-11-05T22:33:40.000Z</time></trkpt>
        <trkpt lat="29.5541487" lon="103.3816893"><ele>984.67</ele><time>2025-11-05T22:34:16.000Z</time></trkpt>
        <trkpt lat="29.5541117" lon="103.381569"><ele>988.51</ele><time>2025-11-05T22:34:30.000Z</time></trkpt>
        <trkpt lat="29.5540725" lon="103.3814606"><ele>990.83</ele><time>2025-11-05T22:34:50.000Z</time></trkpt>
        <trkpt lat="29.5540569" lon="103.3813532"><ele>993.1</ele><time>2025-11-05T22:35:08.000Z</time></trkpt>
        <trkpt lat="29.5540528" lon="103.381247"><ele>994.99</ele><time>2025-11-05T22:35:22.000Z</time></trkpt>
        <trkpt lat="29.554043" lon="103.3811259"><ele>996.5</ele><time>2025-11-05T22:35:38.000Z</time></trkpt>
        <trkpt lat="29.5539912" lon="103.3810354"><ele>997.83</ele><time>2025-11-05T22:35:52.000Z</time></trkpt>
        <trkpt lat="29.5539738" lon="103.3809331"><ele>999.02</ele><time>2025-11-05T22:36:14.000Z</time></trkpt>
        <trkpt lat="29.5539974" lon="103.3808301"><ele>1000.73</ele><time>2025-11-05T22:36:30.000Z</time></trkpt>
        <trkpt lat="29.5540189" lon="103.380723"><ele>1002.1</ele><time>2025-11-05T22:36:46.000Z</time></trkpt>
        <trkpt lat="29.5540683" lon="103.3806208"><ele>1003.6</ele><time>2025-11-05T22:37:06.000Z</time></trkpt>
        <trkpt lat="29.5540628" lon="103.3805206"><ele>1005.11</ele><time>2025-11-05T22:37:20.000Z</time></trkpt>
        <trkpt lat="29.5540349" lon="103.3804071"><ele>1005.66</ele><time>2025-11-05T22:37:34.000Z</time></trkpt>
        <trkpt lat="29.5540258" lon="103.3802999"><ele>1005.34</ele><time>2025-11-05T22:37:44.000Z</time></trkpt>
        <trkpt lat="29.5540346" lon="103.3801882"><ele>1005.32</ele><time>2025-11-05T22:38:00.000Z</time></trkpt>
        <trkpt lat="29.5540411" lon="103.3800784"><ele>1006.04</ele><time>2025-11-05T22:38:16.000Z</time></trkpt>
        <trkpt lat="29.5540235" lon="103.3799722"><ele>1006.93</ele><time>2025-11-05T22:38:32.000Z</time></trkpt>
        <trkpt lat="29.5540105" lon="103.3798686"><ele>1008.59</ele><time>2025-11-05T22:38:52.000Z</time></trkpt>
        <trkpt lat="29.5539564" lon="103.3797895"><ele>1011.13</ele><time>2025-11-05T22:39:16.000Z</time></trkpt>
        <trkpt lat="29.5539565" lon="103.3796539"><ele>1013.18</ele><time>2025-11-05T22:40:06.000Z</time></trkpt>
        <trkpt lat="29.5539226" lon="103.3795252"><ele>1015.94</ele><time>2025-11-05T22:40:32.000Z</time></trkpt>
        <trkpt lat="29.5538995" lon="103.3794149"><ele>1019.24</ele><time>2025-11-05T22:40:56.000Z</time></trkpt>
        <trkpt lat="29.5538514" lon="103.3793236"><ele>1022.32</ele><time>2025-11-05T22:41:16.000Z</time></trkpt>
        <trkpt lat="29.5538203" lon="103.3792249"><ele>1024.5</ele><time>2025-11-05T22:41:36.000Z</time></trkpt>
        <trkpt lat="29.5538143" lon="103.3791183"><ele>1026.31</ele><time>2025-11-05T22:41:52.000Z</time></trkpt>
        <trkpt lat="29.5538122" lon="103.3790098"><ele>1028.59</ele><time>2025-11-05T22:42:10.000Z</time></trkpt>
        <trkpt lat="29.5538114" lon="103.3788922"><ele>1030.53</ele><time>2025-11-05T22:42:26.000Z</time></trkpt>
        <trkpt lat="29.5538513" lon="103.3787977"><ele>1032.88</ele><time>2025-11-05T22:42:38.000Z</time></trkpt>
        <trkpt lat="29.5538854" lon="103.3786935"><ele>1035.04</ele><time>2025-11-05T22:42:52.000Z</time></trkpt>
        <trkpt lat="29.5538811" lon="103.3785787"><ele>1036.96</ele><time>2025-11-05T22:43:08.000Z</time></trkpt>
        <trkpt lat="29.5538491" lon="103.3784762"><ele>1038.57</ele><time>2025-11-05T22:43:32.000Z</time></trkpt>
        <trkpt lat="29.5537974" lon="103.3783801"><ele>1039.92</ele><time>2025-11-05T22:44:00.000Z</time></trkpt>
        <trkpt lat="29.5537169" lon="103.3782834"><ele>1042.15</ele><time>2025-11-05T22:44:40.000Z</time></trkpt>
        <trkpt lat="29.5536572" lon="103.3781761"><ele>1045.35</ele><time>2025-11-05T22:44:56.000Z</time></trkpt>
        <trkpt lat="29.553609" lon="103.3780758"><ele>1046.75</ele><time>2025-11-05T22:45:14.000Z</time></trkpt>
        <trkpt lat="29.5535541" lon="103.3779898"><ele>1046.86</ele><time>2025-11-05T22:45:38.000Z</time></trkpt>
        <trkpt lat="29.5534801" lon="103.3779064"><ele>1047.61</ele><time>2025-11-05T22:46:22.000Z</time></trkpt>
        <trkpt lat="29.5534117" lon="103.3778193"><ele>1050.06</ele><time>2025-11-05T22:47:02.000Z</time></trkpt>
        <trkpt lat="29.553349" lon="103.3777278"><ele>1053.65</ele><time>2025-11-05T22:47:44.000Z</time></trkpt>
        <trkpt lat="29.5532133" lon="103.3776583"><ele>1059.05</ele><time>2025-11-05T22:48:46.000Z</time></trkpt>
        <trkpt lat="29.5531983" lon="103.3775417"><ele>1066.85</ele><time>2025-11-05T22:49:12.000Z</time></trkpt>
        <trkpt lat="29.5531213" lon="103.3774758"><ele>1073.24</ele><time>2025-11-05T22:49:48.000Z</time></trkpt>
        <trkpt lat="29.5529633" lon="103.3773617"><ele>1078.04</ele><time>2025-11-05T22:50:52.000Z</time></trkpt>
        <trkpt lat="29.5529" lon="103.37727"><ele>1087.06</ele><time>2025-11-05T22:51:54.000Z</time></trkpt>
        <trkpt lat="29.5528267" lon="103.3772033"><ele>1094.04</ele><time>2025-11-05T22:52:12.000Z</time></trkpt>
        <trkpt lat="29.5527322" lon="103.3772086"><ele>1097.81</ele><time>2025-11-05T22:52:44.000Z</time></trkpt>
        <trkpt lat="29.5526597" lon="103.3771442"><ele>1100.47</ele><time>2025-11-05T22:53:06.000Z</time></trkpt>
        <trkpt lat="29.5525826" lon="103.3770874"><ele>1102.25</ele><time>2025-11-05T22:53:40.000Z</time></trkpt>
        <trkpt lat="29.5524924" lon="103.377053"><ele>1105.88</ele><time>2025-11-05T22:54:30.000Z</time></trkpt>
        <trkpt lat="29.5523959" lon="103.3770138"><ele>1109.89</ele><time>2025-11-05T22:55:20.000Z</time></trkpt>
        <trkpt lat="29.5522965" lon="103.3769682"><ele>1116.69</ele><time>2025-11-05T22:55:54.000Z</time></trkpt>
        <trkpt lat="29.5521993" lon="103.3769438"><ele>1121.38</ele><time>2025-11-05T22:56:32.000Z</time></trkpt>
        <trkpt lat="29.5521117" lon="103.3768967"><ele>1126.55</ele><time>2025-11-05T22:57:36.000Z</time></trkpt>
        <trkpt lat="29.5520533" lon="103.3768167"><ele>1132.72</ele><time>2025-11-05T22:58:00.000Z</time></trkpt>
        <trkpt lat="29.5519583" lon="103.3767733"><ele>1136.33</ele><time>2025-11-05T22:59:06.000Z</time></trkpt>
        <trkpt lat="29.5518267" lon="103.37673"><ele>1142.47</ele><time>2025-11-05T22:59:16.000Z</time></trkpt>
        <trkpt lat="29.5517895" lon="103.3766373"><ele>1146.05</ele><time>2025-11-05T22:59:34.000Z</time></trkpt>
        <trkpt lat="29.5517583" lon="103.3764433"><ele>1149.04</ele><time>2025-11-05T23:00:40.000Z</time></trkpt>
        <trkpt lat="29.55172" lon="103.376345"><ele>1152.16</ele><time>2025-11-05T23:01:08.000Z</time></trkpt>
        <trkpt lat="29.5517467" lon="103.37624"><ele>1154.33</ele><time>2025-11-05T23:02:34.000Z</time></trkpt>
        <trkpt lat="29.5516883" lon="103.3761567"><ele>1163.26</ele><time>2025-11-05T23:03:08.000Z</time></trkpt>
        <trkpt lat="29.5517372" lon="103.376086"><ele>1168.61</ele><time>2025-11-05T23:03:26.000Z</time></trkpt>
        <trkpt lat="29.5517291" lon="103.3759662"><ele>1172.39</ele><time>2025-11-05T23:04:12.000Z</time></trkpt>
        <trkpt lat="29.5517251" lon="103.3758536"><ele>1177.04</ele><time>2025-11-05T23:04:40.000Z</time></trkpt>
        <trkpt lat="29.5517128" lon="103.3757449"><ele>1180.51</ele><time>2025-11-05T23:05:30.000Z</time></trkpt>
        <trkpt lat="29.5516687" lon="103.3756472"><ele>1184.33</ele><time>2025-11-05T23:05:46.000Z</time></trkpt>
        <trkpt lat="29.5515884" lon="103.3755725"><ele>1186.3</ele><time>2025-11-05T23:06:06.000Z</time></trkpt>
        <trkpt lat="29.5515081" lon="103.3754958"><ele>1186.94</ele><time>2025-11-05T23:06:18.000Z</time></trkpt>
        <trkpt lat="29.5514221" lon="103.3754382"><ele>1187.79</ele><time>2025-11-05T23:06:42.000Z</time></trkpt>
        <trkpt lat="29.5513456" lon="103.3753667"><ele>1188.57</ele><time>2025-11-05T23:07:00.000Z</time></trkpt>
        <trkpt lat="29.551255" lon="103.3753352"><ele>1189.31</ele><time>2025-11-05T23:07:24.000Z</time></trkpt>
        <trkpt lat="29.5511556" lon="103.3753094"><ele>1190.08</ele><time>2025-11-05T23:08:00.000Z</time></trkpt>
        <trkpt lat="29.5510863" lon="103.3752373"><ele>1192.02</ele><time>2025-11-05T23:08:20.000Z</time></trkpt>
        <trkpt lat="29.551009" lon="103.3752457"><ele>1193.95</ele><time>2025-11-05T23:08:42.000Z</time></trkpt>
        <trkpt lat="29.55093" lon="103.3752126"><ele>1195.48</ele><time>2025-11-05T23:09:02.000Z</time></trkpt>
        <trkpt lat="29.5508415" lon="103.3752322"><ele>1197.29</ele><time>2025-11-05T23:09:24.000Z</time></trkpt>
        <trkpt lat="29.5507708" lon="103.3751877"><ele>1199.75</ele><time>2025-11-05T23:09:44.000Z</time></trkpt>
        <trkpt lat="29.5506871" lon="103.3751534"><ele>1201.62</ele><time>2025-11-05T23:09:56.000Z</time></trkpt>
        <trkpt lat="29.5505929" lon="103.3751224"><ele>1202.86</ele><time>2025-11-05T23:10:10.000Z</time></trkpt>
        <trkpt lat="29.5505128" lon="103.3750555"><ele>1203.18</ele><time>2025-11-05T23:10:22.000Z</time></trkpt>
        <trkpt lat="29.5504172" lon="103.3750647"><ele>1204.26</ele><time>2025-11-05T23:10:32.000Z</time></trkpt>
        <trkpt lat="29.550347" lon="103.3750122"><ele>1205.83</ele><time>2025-11-05T23:10:48.000Z</time></trkpt>
        <trkpt lat="29.5502817" lon="103.3749391"><ele>1207.02</ele><time>2025-11-05T23:11:04.000Z</time></trkpt>
        <trkpt lat="29.5502008" lon="103.3748802"><ele>1207.14</ele><time>2025-11-05T23:11:20.000Z</time></trkpt>
        <trkpt lat="29.5501097" lon="103.3748499"><ele>1206.95</ele><time>2025-11-05T23:11:50.000Z</time></trkpt>
        <trkpt lat="29.5500253" lon="103.374799"><ele>1208.26</ele><time>2025-11-05T23:12:06.000Z</time></trkpt>
        <trkpt lat="29.5499328" lon="103.3747379"><ele>1209.44</ele><time>2025-11-05T23:12:28.000Z</time></trkpt>
        <trkpt lat="29.5499301" lon="103.374641"><ele>1208.78</ele><time>2025-11-05T23:12:48.000Z</time></trkpt>
        <trkpt lat="29.5500133" lon="103.3745743"><ele>1208.27</ele><time>2025-11-05T23:13:02.000Z</time></trkpt>
        <trkpt lat="29.5500392" lon="103.3744809"><ele>1208.5</ele><time>2025-11-05T23:13:40.000Z</time></trkpt>
        <trkpt lat="29.5501185" lon="103.3744187"><ele>1211.08</ele><time>2025-11-05T23:14:20.000Z</time></trkpt>
        <trkpt lat="29.5501915" lon="103.3743378"><ele>1215.26</ele><time>2025-11-05T23:14:42.000Z</time></trkpt>
        <trkpt lat="29.5502978" lon="103.3742716"><ele>1218.29</ele><time>2025-11-05T23:15:08.000Z</time></trkpt>
        <trkpt lat="29.5503723" lon="103.3741913"><ele>1220.66</ele><time>2025-11-05T23:15:26.000Z</time></trkpt>
        <trkpt lat="29.5504113" lon="103.3740938"><ele>1222.87</ele><time>2025-11-05T23:15:36.000Z</time></trkpt>
        <trkpt lat="29.5504853" lon="103.3740671"><ele>1223.36</ele><time>2025-11-05T23:15:42.000Z</time></trkpt>
        <trkpt lat="29.550583" lon="103.3740899"><ele>1223.07</ele><time>2025-11-05T23:15:50.000Z</time></trkpt>
        <trkpt lat="29.5506723" lon="103.3741388"><ele>1223.34</ele><time>2025-11-05T23:16:08.000Z</time></trkpt>
        <trkpt lat="29.5507005" lon="103.3740401"><ele>1225.86</ele><time>2025-11-05T23:16:22.000Z</time></trkpt>
        <trkpt lat="29.550766" lon="103.3739725"><ele>1228.46</ele><time>2025-11-05T23:16:30.000Z</time></trkpt>
        <trkpt lat="29.5508482" lon="103.3739212"><ele>1230.2</ele><time>2025-11-05T23:16:52.000Z</time></trkpt>
        <trkpt lat="29.5509049" lon="103.3738397"><ele>1230.41</ele><time>2025-11-05T23:17:16.000Z</time></trkpt>
        <trkpt lat="29.5509861" lon="103.373776"><ele>1229.85</ele><time>2025-11-05T23:17:38.000Z</time></trkpt>
        <trkpt lat="29.5510759" lon="103.3737716"><ele>1228.45</ele><time>2025-11-05T23:17:56.000Z</time></trkpt>
        <trkpt lat="29.5511804" lon="103.3738202"><ele>1226.62</ele><time>2025-11-05T23:18:10.000Z</time></trkpt>
        <trkpt lat="29.551258" lon="103.3737821"><ele>1226.61</ele><time>2025-11-05T23:18:20.000Z</time></trkpt>
        <trkpt lat="29.5513345" lon="103.3737152"><ele>1225.88</ele><time>2025-11-05T23:18:36.000Z</time></trkpt>
        <trkpt lat="29.5512999" lon="103.3736124"><ele>1225.89</ele><time>2025-11-05T23:18:50.000Z</time></trkpt>
        <trkpt lat="29.5513417" lon="103.373517"><ele>1224.77</ele><time>2025-11-05T23:19:04.000Z</time></trkpt>
        <trkpt lat="29.5513388" lon="103.3734013"><ele>1223.41</ele><time>2025-11-05T23:19:28.000Z</time></trkpt>
        <trkpt lat="29.5513338" lon="103.3732846"><ele>1220.91</ele><time>2025-11-05T23:19:46.000Z</time></trkpt>
        <trkpt lat="29.5513175" lon="103.3731745"><ele>1217.89</ele><time>2025-11-05T23:19:56.000Z</time></trkpt>
        <trkpt lat="29.5512507" lon="103.3731066"><ele>1215.32</ele><time>2025-11-05T23:20:10.000Z</time></trkpt>
        <trkpt lat="29.551188" lon="103.3730244"><ele>1214.45</ele><time>2025-11-05T23:20:22.000Z</time></trkpt>
        <trkpt lat="29.5511277" lon="103.3729408"><ele>1215.72</ele><time>2025-11-05T23:20:40.000Z</time></trkpt>
        <trkpt lat="29.5510398" lon="103.3729354"><ele>1218.81</ele><time>2025-11-05T23:21:08.000Z</time></trkpt>
        <trkpt lat="29.5509538" lon="103.372907"><ele>1219.02</ele><time>2025-11-05T23:21:16.000Z</time></trkpt>
        <trkpt lat="29.5508591" lon="103.3729009"><ele>1219.7</ele><time>2025-11-05T23:21:26.000Z</time></trkpt>
        <trkpt lat="29.5507646" lon="103.3728844"><ele>1221.46</ele><time>2025-11-05T23:21:46.000Z</time></trkpt>
        <trkpt lat="29.5506725" lon="103.3728986"><ele>1223.03</ele><time>2025-11-05T23:21:56.000Z</time></trkpt>
        <trkpt lat="29.5505817" lon="103.3729362"><ele>1224.39</ele><time>2025-11-05T23:22:06.000Z</time></trkpt>
        <trkpt lat="29.5505253" lon="103.3729554"><ele>1224.65</ele><time>2025-11-05T23:22:08.000Z</time></trkpt>
        <trkpt lat="29.5504464" lon="103.3729306"><ele>1224.85</ele><time>2025-11-05T23:22:28.000Z</time></trkpt>
        <trkpt lat="29.5503361" lon="103.3729709"><ele>1224.61</ele><time>2025-11-05T23:22:46.000Z</time></trkpt>
        <trkpt lat="29.5502322" lon="103.3729921"><ele>1226.15</ele><time>2025-11-05T23:22:52.000Z</time></trkpt>
        <trkpt lat="29.5502162" lon="103.3729202"><ele>1227.38</ele><time>2025-11-05T23:23:18.000Z</time></trkpt>
        <trkpt lat="29.5502782" lon="103.3728341"><ele>1227.34</ele><time>2025-11-05T23:23:40.000Z</time></trkpt>
        <trkpt lat="29.550329" lon="103.372764"><ele>1227.8</ele><time>2025-11-05T23:23:54.000Z</time></trkpt>
        <trkpt lat="29.5503967" lon="103.3726832"><ele>1228.27</ele><time>2025-11-05T23:24:06.000Z</time></trkpt>
        <trkpt lat="29.5504301" lon="103.3726621"><ele>1228.03</ele><time>2025-11-05T23:24:08.000Z</time></trkpt>
        <trkpt lat="29.5504948" lon="103.3726062"><ele>1228.1</ele><time>2025-11-05T23:24:24.000Z</time></trkpt>
        <trkpt lat="29.5505577" lon="103.3725262"><ele>1227.58</ele><time>2025-11-05T23:25:18.000Z</time></trkpt>
        <trkpt lat="29.5506236" lon="103.372429"><ele>1224.54</ele><time>2025-11-05T23:25:32.000Z</time></trkpt>
        <trkpt lat="29.5506436" lon="103.3723185"><ele>1221.81</ele><time>2025-11-05T23:25:48.000Z</time></trkpt>
        <trkpt lat="29.5506563" lon="103.3722085"><ele>1218.62</ele><time>2025-11-05T23:26:04.000Z</time></trkpt>
        <trkpt lat="29.5506886" lon="103.3720992"><ele>1215.73</ele><time>2025-11-05T23:26:16.000Z</time></trkpt>
        <trkpt lat="29.5506495" lon="103.3720148"><ele>1214.08</ele><time>2025-11-05T23:26:36.000Z</time></trkpt>
        <trkpt lat="29.5505842" lon="103.3719161"><ele>1213.4</ele><time>2025-11-05T23:27:00.000Z</time></trkpt>
        <trkpt lat="29.5505443" lon="103.3718148"><ele>1209.1</ele><time>2025-11-05T23:27:12.000Z</time></trkpt>
        <trkpt lat="29.5505034" lon="103.3717102"><ele>1205.06</ele><time>2025-11-05T23:27:24.000Z</time></trkpt>
        <trkpt lat="29.550425" lon="103.3716372"><ele>1203.23</ele><time>2025-11-05T23:27:36.000Z</time></trkpt>
        <trkpt lat="29.5503657" lon="103.3715472"><ele>1202.27</ele><time>2025-11-05T23:27:52.000Z</time></trkpt>
        <trkpt lat="29.5502643" lon="103.3714884"><ele>1201.89</ele><time>2025-11-05T23:28:20.000Z</time></trkpt>
        <trkpt lat="29.5501652" lon="103.3714785"><ele>1201.9</ele><time>2025-11-05T23:28:30.000Z</time></trkpt>
        <trkpt lat="29.5502032" lon="103.3714285"><ele>1202.54</ele><time>2025-11-05T23:28:40.000Z</time></trkpt>
        <trkpt lat="29.5502838" lon="103.3713666"><ele>1203.64</ele><time>2025-11-05T23:29:00.000Z</time></trkpt>
        <trkpt lat="29.5503441" lon="103.3712768"><ele>1204.79</ele><time>2025-11-05T23:29:12.000Z</time></trkpt>
        <trkpt lat="29.5503823" lon="103.3711727"><ele>1204.49</ele><time>2025-11-05T23:29:30.000Z</time></trkpt>
        <trkpt lat="29.5504204" lon="103.3710678"><ele>1202.43</ele><time>2025-11-05T23:29:44.000Z</time></trkpt>
        <trkpt lat="29.550446" lon="103.3709619"><ele>1200.14</ele><time>2025-11-05T23:29:56.000Z</time></trkpt>
        <trkpt lat="29.5504659" lon="103.3708529"><ele>1197.8</ele><time>2025-11-05T23:30:10.000Z</time></trkpt>
        <trkpt lat="29.5504267" lon="103.3707609"><ele>1196.81</ele><time>2025-11-05T23:30:26.000Z</time></trkpt>
        <trkpt lat="29.5503568" lon="103.3706806"><ele>1197.15</ele><time>2025-11-05T23:30:48.000Z</time></trkpt>
        <trkpt lat="29.5503329" lon="103.3705801"><ele>1197.26</ele><time>2025-11-05T23:31:24.000Z</time></trkpt>
        <trkpt lat="29.5503559" lon="103.3704775"><ele>1197.66</ele><time>2025-11-05T23:31:46.000Z</time></trkpt>
        <trkpt lat="29.5504041" lon="103.370381"><ele>1196.09</ele><time>2025-11-05T23:31:58.000Z</time></trkpt>
        <trkpt lat="29.550355" lon="103.37025"><ele>1193.51</ele><time>2025-11-05T23:34:40.000Z</time></trkpt>
        <trkpt lat="29.550315" lon="103.3701533"><ele>1191.18</ele><time>2025-11-05T23:35:10.000Z</time></trkpt>
        <trkpt lat="29.5503864" lon="103.3701159"><ele>1191.45</ele><time>2025-11-05T23:35:34.000Z</time></trkpt>
        <trkpt lat="29.5503476" lon="103.3700452"><ele>1193.79</ele><time>2025-11-05T23:35:44.000Z</time></trkpt>
        <trkpt lat="29.5503339" lon="103.3699318"><ele>1194.1</ele><time>2025-11-05T23:35:52.000Z</time></trkpt>
        <trkpt lat="29.5502559" lon="103.3699158"><ele>1193.11</ele><time>2025-11-05T23:36:00.000Z</time></trkpt>
        <trkpt lat="29.5502048" lon="103.369839"><ele>1193.15</ele><time>2025-11-05T23:36:14.000Z</time></trkpt>
        <trkpt lat="29.5502085" lon="103.3697259"><ele>1195.06</ele><time>2025-11-05T23:37:00.000Z</time></trkpt>
        <trkpt lat="29.5501317" lon="103.369625"><ele>1199.98</ele><time>2025-11-05T23:38:08.000Z</time></trkpt>
        <trkpt lat="29.5501267" lon="103.3695033"><ele>1205.71</ele><time>2025-11-05T23:38:46.000Z</time></trkpt>
        <trkpt lat="29.5500427" lon="103.3694649"><ele>1209.97</ele><time>2025-11-05T23:39:26.000Z</time></trkpt>
        <trkpt lat="29.5500078" lon="103.3693794"><ele>1213.25</ele><time>2025-11-05T23:39:54.000Z</time></trkpt>
        <trkpt lat="29.5499552" lon="103.3692909"><ele>1216.33</ele><time>2025-11-05T23:40:18.000Z</time></trkpt>
        <trkpt lat="29.5499121" lon="103.3691917"><ele>1218.85</ele><time>2025-11-05T23:40:38.000Z</time></trkpt>
        <trkpt lat="29.5499218" lon="103.3690888"><ele>1221.45</ele><time>2025-11-05T23:40:56.000Z</time></trkpt>
        <trkpt lat="29.5498918" lon="103.368998"><ele>1223.71</ele><time>2025-11-05T23:41:12.000Z</time></trkpt>
        <trkpt lat="29.5499458" lon="103.3689449"><ele>1225.38</ele><time>2025-11-05T23:41:44.000Z</time></trkpt>
        <trkpt lat="29.5499007" lon="103.3689088"><ele>1227.37</ele><time>2025-11-05T23:42:08.000Z</time></trkpt>
        <trkpt lat="29.5498" lon="103.3687983"><ele>1229.83</ele><time>2025-11-05T23:44:26.000Z</time></trkpt>
        <trkpt lat="29.549695" lon="103.3687267"><ele>1238.38</ele><time>2025-11-05T23:44:50.000Z</time></trkpt>
        <trkpt lat="29.549621" lon="103.368655"><ele>1244.75</ele><time>2025-11-05T23:45:14.000Z</time></trkpt>
        <trkpt lat="29.5496156" lon="103.368555"><ele>1248.52</ele><time>2025-11-05T23:45:44.000Z</time></trkpt>
        <trkpt lat="29.549628" lon="103.3685641"><ele>1250.7</ele><time>2025-11-05T23:46:00.000Z</time></trkpt>
        <trkpt lat="29.5496633" lon="103.3684917"><ele>1252.85</ele><time>2025-11-05T23:47:30.000Z</time></trkpt>
        <trkpt lat="29.549745" lon="103.3684483"><ele>1259.11</ele><time>2025-11-05T23:48:32.000Z</time></trkpt>
        <trkpt lat="29.549835" lon="103.3684467"><ele>1262.29</ele><time>2025-11-05T23:49:44.000Z</time></trkpt>
        <trkpt lat="29.5497567" lon="103.3683683"><ele>1266.85</ele><time>2025-11-05T23:51:02.000Z</time></trkpt>
        <trkpt lat="29.5498583" lon="103.3683817"><ele>1275.69</ele><time>2025-11-05T23:51:30.000Z</time></trkpt>
        <trkpt lat="29.5498917" lon="103.3682383"><ele>1281.59</ele><time>2025-11-05T23:53:58.000Z</time></trkpt>
        <trkpt lat="29.5499567" lon="103.3680567"><ele>1288.13</ele><time>2025-11-05T23:56:26.000Z</time></trkpt>
        <trkpt lat="29.5499067" lon="103.3679633"><ele>1295.86</ele><time>2025-11-05T23:57:34.000Z</time></trkpt>
        <trkpt lat="29.5498667" lon="103.367845"><ele>1302.85</ele><time>2025-11-06T00:00:10.000Z</time></trkpt>
        <trkpt lat="29.5499533" lon="103.367875"><ele>1313.11</ele><time>2025-11-06T00:01:08.000Z</time></trkpt>
        <trkpt lat="29.5500083" lon="103.3677517"><ele>1321.75</ele><time>2025-11-06T00:03:42.000Z</time></trkpt>
        <trkpt lat="29.5501083" lon="103.3676317"><ele>1331.71</ele><time>2025-11-06T00:04:50.000Z</time></trkpt>
        <trkpt lat="29.5501767" lon="103.3675583"><ele>1338.16</ele><time>2025-11-06T00:05:18.000Z</time></trkpt>
        <trkpt lat="29.5502033" lon="103.3674017"><ele>1343.21</ele><time>2025-11-06T00:06:22.000Z</time></trkpt>
        <trkpt lat="29.5501233" lon="103.367265"><ele>1347.94</ele><time>2025-11-06T00:10:12.000Z</time></trkpt>
        <trkpt lat="29.5501883" lon="103.3671233"><ele>1358.76</ele><time>2025-11-06T00:11:32.000Z</time></trkpt>
        <trkpt lat="29.5502533" lon="103.3670433"><ele>1366.35</ele><time>2025-11-06T00:11:54.000Z</time></trkpt>
        <trkpt lat="29.5502467" lon="103.3669283"><ele>1371.23</ele><time>2025-11-06T00:13:16.000Z</time></trkpt>
        <trkpt lat="29.55014" lon="103.3667867"><ele>1379</ele><time>2025-11-06T00:15:48.000Z</time></trkpt>
        <trkpt lat="29.5500817" lon="103.3667067"><ele>1387.91</ele><time>2025-11-06T00:17:08.000Z</time></trkpt>
        <trkpt lat="29.54999" lon="103.36665"><ele>1395.04</ele><time>2025-11-06T00:18:22.000Z</time></trkpt>
        <trkpt lat="29.5498533" lon="103.3666467"><ele>1400.23</ele><time>2025-11-06T00:20:28.000Z</time></trkpt>
        <trkpt lat="29.549715" lon="103.366675"><ele>1409.21</ele><time>2025-11-06T00:21:24.000Z</time></trkpt>
        <trkpt lat="29.5496528" lon="103.3666004"><ele>1415.48</ele><time>2025-11-06T00:22:20.000Z</time></trkpt>
        <trkpt lat="29.5495797" lon="103.3665191"><ele>1418.67</ele><time>2025-11-06T00:22:52.000Z</time></trkpt>
        <trkpt lat="29.549495" lon="103.366475"><ele>1419.46</ele><time>2025-11-06T00:24:26.000Z</time></trkpt>
        <trkpt lat="29.54944" lon="103.3663933"><ele>1424.77</ele><time>2025-11-06T00:25:26.000Z</time></trkpt>
        <trkpt lat="29.5494" lon="103.36629"><ele>1430.46</ele><time>2025-11-06T00:26:32.000Z</time></trkpt>
        <trkpt lat="29.5493183" lon="103.366345"><ele>1435.9</ele><time>2025-11-06T00:32:10.000Z</time></trkpt>
        <trkpt lat="29.5494067" lon="103.3662883"><ele>1438.65</ele><time>2025-11-06T00:46:04.000Z</time></trkpt>
        <trkpt lat="29.5495" lon="103.36622"><ele>1439.49</ele><time>2025-11-06T00:46:26.000Z</time></trkpt>
        <trkpt lat="29.5495891" lon="103.3661686"><ele>1441.56</ele><time>2025-11-06T00:46:40.000Z</time></trkpt>
        <trkpt lat="29.5496607" lon="103.3661022"><ele>1442.57</ele><time>2025-11-06T00:47:10.000Z</time></trkpt>
        <trkpt lat="29.5497118" lon="103.3660161"><ele>1444.13</ele><time>2025-11-06T00:47:28.000Z</time></trkpt>
        <trkpt lat="29.5497098" lon="103.3659044"><ele>1445.36</ele><time>2025-11-06T00:48:02.000Z</time></trkpt>
        <trkpt lat="29.5496083" lon="103.3657583"><ele>1447.01</ele><time>2025-11-06T00:49:12.000Z</time></trkpt>
        <trkpt lat="29.5496217" lon="103.3656533"><ele>1450.19</ele><time>2025-11-06T00:49:32.000Z</time></trkpt>
        <trkpt lat="29.5495532" lon="103.3655864"><ele>1453.08</ele><time>2025-11-06T00:49:52.000Z</time></trkpt>
        <trkpt lat="29.5495269" lon="103.3654928"><ele>1455.07</ele><time>2025-11-06T00:50:10.000Z</time></trkpt>
        <trkpt lat="29.549576" lon="103.3654048"><ele>1456.2</ele><time>2025-11-06T00:50:20.000Z</time></trkpt>
        <trkpt lat="29.5496596" lon="103.3653329"><ele>1456.5</ele><time>2025-11-06T00:50:30.000Z</time></trkpt>
        <trkpt lat="29.5497294" lon="103.3652455"><ele>1456.29</ele><time>2025-11-06T00:50:40.000Z</time></trkpt>
        <trkpt lat="29.5497963" lon="103.3651479"><ele>1455.86</ele><time>2025-11-06T00:50:52.000Z</time></trkpt>
        <trkpt lat="29.5498693" lon="103.3650757"><ele>1455.62</ele><time>2025-11-06T00:51:00.000Z</time></trkpt>
        <trkpt lat="29.5499227" lon="103.3649922"><ele>1455.05</ele><time>2025-11-06T00:51:12.000Z</time></trkpt>
        <trkpt lat="29.5499532" lon="103.3648911"><ele>1454.64</ele><time>2025-11-06T00:51:24.000Z</time></trkpt>
        <trkpt lat="29.5500249" lon="103.36483"><ele>1454.75</ele><time>2025-11-06T00:51:38.000Z</time></trkpt>
        <trkpt lat="29.5500921" lon="103.3647507"><ele>1454.39</ele><time>2025-11-06T00:51:50.000Z</time></trkpt>
        <trkpt lat="29.550096" lon="103.3646494"><ele>1454.35</ele><time>2025-11-06T00:52:00.000Z</time></trkpt>
        <trkpt lat="29.550109" lon="103.3645388"><ele>1454.33</ele><time>2025-11-06T00:52:12.000Z</time></trkpt>
        <trkpt lat="29.5501597" lon="103.3644537"><ele>1454.27</ele><time>2025-11-06T00:52:24.000Z</time></trkpt>
        <trkpt lat="29.5502292" lon="103.3643791"><ele>1453.85</ele><time>2025-11-06T00:52:44.000Z</time></trkpt>
        <trkpt lat="29.5503117" lon="103.3643263"><ele>1452.71</ele><time>2025-11-06T00:52:54.000Z</time></trkpt>
        <trkpt lat="29.5503482" lon="103.3642379"><ele>1451.72</ele><time>2025-11-06T00:53:04.000Z</time></trkpt>
        <trkpt lat="29.5503638" lon="103.3641361"><ele>1450.63</ele><time>2025-11-06T00:53:16.000Z</time></trkpt>
        <trkpt lat="29.5504073" lon="103.3640229"><ele>1450.45</ele><time>2025-11-06T00:53:54.000Z</time></trkpt>
        <trkpt lat="29.55048" lon="103.3639367"><ele>1452.75</ele><time>2025-11-06T00:55:22.000Z</time></trkpt>
        <trkpt lat="29.55049" lon="103.3638067"><ele>1457.55</ele><time>2025-11-06T00:55:50.000Z</time></trkpt>
        <trkpt lat="29.5505719" lon="103.363781"><ele>1462.6</ele><time>2025-11-06T00:56:40.000Z</time></trkpt>
        <trkpt lat="29.550646" lon="103.3637211"><ele>1466.99</ele><time>2025-11-06T00:56:56.000Z</time></trkpt>
        <trkpt lat="29.5507355" lon="103.3636937"><ele>1470.22</ele><time>2025-11-06T00:57:08.000Z</time></trkpt>
        <trkpt lat="29.5507561" lon="103.3636037"><ele>1472.79</ele><time>2025-11-06T00:57:32.000Z</time></trkpt>
        <trkpt lat="29.550735" lon="103.3634976"><ele>1475.85</ele><time>2025-11-06T00:57:44.000Z</time></trkpt>
        <trkpt lat="29.5507127" lon="103.3633791"><ele>1478.11</ele><time>2025-11-06T00:58:10.000Z</time></trkpt>
        <trkpt lat="29.55079" lon="103.3632483"><ele>1480.64</ele><time>2025-11-06T01:01:22.000Z</time></trkpt>
        <trkpt lat="29.5507917" lon="103.363085"><ele>1486.78</ele><time>2025-11-06T01:03:08.000Z</time></trkpt>
        <trkpt lat="29.5507617" lon="103.3629467"><ele>1494.06</ele><time>2025-11-06T01:05:40.000Z</time></trkpt>
        <trkpt lat="29.5505883" lon="103.3629167"><ele>1505.04</ele><time>2025-11-06T01:07:02.000Z</time></trkpt>
        <trkpt lat="29.550615" lon="103.362765"><ele>1513.16</ele><time>2025-11-06T01:08:22.000Z</time></trkpt>
        <trkpt lat="29.55065" lon="103.3626683"><ele>1519.97</ele><time>2025-11-06T01:08:44.000Z</time></trkpt>
        <trkpt lat="29.5506667" lon="103.3624917"><ele>1524.24</ele><time>2025-11-06T01:11:06.000Z</time></trkpt>
        <trkpt lat="29.5507117" lon="103.3623917"><ele>1530.98</ele><time>2025-11-06T01:12:58.000Z</time></trkpt>
        <trkpt lat="29.5506667" lon="103.3622983"><ele>1538.69</ele><time>2025-11-06T01:14:04.000Z</time></trkpt>
        <trkpt lat="29.5506167" lon="103.3621917"><ele>1545.06</ele><time>2025-11-06T01:15:24.000Z</time></trkpt>
        <trkpt lat="29.5505817" lon="103.3620833"><ele>1550.63</ele><time>2025-11-06T01:16:06.000Z</time></trkpt>
        <trkpt lat="29.5505917" lon="103.3619717"><ele>1555.52</ele><time>2025-11-06T01:17:10.000Z</time></trkpt>
        <trkpt lat="29.5505867" lon="103.3618533"><ele>1560.33</ele><time>2025-11-06T01:18:40.000Z</time></trkpt>
        <trkpt lat="29.55054" lon="103.3617567"><ele>1566.21</ele><time>2025-11-06T01:19:14.000Z</time></trkpt>
        <trkpt lat="29.5504496" lon="103.3617474"><ele>1571.37</ele><time>2025-11-06T01:20:04.000Z</time></trkpt>
        <trkpt lat="29.5504454" lon="103.3616649"><ele>1573.92</ele><time>2025-11-06T01:20:52.000Z</time></trkpt>
        <trkpt lat="29.5503776" lon="103.3616038"><ele>1576.84</ele><time>2025-11-06T01:21:32.000Z</time></trkpt>
        <trkpt lat="29.550415" lon="103.361544"><ele>1580.18</ele><time>2025-11-06T01:22:28.000Z</time></trkpt>
        <trkpt lat="29.55031" lon="103.36142"><ele>1582.6</ele><time>2025-11-06T01:24:00.000Z</time></trkpt>
        <trkpt lat="29.5502167" lon="103.361305"><ele>1586.6</ele><time>2025-11-06T01:24:48.000Z</time></trkpt>
        <trkpt lat="29.5501262" lon="103.3613155"><ele>1591.76</ele><time>2025-11-06T01:25:14.000Z</time></trkpt>
        <trkpt lat="29.5500542" lon="103.3612685"><ele>1596.6</ele><time>2025-11-06T01:25:26.000Z</time></trkpt>
        <trkpt lat="29.5499704" lon="103.3612317"><ele>1599.95</ele><time>2025-11-06T01:25:40.000Z</time></trkpt>
        <trkpt lat="29.5499231" lon="103.3611361"><ele>1602.86</ele><time>2025-11-06T01:25:58.000Z</time></trkpt>
        <trkpt lat="29.549898" lon="103.3610209"><ele>1604.81</ele><time>2025-11-06T01:26:12.000Z</time></trkpt>
        <trkpt lat="29.5498715" lon="103.360909"><ele>1606.4</ele><time>2025-11-06T01:26:32.000Z</time></trkpt>
        <trkpt lat="29.5498373" lon="103.3608035"><ele>1607.3</ele><time>2025-11-06T01:26:46.000Z</time></trkpt>
        <trkpt lat="29.549868" lon="103.3607077"><ele>1608.25</ele><time>2025-11-06T01:27:06.000Z</time></trkpt>
        <trkpt lat="29.5499422" lon="103.3606033"><ele>1608.83</ele><time>2025-11-06T01:27:34.000Z</time></trkpt>
        <trkpt lat="29.5499824" lon="103.3604979"><ele>1608.43</ele><time>2025-11-06T01:27:56.000Z</time></trkpt>
        <trkpt lat="29.5500472" lon="103.3604237"><ele>1606.4</ele><time>2025-11-06T01:28:12.000Z</time></trkpt>
        <trkpt lat="29.5500754" lon="103.3603247"><ele>1605.36</ele><time>2025-11-06T01:28:28.000Z</time></trkpt>
        <trkpt lat="29.5501275" lon="103.3602001"><ele>1604.82</ele><time>2025-11-06T01:28:56.000Z</time></trkpt>
        <trkpt lat="29.5501557" lon="103.3600817"><ele>1604.64</ele><time>2025-11-06T01:29:22.000Z</time></trkpt>
        <trkpt lat="29.5501183" lon="103.3599433"><ele>1605.44</ele><time>2025-11-06T01:30:32.000Z</time></trkpt>
        <trkpt lat="29.550065" lon="103.359835"><ele>1608.69</ele><time>2025-11-06T01:32:16.000Z</time></trkpt>
        <trkpt lat="29.5499867" lon="103.359765"><ele>1613.73</ele><time>2025-11-06T01:34:54.000Z</time></trkpt>
        <trkpt lat="29.5499467" lon="103.35967"><ele>1619.91</ele><time>2025-11-06T01:35:06.000Z</time></trkpt>
        <trkpt lat="29.5498926" lon="103.3595567"><ele>1623.3</ele><time>2025-11-06T01:35:46.000Z</time></trkpt>
        <trkpt lat="29.5498681" lon="103.3594388"><ele>1625.11</ele><time>2025-11-06T01:36:16.000Z</time></trkpt>
        <trkpt lat="29.5498867" lon="103.3593282"><ele>1627.34</ele><time>2025-11-06T01:36:46.000Z</time></trkpt>
        <trkpt lat="29.5499564" lon="103.3592494"><ele>1629.47</ele><time>2025-11-06T01:37:22.000Z</time></trkpt>
        <trkpt lat="29.5500459" lon="103.3591797"><ele>1632.67</ele><time>2025-11-06T01:37:38.000Z</time></trkpt>
        <trkpt lat="29.5501393" lon="103.3591216"><ele>1635.18</ele><time>2025-11-06T01:37:54.000Z</time></trkpt>
        <trkpt lat="29.550237" lon="103.3591189"><ele>1637.08</ele><time>2025-11-06T01:38:10.000Z</time></trkpt>
        <trkpt lat="29.5502929" lon="103.3590448"><ele>1639.02</ele><time>2025-11-06T01:38:22.000Z</time></trkpt>
        <trkpt lat="29.5502709" lon="103.3589485"><ele>1640.86</ele><time>2025-11-06T01:38:40.000Z</time></trkpt>
        <trkpt lat="29.5502846" lon="103.3588434"><ele>1642.81</ele><time>2025-11-06T01:39:16.000Z</time></trkpt>
        <trkpt lat="29.5502651" lon="103.3587361"><ele>1644.57</ele><time>2025-11-06T01:39:38.000Z</time></trkpt>
        <trkpt lat="29.550253" lon="103.3586271"><ele>1645.96</ele><time>2025-11-06T01:39:56.000Z</time></trkpt>
        <trkpt lat="29.5503033" lon="103.358485"><ele>1646.71</ele><time>2025-11-06T01:41:02.000Z</time></trkpt>
        <trkpt lat="29.5503333" lon="103.3583733"><ele>1650.49</ele><time>2025-11-06T01:41:42.000Z</time></trkpt>
        <trkpt lat="29.5503267" lon="103.3582687"><ele>1656.26</ele><time>2025-11-06T01:41:54.000Z</time></trkpt>
        <trkpt lat="29.5503148" lon="103.3581641"><ele>1660.41</ele><time>2025-11-06T01:42:08.000Z</time></trkpt>
        <trkpt lat="29.5503249" lon="103.3580519"><ele>1663.67</ele><time>2025-11-06T01:42:28.000Z</time></trkpt>
        <trkpt lat="29.5503461" lon="103.3579445"><ele>1666.44</ele><time>2025-11-06T01:42:50.000Z</time></trkpt>
        <trkpt lat="29.5503809" lon="103.3578466"><ele>1668.87</ele><time>2025-11-06T01:43:10.000Z</time></trkpt>
        <trkpt lat="29.5504122" lon="103.357722"><ele>1671.25</ele><time>2025-11-06T01:43:44.000Z</time></trkpt>
        <trkpt lat="29.5504172" lon="103.3576034"><ele>1672.95</ele><time>2025-11-06T01:43:58.000Z</time></trkpt>
        <trkpt lat="29.5504122" lon="103.3574894"><ele>1674.26</ele><time>2025-11-06T01:44:18.000Z</time></trkpt>
        <trkpt lat="29.5504134" lon="103.3573498"><ele>1675.31</ele><time>2025-11-06T01:44:50.000Z</time></trkpt>
        <trkpt lat="29.5504244" lon="103.3572158"><ele>1676.94</ele><time>2025-11-06T01:45:22.000Z</time></trkpt>
        <trkpt lat="29.5504191" lon="103.3570915"><ele>1679.29</ele><time>2025-11-06T01:45:44.000Z</time></trkpt>
        <trkpt lat="29.5503688" lon="103.3569973"><ele>1681.87</ele><time>2025-11-06T01:45:56.000Z</time></trkpt>
        <trkpt lat="29.5502826" lon="103.3569678"><ele>1683.61</ele><time>2025-11-06T01:46:20.000Z</time></trkpt>
        <trkpt lat="29.5501949" lon="103.3569199"><ele>1684.98</ele><time>2025-11-06T01:46:56.000Z</time></trkpt>
        <trkpt lat="29.5501002" lon="103.3569173"><ele>1688.47</ele><time>2025-11-06T01:47:04.000Z</time></trkpt>
        <trkpt lat="29.5500085" lon="103.3569009"><ele>1691.58</ele><time>2025-11-06T01:47:16.000Z</time></trkpt>
        <trkpt lat="29.5500433" lon="103.3570033"><ele>1695.76</ele><time>2025-11-06T01:48:52.000Z</time></trkpt>
        <trkpt lat="29.5499483" lon="103.35698"><ele>1698.02</ele><time>2025-11-06T01:49:26.000Z</time></trkpt>
        <trkpt lat="29.5498519" lon="103.3569186"><ele>1702.05</ele><time>2025-11-06T01:49:36.000Z</time></trkpt>
        <trkpt lat="29.5499109" lon="103.3569058"><ele>1704.4</ele><time>2025-11-06T01:49:44.000Z</time></trkpt>
        <trkpt lat="29.5499357" lon="103.3568201"><ele>1705.43</ele><time>2025-11-06T01:50:24.000Z</time></trkpt>
        <trkpt lat="29.5498798" lon="103.3568087"><ele>1703.18</ele><time>2025-11-06T01:50:52.000Z</time></trkpt>
        <trkpt lat="29.5499359" lon="103.356846"><ele>1700.13</ele><time>2025-11-06T01:51:22.000Z</time></trkpt>
        <trkpt lat="29.5500321" lon="103.3568826"><ele>1698.18</ele><time>2025-11-06T01:51:30.000Z</time></trkpt>
        <trkpt lat="29.54999" lon="103.3568283"><ele>1696.86</ele><time>2025-11-06T01:52:32.000Z</time></trkpt>
        <trkpt lat="29.5499267" lon="103.3567217"><ele>1697.99</ele><time>2025-11-06T01:53:14.000Z</time></trkpt>
        <trkpt lat="29.5499945" lon="103.3567631"><ele>1698.47</ele><time>2025-11-06T01:53:24.000Z</time></trkpt>
        <trkpt lat="29.5499133" lon="103.3567833"><ele>1697.19</ele><time>2025-11-06T01:55:49.000Z</time></trkpt>
        <trkpt lat="29.5499533" lon="103.3566783"><ele>1690.53</ele><time>2025-11-06T02:01:15.000Z</time></trkpt>
        <trkpt lat="29.54996" lon="103.3567917"><ele>1686.56</ele><time>2025-11-06T02:04:13.000Z</time></trkpt>
        <trkpt lat="29.54997" lon="103.356895"><ele>1684.98</ele><time>2025-11-06T02:14:41.000Z</time></trkpt>
        <trkpt lat="29.54989" lon="103.35695"><ele>1681.98</ele><time>2025-11-06T02:15:05.000Z</time></trkpt>
        <trkpt lat="29.5497959" lon="103.3569035"><ele>1683.92</ele><time>2025-11-06T02:15:19.000Z</time></trkpt>
        <trkpt lat="29.5497019" lon="103.3568647"><ele>1686.88</ele><time>2025-11-06T02:15:29.000Z</time></trkpt>
        <trkpt lat="29.5496492" lon="103.3569306"><ele>1688.78</ele><time>2025-11-06T02:15:51.000Z</time></trkpt>
        <trkpt lat="29.5496628" lon="103.3570329"><ele>1690.04</ele><time>2025-11-06T02:15:59.000Z</time></trkpt>
        <trkpt lat="29.5496163" lon="103.3570892"><ele>1691.7</ele><time>2025-11-06T02:16:19.000Z</time></trkpt>
        <trkpt lat="29.5495806" lon="103.357014"><ele>1694.88</ele><time>2025-11-06T02:16:53.000Z</time></trkpt>
        <trkpt lat="29.5495044" lon="103.3568959"><ele>1696.74</ele><time>2025-11-06T02:17:01.000Z</time></trkpt>
        <trkpt lat="29.5495311" lon="103.3567932"><ele>1698.06</ele><time>2025-11-06T02:17:15.000Z</time></trkpt>
        <trkpt lat="29.549476" lon="103.3566935"><ele>1698.85</ele><time>2025-11-06T02:17:27.000Z</time></trkpt>
        <trkpt lat="29.5494014" lon="103.3566087"><ele>1698.27</ele><time>2025-11-06T02:17:37.000Z</time></trkpt>
        <trkpt lat="29.5494447" lon="103.3565718"><ele>1697.46</ele><time>2025-11-06T02:18:07.000Z</time></trkpt>
        <trkpt lat="29.5494016" lon="103.3564883"><ele>1697.52</ele><time>2025-11-06T02:18:15.000Z</time></trkpt>
        <trkpt lat="29.5493342" lon="103.3564139"><ele>1697.51</ele><time>2025-11-06T02:18:19.000Z</time></trkpt>
        <trkpt lat="29.5493725" lon="103.3563275"><ele>1697.55</ele><time>2025-11-06T02:18:41.000Z</time></trkpt>
        <trkpt lat="29.5493504" lon="103.356371"><ele>1697.74</ele><time>2025-11-06T02:18:49.000Z</time></trkpt>
        <trkpt lat="29.5493956" lon="103.3564475"><ele>1705.77</ele><time>2025-11-06T02:18:53.000Z</time></trkpt>
        <trkpt lat="29.548889" lon="103.3563001"><ele>1706.81</ele><time>2025-11-06T02:19:03.000Z</time></trkpt>
        <trkpt lat="29.5487411" lon="103.3561483"><ele>1704.79</ele><time>2025-11-06T02:19:05.000Z</time></trkpt>
        <trkpt lat="29.548923" lon="103.3561432"><ele>1710.08</ele><time>2025-11-06T02:19:09.000Z</time></trkpt>
        <trkpt lat="29.5491096" lon="103.3562371"><ele>1710.78</ele><time>2025-11-06T02:19:11.000Z</time></trkpt>
        <trkpt lat="29.5492885" lon="103.3563555"><ele>1707.82</ele><time>2025-11-06T02:19:27.000Z</time></trkpt>
        <trkpt lat="29.5493485" lon="103.3563934"><ele>1702.43</ele><time>2025-11-06T02:19:29.000Z</time></trkpt>
        <trkpt lat="29.549415" lon="103.3564867"><ele>1699.19</ele><time>2025-11-06T02:20:43.000Z</time></trkpt>
        <trkpt lat="29.5492533" lon="103.3564467"><ele>1697.52</ele><time>2025-11-06T02:21:09.000Z</time></trkpt>
        <trkpt lat="29.5491368" lon="103.3564447"><ele>1696.56</ele><time>2025-11-06T02:21:13.000Z</time></trkpt>
        <trkpt lat="29.5491247" lon="103.3564354"><ele>1695.29</ele><time>2025-11-06T02:21:15.000Z</time></trkpt>
        <trkpt lat="29.5491581" lon="103.35636"><ele>1693.87</ele><time>2025-11-06T02:21:43.000Z</time></trkpt>
        <trkpt lat="29.5492604" lon="103.3564119"><ele>1694.53</ele><time>2025-11-06T02:22:21.000Z</time></trkpt>
        <trkpt lat="29.5493886" lon="103.3564208"><ele>1696.11</ele><time>2025-11-06T02:22:49.000Z</time></trkpt>
        <trkpt lat="29.5494579" lon="103.3564991"><ele>1697.4</ele><time>2025-11-06T02:23:31.000Z</time></trkpt>
        <trkpt lat="29.5494603" lon="103.3565697"><ele>1695.76</ele><time>2025-11-06T02:23:37.000Z</time></trkpt>
        <trkpt lat="29.5493699" lon="103.3565195"><ele>1694.79</ele><time>2025-11-06T02:23:45.000Z</time></trkpt>
        <trkpt lat="29.5492708" lon="103.3564585"><ele>1694.28</ele><time>2025-11-06T02:23:49.000Z</time></trkpt>
        <trkpt lat="29.5492934" lon="103.356457"><ele>1693.99</ele><time>2025-11-06T02:23:59.000Z</time></trkpt>
        <trkpt lat="29.5493786" lon="103.3564832"><ele>1690.85</ele><time>2025-11-06T02:24:15.000Z</time></trkpt>
        <trkpt lat="29.5494107" lon="103.3565821"><ele>1688.98</ele><time>2025-11-06T02:24:49.000Z</time></trkpt>
        <trkpt lat="29.5493126" lon="103.3565964"><ele>1688.13</ele><time>2025-11-06T02:24:53.000Z</time></trkpt>
        <trkpt lat="29.5492394" lon="103.3566849"><ele>1687.21</ele><time>2025-11-06T02:25:00.000Z</time></trkpt>
        <trkpt lat="29.5493877" lon="103.3567522"><ele>1685.87</ele><time>2025-11-06T02:25:04.000Z</time></trkpt>
        <trkpt lat="29.5494552" lon="103.3568551"><ele>1684.68</ele><time>2025-11-06T02:25:06.000Z</time></trkpt>
        <trkpt lat="29.5495262" lon="103.3570131"><ele>1683.91</ele><time>2025-11-06T02:25:16.000Z</time></trkpt>
        <trkpt lat="29.5496322" lon="103.3570462"><ele>1683.39</ele><time>2025-11-06T02:25:48.000Z</time></trkpt>
        <trkpt lat="29.54972" lon="103.3569695"><ele>1685.42</ele><time>2025-11-06T02:26:22.000Z</time></trkpt>
        <trkpt lat="29.5498176" lon="103.3569236"><ele>1686.61</ele><time>2025-11-06T02:26:28.000Z</time></trkpt>
        <trkpt lat="29.5498896" lon="103.35691"><ele>1687.86</ele><time>2025-11-06T02:26:34.000Z</time></trkpt>
        <trkpt lat="29.5499779" lon="103.3569222"><ele>1688.65</ele><time>2025-11-06T02:26:54.000Z</time></trkpt>
        <trkpt lat="29.549925" lon="103.3568217"><ele>1689.32</ele><time>2025-11-06T02:28:34.000Z</time></trkpt>
        <trkpt lat="29.5499417" lon="103.35694"><ele>1689.52</ele><time>2025-11-06T02:32:10.000Z</time></trkpt>
        <trkpt lat="29.5499467" lon="103.3568367"><ele>1688.01</ele><time>2025-11-06T02:33:42.000Z</time></trkpt>
        <trkpt lat="29.550145" lon="103.35686"><ele>1686.97</ele><time>2025-11-06T02:38:04.000Z</time></trkpt>
        <trkpt lat="29.55004" lon="103.3569017"><ele>1676.14</ele><time>2025-11-06T02:38:08.000Z</time></trkpt>
        <trkpt lat="29.5499717" lon="103.3568122"><ele>1665.24</ele><time>2025-11-06T02:38:54.000Z</time></trkpt>
        <trkpt lat="29.5500483" lon="103.3568533"><ele>1668.28</ele><time>2025-11-06T02:55:46.000Z</time></trkpt>
        <trkpt lat="29.55" lon="103.3566817"><ele>1674.48</ele><time>2025-11-06T03:05:08.000Z</time></trkpt>
        <trkpt lat="29.5500033" lon="103.35656"><ele>1680.43</ele><time>2025-11-06T03:05:40.000Z</time></trkpt>
        <trkpt lat="29.5500447" lon="103.3564609"><ele>1683.77</ele><time>2025-11-06T03:06:08.000Z</time></trkpt>
        <trkpt lat="29.5501122" lon="103.3563568"><ele>1685.33</ele><time>2025-11-06T03:06:22.000Z</time></trkpt>
        <trkpt lat="29.550188" lon="103.3562337"><ele>1685.88</ele><time>2025-11-06T03:06:42.000Z</time></trkpt>
        <trkpt lat="29.5502442" lon="103.3561173"><ele>1686.02</ele><time>2025-11-06T03:06:58.000Z</time></trkpt>
        <trkpt lat="29.5502792" lon="103.355993"><ele>1686.1</ele><time>2025-11-06T03:07:16.000Z</time></trkpt>
        <trkpt lat="29.5503341" lon="103.3558921"><ele>1686.48</ele><time>2025-11-06T03:08:04.000Z</time></trkpt>
        <trkpt lat="29.5504263" lon="103.3558442"><ele>1686.58</ele><time>2025-11-06T03:08:20.000Z</time></trkpt>
        <trkpt lat="29.5505404" lon="103.3558058"><ele>1686.85</ele><time>2025-11-06T03:08:30.000Z</time></trkpt>
        <trkpt lat="29.5506641" lon="103.3557725"><ele>1687.04</ele><time>2025-11-06T03:08:42.000Z</time></trkpt>
        <trkpt lat="29.5507789" lon="103.3557223"><ele>1687.24</ele><time>2025-11-06T03:09:10.000Z</time></trkpt>
        <trkpt lat="29.5508873" lon="103.3556771"><ele>1687.18</ele><time>2025-11-06T03:09:24.000Z</time></trkpt>
        <trkpt lat="29.5509967" lon="103.3556312"><ele>1687.06</ele><time>2025-11-06T03:09:42.000Z</time></trkpt>
        <trkpt lat="29.551104" lon="103.3555887"><ele>1686.86</ele><time>2025-11-06T03:09:56.000Z</time></trkpt>
        <trkpt lat="29.5512206" lon="103.3555385"><ele>1686.53</ele><time>2025-11-06T03:10:16.000Z</time></trkpt>
        <trkpt lat="29.5513119" lon="103.3554828"><ele>1686.61</ele><time>2025-11-06T03:10:48.000Z</time></trkpt>
        <trkpt lat="29.5513798" lon="103.3554003"><ele>1686.86</ele><time>2025-11-06T03:11:16.000Z</time></trkpt>
        <trkpt lat="29.5514252" lon="103.3552998"><ele>1687.09</ele><time>2025-11-06T03:12:00.000Z</time></trkpt>
        <trkpt lat="29.5514768" lon="103.3551956"><ele>1686.88</ele><time>2025-11-06T03:12:18.000Z</time></trkpt>
        <trkpt lat="29.5515392" lon="103.3550832"><ele>1686.67</ele><time>2025-11-06T03:12:30.000Z</time></trkpt>
        <trkpt lat="29.5516151" lon="103.3549779"><ele>1686.47</ele><time>2025-11-06T03:12:42.000Z</time></trkpt>
        <trkpt lat="29.5516783" lon="103.3548636"><ele>1686.01</ele><time>2025-11-06T03:13:08.000Z</time></trkpt>
        <trkpt lat="29.551725" lon="103.3547467"><ele>1685.36</ele><time>2025-11-06T03:14:46.000Z</time></trkpt>
        <trkpt lat="29.5517817" lon="103.3546633"><ele>1684.82</ele><time>2025-11-06T03:15:14.000Z</time></trkpt>
        <trkpt lat="29.5518186" lon="103.3545631"><ele>1684.12</ele><time>2025-11-06T03:15:54.000Z</time></trkpt>
        <trkpt lat="29.5518301" lon="103.3544534"><ele>1683.38</ele><time>2025-11-06T03:16:16.000Z</time></trkpt>
        <trkpt lat="29.5518751" lon="103.3543382"><ele>1682.83</ele><time>2025-11-06T03:16:28.000Z</time></trkpt>
        <trkpt lat="29.551923" lon="103.354234"><ele>1682.34</ele><time>2025-11-06T03:16:50.000Z</time></trkpt>
        <trkpt lat="29.5519362" lon="103.3541208"><ele>1681.94</ele><time>2025-11-06T03:17:18.000Z</time></trkpt>
        <trkpt lat="29.5518898" lon="103.3539891"><ele>1681.62</ele><time>2025-11-06T03:17:56.000Z</time></trkpt>
        <trkpt lat="29.5518808" lon="103.353851"><ele>1680.97</ele><time>2025-11-06T03:18:12.000Z</time></trkpt>
        <trkpt lat="29.5518607" lon="103.3537332"><ele>1680.16</ele><time>2025-11-06T03:19:00.000Z</time></trkpt>
        <trkpt lat="29.5518844" lon="103.353625"><ele>1679.06</ele><time>2025-11-06T03:19:12.000Z</time></trkpt>
        <trkpt lat="29.5519722" lon="103.353541"><ele>1679.16</ele><time>2025-11-06T03:19:26.000Z</time></trkpt>
        <trkpt lat="29.5520327" lon="103.3534412"><ele>1680.25</ele><time>2025-11-06T03:19:52.000Z</time></trkpt>
        <trkpt lat="29.55206" lon="103.3533333"><ele>1681.61</ele><time>2025-11-06T03:21:00.000Z</time></trkpt>
        <trkpt lat="29.5521633" lon="103.3533233"><ele>1682.42</ele><time>2025-11-06T03:21:54.000Z</time></trkpt>
        <trkpt lat="29.5522709" lon="103.3533077"><ele>1684.26</ele><time>2025-11-06T03:22:32.000Z</time></trkpt>
        <trkpt lat="29.55235" lon="103.3532183"><ele>1684.88</ele><time>2025-11-06T03:23:36.000Z</time></trkpt>
        <trkpt lat="29.552385" lon="103.3531117"><ele>1684.72</ele><time>2025-11-06T03:24:30.000Z</time></trkpt>
        <trkpt lat="29.5524167" lon="103.3529717"><ele>1684.02</ele><time>2025-11-06T03:25:40.000Z</time></trkpt>
        <trkpt lat="29.55249" lon="103.3528567"><ele>1682.68</ele><time>2025-11-06T03:25:50.000Z</time></trkpt>
        <trkpt lat="29.5526099" lon="103.3528347"><ele>1681.44</ele><time>2025-11-06T03:26:14.000Z</time></trkpt>
        <trkpt lat="29.5526968" lon="103.3528898"><ele>1679.19</ele><time>2025-11-06T03:26:56.000Z</time></trkpt>
        <trkpt lat="29.5527762" lon="103.3529605"><ele>1677.39</ele><time>2025-11-06T03:27:42.000Z</time></trkpt>
        <trkpt lat="29.5528733" lon="103.3529909"><ele>1676.02</ele><time>2025-11-06T03:28:08.000Z</time></trkpt>
        <trkpt lat="29.5529437" lon="103.3530901"><ele>1674.72</ele><time>2025-11-06T03:28:44.000Z</time></trkpt>
        <trkpt lat="29.5530226" lon="103.353158"><ele>1672.52</ele><time>2025-11-06T03:29:12.000Z</time></trkpt>
        <trkpt lat="29.5531208" lon="103.3531769"><ele>1669.63</ele><time>2025-11-06T03:29:28.000Z</time></trkpt>
        <trkpt lat="29.5532424" lon="103.3531737"><ele>1666.82</ele><time>2025-11-06T03:29:42.000Z</time></trkpt>
        <trkpt lat="29.5533529" lon="103.3531374"><ele>1663.84</ele><time>2025-11-06T03:29:56.000Z</time></trkpt>
        <trkpt lat="29.553465" lon="103.3530578"><ele>1661.11</ele><time>2025-11-06T03:30:16.000Z</time></trkpt>
        <trkpt lat="29.5535661" lon="103.3529893"><ele>1658.48</ele><time>2025-11-06T03:30:40.000Z</time></trkpt>
        <trkpt lat="29.5536654" lon="103.3529402"><ele>1656.13</ele><time>2025-11-06T03:30:56.000Z</time></trkpt>
        <trkpt lat="29.5537081" lon="103.3529323"><ele>1655.17</ele><time>2025-11-06T03:30:58.000Z</time></trkpt>
        <trkpt lat="29.5537919" lon="103.3529491"><ele>1654.62</ele><time>2025-11-06T03:31:18.000Z</time></trkpt>
        <trkpt lat="29.5539278" lon="103.3529201"><ele>1654.78</ele><time>2025-11-06T03:31:54.000Z</time></trkpt>
        <trkpt lat="29.5540459" lon="103.3529318"><ele>1650.32</ele><time>2025-11-06T03:32:24.000Z</time></trkpt>
        <trkpt lat="29.5541606" lon="103.3529131"><ele>1647.17</ele><time>2025-11-06T03:32:40.000Z</time></trkpt>
        <trkpt lat="29.5542646" lon="103.3529243"><ele>1644.69</ele><time>2025-11-06T03:33:02.000Z</time></trkpt>
        <trkpt lat="29.5543683" lon="103.3529147"><ele>1642.46</ele><time>2025-11-06T03:33:32.000Z</time></trkpt>
        <trkpt lat="29.5544361" lon="103.3529876"><ele>1640.8</ele><time>2025-11-06T03:33:56.000Z</time></trkpt>
        <trkpt lat="29.5544647" lon="103.35311"><ele>1639.16</ele><time>2025-11-06T03:34:18.000Z</time></trkpt>
        <trkpt lat="29.5544386" lon="103.3532311"><ele>1636.77</ele><time>2025-11-06T03:34:40.000Z</time></trkpt>
        <trkpt lat="29.5544796" lon="103.3533081"><ele>1633.77</ele><time>2025-11-06T03:35:34.000Z</time></trkpt>
        <trkpt lat="29.5544885" lon="103.3534051"><ele>1631.5</ele><time>2025-11-06T03:36:00.000Z</time></trkpt>
        <trkpt lat="29.5545209" lon="103.3535143"><ele>1629.01</ele><time>2025-11-06T03:36:38.000Z</time></trkpt>
        <trkpt lat="29.554588" lon="103.3536311"><ele>1628.27</ele><time>2025-11-06T03:36:56.000Z</time></trkpt>
        <trkpt lat="29.5546734" lon="103.3537172"><ele>1627.04</ele><time>2025-11-06T03:37:12.000Z</time></trkpt>
        <trkpt lat="29.5547907" lon="103.3537649"><ele>1625.04</ele><time>2025-11-06T03:37:30.000Z</time></trkpt>
        <trkpt lat="29.554905" lon="103.3537333"><ele>1621.07</ele><time>2025-11-06T03:37:50.000Z</time></trkpt>
        <trkpt lat="29.55501" lon="103.3536333"><ele>1616.05</ele><time>2025-11-06T03:39:12.000Z</time></trkpt>
        <trkpt lat="29.5550867" lon="103.3535483"><ele>1612.67</ele><time>2025-11-06T03:39:28.000Z</time></trkpt>
        <trkpt lat="29.555176" lon="103.353469"><ele>1610.32</ele><time>2025-11-06T03:39:56.000Z</time></trkpt>
        <trkpt lat="29.5552792" lon="103.3534356"><ele>1608.85</ele><time>2025-11-06T03:40:24.000Z</time></trkpt>
        <trkpt lat="29.555388" lon="103.3534192"><ele>1608.05</ele><time>2025-11-06T03:40:46.000Z</time></trkpt>
        <trkpt lat="29.5554971" lon="103.3534062"><ele>1607.34</ele><time>2025-11-06T03:41:18.000Z</time></trkpt>
        <trkpt lat="29.5556091" lon="103.3533961"><ele>1607.19</ele><time>2025-11-06T03:41:36.000Z</time></trkpt>
        <trkpt lat="29.5557293" lon="103.3534306"><ele>1606.98</ele><time>2025-11-06T03:41:50.000Z</time></trkpt>
        <trkpt lat="29.555847" lon="103.353478"><ele>1606.34</ele><time>2025-11-06T03:42:12.000Z</time></trkpt>
        <trkpt lat="29.5559419" lon="103.3535459"><ele>1605.16</ele><time>2025-11-06T03:42:26.000Z</time></trkpt>
        <trkpt lat="29.5560457" lon="103.3535878"><ele>1603.59</ele><time>2025-11-06T03:42:46.000Z</time></trkpt>
        <trkpt lat="29.5561451" lon="103.3536091"><ele>1601.96</ele><time>2025-11-06T03:43:00.000Z</time></trkpt>
        <trkpt lat="29.5562606" lon="103.3535517"><ele>1600.77</ele><time>2025-11-06T03:43:36.000Z</time></trkpt>
        <trkpt lat="29.556366" lon="103.353488"><ele>1599.75</ele><time>2025-11-06T03:43:44.000Z</time></trkpt>
        <trkpt lat="29.556447" lon="103.3533969"><ele>1599.13</ele><time>2025-11-06T03:43:54.000Z</time></trkpt>
        <trkpt lat="29.5565066" lon="103.3532688"><ele>1598.56</ele><time>2025-11-06T03:44:10.000Z</time></trkpt>
        <trkpt lat="29.5565687" lon="103.3531578"><ele>1597.41</ele><time>2025-11-06T03:44:34.000Z</time></trkpt>
        <trkpt lat="29.5566486" lon="103.3530604"><ele>1595.86</ele><time>2025-11-06T03:44:52.000Z</time></trkpt>
        <trkpt lat="29.5567409" lon="103.3529803"><ele>1594.63</ele><time>2025-11-06T03:45:10.000Z</time></trkpt>
        <trkpt lat="29.5568335" lon="103.3529238"><ele>1593.07</ele><time>2025-11-06T03:45:44.000Z</time></trkpt>
        <trkpt lat="29.5569002" lon="103.3528373"><ele>1591.79</ele><time>2025-11-06T03:46:02.000Z</time></trkpt>
        <trkpt lat="29.5569645" lon="103.3527255"><ele>1589.73</ele><time>2025-11-06T03:46:22.000Z</time></trkpt>
        <trkpt lat="29.5570202" lon="103.3526189"><ele>1586.79</ele><time>2025-11-06T03:46:54.000Z</time></trkpt>
        <trkpt lat="29.5571124" lon="103.3525409"><ele>1584.43</ele><time>2025-11-06T03:47:16.000Z</time></trkpt>
        <trkpt lat="29.5571999" lon="103.352469"><ele>1582.78</ele><time>2025-11-06T03:47:48.000Z</time></trkpt>
        <trkpt lat="29.557293" lon="103.3524069"><ele>1581.5</ele><time>2025-11-06T03:48:10.000Z</time></trkpt>
        <trkpt lat="29.5573863" lon="103.3523474"><ele>1580.6</ele><time>2025-11-06T03:48:28.000Z</time></trkpt>
        <trkpt lat="29.5574415" lon="103.3522465"><ele>1579.91</ele><time>2025-11-06T03:49:14.000Z</time></trkpt>
        <trkpt lat="29.5575201" lon="103.3521722"><ele>1576.72</ele><time>2025-11-06T03:49:32.000Z</time></trkpt>
        <trkpt lat="29.5575765" lon="103.3520746"><ele>1575.16</ele><time>2025-11-06T03:50:18.000Z</time></trkpt>
        <trkpt lat="29.5575719" lon="103.3519655"><ele>1574.53</ele><time>2025-11-06T03:51:10.000Z</time></trkpt>
        <trkpt lat="29.557535" lon="103.3518517"><ele>1574</ele><time>2025-11-06T03:52:22.000Z</time></trkpt>
        <trkpt lat="29.55761" lon="103.3517183"><ele>1573.61</ele><time>2025-11-06T03:52:34.000Z</time></trkpt>
        <trkpt lat="29.5577118" lon="103.3516597"><ele>1572.92</ele><time>2025-11-06T03:52:54.000Z</time></trkpt>
        <trkpt lat="29.5578183" lon="103.3516234"><ele>1571.97</ele><time>2025-11-06T03:53:08.000Z</time></trkpt>
        <trkpt lat="29.557934" lon="103.3516069"><ele>1571.25</ele><time>2025-11-06T03:53:26.000Z</time></trkpt>
        <trkpt lat="29.55805" lon="103.3516109"><ele>1570.58</ele><time>2025-11-06T03:53:54.000Z</time></trkpt>
        <trkpt lat="29.5581689" lon="103.3515899"><ele>1569.73</ele><time>2025-11-06T03:54:16.000Z</time></trkpt>
        <trkpt lat="29.5582658" lon="103.3515484"><ele>1568.17</ele><time>2025-11-06T03:54:56.000Z</time></trkpt>
        <trkpt lat="29.558353" lon="103.3515057"><ele>1566.93</ele><time>2025-11-06T03:55:36.000Z</time></trkpt>
        <trkpt lat="29.558435" lon="103.3514323"><ele>1566.4</ele><time>2025-11-06T03:55:54.000Z</time></trkpt>
        <trkpt lat="29.5585276" lon="103.3513521"><ele>1565.63</ele><time>2025-11-06T03:56:24.000Z</time></trkpt>
        <trkpt lat="29.5586272" lon="103.3512827"><ele>1564.76</ele><time>2025-11-06T03:56:52.000Z</time></trkpt>
        <trkpt lat="29.5587482" lon="103.3512213"><ele>1563.91</ele><time>2025-11-06T03:57:04.000Z</time></trkpt>
        <trkpt lat="29.5588539" lon="103.3511491"><ele>1563.09</ele><time>2025-11-06T03:57:28.000Z</time></trkpt>
        <trkpt lat="29.5589626" lon="103.3510602"><ele>1562.11</ele><time>2025-11-06T03:57:40.000Z</time></trkpt>
        <trkpt lat="29.559065" lon="103.350973"><ele>1561.24</ele><time>2025-11-06T03:57:58.000Z</time></trkpt>
        <trkpt lat="29.5591713" lon="103.3509165"><ele>1560.02</ele><time>2025-11-06T03:58:18.000Z</time></trkpt>
        <trkpt lat="29.5592742" lon="103.3508679"><ele>1559.32</ele><time>2025-11-06T03:58:30.000Z</time></trkpt>
        <trkpt lat="29.5593784" lon="103.3508069"><ele>1558.84</ele><time>2025-11-06T03:59:00.000Z</time></trkpt>
        <trkpt lat="29.5594418" lon="103.3507203"><ele>1557.53</ele><time>2025-11-06T03:59:28.000Z</time></trkpt>
        <trkpt lat="29.5595292" lon="103.3506594"><ele>1556.44</ele><time>2025-11-06T03:59:40.000Z</time></trkpt>
        <trkpt lat="29.5595938" lon="103.3505643"><ele>1555.56</ele><time>2025-11-06T04:00:28.000Z</time></trkpt>
        <trkpt lat="29.559665" lon="103.3504835"><ele>1554.63</ele><time>2025-11-06T04:01:02.000Z</time></trkpt>
        <trkpt lat="29.5597585" lon="103.3504208"><ele>1553.8</ele><time>2025-11-06T04:01:52.000Z</time></trkpt>
        <trkpt lat="29.5598579" lon="103.3504048"><ele>1552.85</ele><time>2025-11-06T04:02:30.000Z</time></trkpt>
        <trkpt lat="29.5599584" lon="103.3503798"><ele>1552.06</ele><time>2025-11-06T04:03:02.000Z</time></trkpt>
        <trkpt lat="29.5600422" lon="103.3504248"><ele>1551.39</ele><time>2025-11-06T04:03:44.000Z</time></trkpt>
        <trkpt lat="29.5601293" lon="103.3504906"><ele>1551.09</ele><time>2025-11-06T04:04:24.000Z</time></trkpt>
        <trkpt lat="29.5601783" lon="103.350605"><ele>1550.97</ele><time>2025-11-06T04:06:10.000Z</time></trkpt>
        <trkpt lat="29.5602533" lon="103.3506883"><ele>1551.67</ele><time>2025-11-06T04:06:44.000Z</time></trkpt>
        <trkpt lat="29.5602" lon="103.350785"><ele>1552.59</ele><time>2025-11-06T04:08:02.000Z</time></trkpt>
        <trkpt lat="29.56025" lon="103.3508833"><ele>1552.25</ele><time>2025-11-06T04:08:52.000Z</time></trkpt>
        <trkpt lat="29.5602767" lon="103.3510067"><ele>1551.93</ele><time>2025-11-06T04:09:56.000Z</time></trkpt>
        <trkpt lat="29.56035" lon="103.3510783"><ele>1550.84</ele><time>2025-11-06T04:10:32.000Z</time></trkpt>
        <trkpt lat="29.560445" lon="103.3511033"><ele>1550.31</ele><time>2025-11-06T04:11:34.000Z</time></trkpt>
        <trkpt lat="29.56055" lon="103.3511467"><ele>1550.69</ele><time>2025-11-06T04:12:28.000Z</time></trkpt>
        <trkpt lat="29.5606383" lon="103.3512017"><ele>1552.16</ele><time>2025-11-06T04:15:14.000Z</time></trkpt>
        <trkpt lat="29.5606017" lon="103.3512967"><ele>1555.88</ele><time>2025-11-06T04:18:42.000Z</time></trkpt>
        <trkpt lat="29.5606433" lon="103.3513917"><ele>1560.92</ele><time>2025-11-06T04:19:06.000Z</time></trkpt>
        <trkpt lat="29.56059" lon="103.3515017"><ele>1564.83</ele><time>2025-11-06T04:22:44.000Z</time></trkpt>
        <trkpt lat="29.5605683" lon="103.3516067"><ele>1572.94</ele><time>2025-11-06T04:23:58.000Z</time></trkpt>
        <trkpt lat="29.5606617" lon="103.3516083"><ele>1579.08</ele><time>2025-11-06T04:26:02.000Z</time></trkpt>
        <trkpt lat="29.5607533" lon="103.3516083"><ele>1585.75</ele><time>2025-11-06T04:27:04.000Z</time></trkpt>
        <trkpt lat="29.5608517" lon="103.3516"><ele>1593</ele><time>2025-11-06T04:27:44.000Z</time></trkpt>
        <trkpt lat="29.5607817" lon="103.3515233"><ele>1597.99</ele><time>2025-11-06T04:32:12.000Z</time></trkpt>
        <trkpt lat="29.5607167" lon="103.3514467"><ele>1607.07</ele><time>2025-11-06T04:37:04.000Z</time></trkpt>
        <trkpt lat="29.560805" lon="103.3515033"><ele>1616.8</ele><time>2025-11-06T04:37:22.000Z</time></trkpt>
        <trkpt lat="29.5608817" lon="103.3515717"><ele>1622.18</ele><time>2025-11-06T04:38:32.000Z</time></trkpt>
        <trkpt lat="29.5610083" lon="103.3515717"><ele>1625.54</ele><time>2025-11-06T04:38:50.000Z</time></trkpt>
        <trkpt lat="29.5611195" lon="103.3515773"><ele>1627.85</ele><time>2025-11-06T04:39:18.000Z</time></trkpt>
        <trkpt lat="29.561205" lon="103.3516233"><ele>1629.72</ele><time>2025-11-06T04:40:24.000Z</time></trkpt>
        <trkpt lat="29.561315" lon="103.3516483"><ele>1631.13</ele><time>2025-11-06T04:41:16.000Z</time></trkpt>
        <trkpt lat="29.5614038" lon="103.3517241"><ele>1632.19</ele><time>2025-11-06T04:41:34.000Z</time></trkpt>
        <trkpt lat="29.5614567" lon="103.3518517"><ele>1633.01</ele><time>2025-11-06T04:43:10.000Z</time></trkpt>
        <trkpt lat="29.5615133" lon="103.3519467"><ele>1634.04</ele><time>2025-11-06T04:44:14.000Z</time></trkpt>
        <trkpt lat="29.561595" lon="103.3520067"><ele>1635.1</ele><time>2025-11-06T04:46:10.000Z</time></trkpt>
        <trkpt lat="29.561635" lon="103.3521067"><ele>1636.48</ele><time>2025-11-06T04:48:04.000Z</time></trkpt>
        <trkpt lat="29.561695" lon="103.3521967"><ele>1637.52</ele><time>2025-11-06T04:49:24.000Z</time></trkpt>
        <trkpt lat="29.5617883" lon="103.3522283"><ele>1638.46</ele><time>2025-11-06T04:50:50.000Z</time></trkpt>
        <trkpt lat="29.5618833" lon="103.352265"><ele>1639.29</ele><time>2025-11-06T04:51:44.000Z</time></trkpt>
        <trkpt lat="29.5619812" lon="103.3522833"><ele>1640.11</ele><time>2025-11-06T04:52:18.000Z</time></trkpt>
        <trkpt lat="29.5620767" lon="103.3523033"><ele>1641.18</ele><time>2025-11-06T04:53:38.000Z</time></trkpt>
        <trkpt lat="29.5621733" lon="103.3522983"><ele>1642.01</ele><time>2025-11-06T04:54:50.000Z</time></trkpt>
        <trkpt lat="29.5622633" lon="103.35229"><ele>1642.61</ele><time>2025-11-06T04:55:34.000Z</time></trkpt>
        <trkpt lat="29.5623517" lon="103.3523133"><ele>1643.03</ele><time>2025-11-06T04:57:00.000Z</time></trkpt>
        <trkpt lat="29.5624517" lon="103.3522933"><ele>1643.36</ele><time>2025-11-06T04:59:02.000Z</time></trkpt>
        <trkpt lat="29.5625067" lon="103.3522067"><ele>1643.77</ele><time>2025-11-06T05:00:08.000Z</time></trkpt>
        <trkpt lat="29.562515" lon="103.352075"><ele>1643.95</ele><time>2025-11-06T05:00:46.000Z</time></trkpt>
        <trkpt lat="29.562529" lon="103.3519546"><ele>1644.06</ele><time>2025-11-06T05:01:34.000Z</time></trkpt>
        <trkpt lat="29.5625417" lon="103.351845"><ele>1643.99</ele><time>2025-11-06T05:03:10.000Z</time></trkpt>
        <trkpt lat="29.56259" lon="103.3517517"><ele>1644.17</ele><time>2025-11-06T05:03:48.000Z</time></trkpt>
        <trkpt lat="29.562644" lon="103.3516597"><ele>1644.44</ele><time>2025-11-06T05:04:08.000Z</time></trkpt>
        <trkpt lat="29.562705" lon="103.35157"><ele>1644.38</ele><time>2025-11-06T05:05:08.000Z</time></trkpt>
        <trkpt lat="29.5627367" lon="103.3514667"><ele>1644.43</ele><time>2025-11-06T05:06:04.000Z</time></trkpt>
        <trkpt lat="29.5627556" lon="103.3513535"><ele>1644.5</ele><time>2025-11-06T05:06:40.000Z</time></trkpt>
        <trkpt lat="29.56279" lon="103.3512483"><ele>1644.42</ele><time>2025-11-06T05:08:30.000Z</time></trkpt>
        <trkpt lat="29.5628583" lon="103.351155"><ele>1644.37</ele><time>2025-11-06T05:10:32.000Z</time></trkpt>
        <trkpt lat="29.5629133" lon="103.35104"><ele>1645.5</ele><time>2025-11-06T05:12:46.000Z</time></trkpt>
        <trkpt lat="29.562975" lon="103.3509467"><ele>1648.25</ele><time>2025-11-06T05:14:52.000Z</time></trkpt>
        <trkpt lat="29.5629517" lon="103.3508167"><ele>1650.85</ele><time>2025-11-06T05:15:16.000Z</time></trkpt>
        <trkpt lat="29.5629241" lon="103.3506951"><ele>1652.98</ele><time>2025-11-06T05:15:52.000Z</time></trkpt>
        <trkpt lat="29.5628623" lon="103.3505944"><ele>1655.1</ele><time>2025-11-06T05:16:12.000Z</time></trkpt>
        <trkpt lat="29.5627886" lon="103.3505265"><ele>1656.65</ele><time>2025-11-06T05:16:28.000Z</time></trkpt>
        <trkpt lat="29.5627629" lon="103.350431"><ele>1657.36</ele><time>2025-11-06T05:17:08.000Z</time></trkpt>
        <trkpt lat="29.5627902" lon="103.3503255"><ele>1657.59</ele><time>2025-11-06T05:17:34.000Z</time></trkpt>
        <trkpt lat="29.5628465" lon="103.3501602"><ele>1657.94</ele><time>2025-11-06T05:18:04.000Z</time></trkpt>
        <trkpt lat="29.5629033" lon="103.3500275"><ele>1658.27</ele><time>2025-11-06T05:18:38.000Z</time></trkpt>
        <trkpt lat="29.5629478" lon="103.349894"><ele>1658.28</ele><time>2025-11-06T05:18:46.000Z</time></trkpt>
        <trkpt lat="29.5629572" lon="103.3497792"><ele>1658.07</ele><time>2025-11-06T05:18:52.000Z</time></trkpt>
        <trkpt lat="29.5629558" lon="103.3497389"><ele>1657.66</ele><time>2025-11-06T05:18:54.000Z</time></trkpt>
        <trkpt lat="29.5629497" lon="103.3496498"><ele>1657.37</ele><time>2025-11-06T05:19:14.000Z</time></trkpt>
        <trkpt lat="29.562951" lon="103.3495294"><ele>1657</ele><time>2025-11-06T05:19:34.000Z</time></trkpt>
        <trkpt lat="29.5629484" lon="103.3494079"><ele>1656.78</ele><time>2025-11-06T05:20:04.000Z</time></trkpt>
        <trkpt lat="29.5629484" lon="103.3492879"><ele>1655.93</ele><time>2025-11-06T05:20:18.000Z</time></trkpt>
        <trkpt lat="29.5629672" lon="103.349123"><ele>1654.88</ele><time>2025-11-06T05:20:40.000Z</time></trkpt>
        <trkpt lat="29.5630041" lon="103.3489773"><ele>1653.73</ele><time>2025-11-06T05:20:54.000Z</time></trkpt>
        <trkpt lat="29.5630416" lon="103.3488539"><ele>1652.9</ele><time>2025-11-06T05:21:24.000Z</time></trkpt>
        <trkpt lat="29.5631078" lon="103.3487439"><ele>1652.51</ele><time>2025-11-06T05:21:36.000Z</time></trkpt>
        <trkpt lat="29.5632024" lon="103.3486379"><ele>1651.99</ele><time>2025-11-06T05:21:54.000Z</time></trkpt>
        <trkpt lat="29.5632829" lon="103.3485371"><ele>1651.35</ele><time>2025-11-06T05:22:12.000Z</time></trkpt>
        <trkpt lat="29.5633118" lon="103.3484222"><ele>1649.99</ele><time>2025-11-06T05:22:36.000Z</time></trkpt>
        <trkpt lat="29.5633662" lon="103.3483027"><ele>1648.88</ele><time>2025-11-06T05:22:46.000Z</time></trkpt>
        <trkpt lat="29.5634225" lon="103.3481618"><ele>1648.33</ele><time>2025-11-06T05:22:56.000Z</time></trkpt>
        <trkpt lat="29.5634355" lon="103.3480261"><ele>1648.14</ele><time>2025-11-06T05:23:14.000Z</time></trkpt>
        <trkpt lat="29.5634076" lon="103.3478925"><ele>1648.34</ele><time>2025-11-06T05:23:30.000Z</time></trkpt>
        <trkpt lat="29.5633594" lon="103.347755"><ele>1649.14</ele><time>2025-11-06T05:23:42.000Z</time></trkpt>
        <trkpt lat="29.5633061" lon="103.3476226"><ele>1650.16</ele><time>2025-11-06T05:23:54.000Z</time></trkpt>
        <trkpt lat="29.5632514" lon="103.3474672"><ele>1651.55</ele><time>2025-11-06T05:24:00.000Z</time></trkpt>
        <trkpt lat="29.563193" lon="103.3473484"><ele>1653.08</ele><time>2025-11-06T05:24:32.000Z</time></trkpt>
        <trkpt lat="29.5631204" lon="103.3472366"><ele>1654.25</ele><time>2025-11-06T05:25:06.000Z</time></trkpt>
        <trkpt lat="29.5630298" lon="103.3471598"><ele>1655.48</ele><time>2025-11-06T05:25:18.000Z</time></trkpt>
        <trkpt lat="29.5629474" lon="103.3470497"><ele>1656.56</ele><time>2025-11-06T05:25:34.000Z</time></trkpt>
        <trkpt lat="29.5629161" lon="103.3469235"><ele>1657.74</ele><time>2025-11-06T05:25:54.000Z</time></trkpt>
        <trkpt lat="29.5628324" lon="103.3468848"><ele>1659.74</ele><time>2025-11-06T05:26:08.000Z</time></trkpt>
        <trkpt lat="29.5627257" lon="103.3468715"><ele>1661.7</ele><time>2025-11-06T05:26:28.000Z</time></trkpt>
        <trkpt lat="29.5626322" lon="103.3468308"><ele>1663.25</ele><time>2025-11-06T05:26:50.000Z</time></trkpt>
        <trkpt lat="29.5625468" lon="103.3467515"><ele>1664.09</ele><time>2025-11-06T05:27:06.000Z</time></trkpt>
        <trkpt lat="29.562446" lon="103.3466688"><ele>1664.7</ele><time>2025-11-06T05:27:16.000Z</time></trkpt>
        <trkpt lat="29.5623255" lon="103.3465568"><ele>1665.04</ele><time>2025-11-06T05:27:30.000Z</time></trkpt>
        <trkpt lat="29.5622348" lon="103.3464453"><ele>1665.02</ele><time>2025-11-06T05:27:56.000Z</time></trkpt>
        <trkpt lat="29.5622078" lon="103.3463287"><ele>1665.1</ele><time>2025-11-06T05:28:10.000Z</time></trkpt>
        <trkpt lat="29.5622033" lon="103.3461751"><ele>1665.62</ele><time>2025-11-06T05:28:24.000Z</time></trkpt>
        <trkpt lat="29.5621716" lon="103.346054"><ele>1666.73</ele><time>2025-11-06T05:28:42.000Z</time></trkpt>
        <trkpt lat="29.5620604" lon="103.3460361"><ele>1668.26</ele><time>2025-11-06T05:28:54.000Z</time></trkpt>
        <trkpt lat="29.5619086" lon="103.3459928"><ele>1670.22</ele><time>2025-11-06T05:29:08.000Z</time></trkpt>
        <trkpt lat="29.5618038" lon="103.3459244"><ele>1672.88</ele><time>2025-11-06T05:29:22.000Z</time></trkpt>
        <trkpt lat="29.561708" lon="103.3457825"><ele>1674.78</ele><time>2025-11-06T05:29:34.000Z</time></trkpt>
        <trkpt lat="29.5616504" lon="103.3456554"><ele>1676.38</ele><time>2025-11-06T05:30:20.000Z</time></trkpt>
        <trkpt lat="29.5615761" lon="103.3455707"><ele>1676.78</ele><time>2025-11-06T05:30:42.000Z</time></trkpt>
        <trkpt lat="29.5615159" lon="103.3454777"><ele>1677.69</ele><time>2025-11-06T05:31:20.000Z</time></trkpt>
        <trkpt lat="29.5614167" lon="103.34545"><ele>1678.38</ele><time>2025-11-06T05:32:58.000Z</time></trkpt>
        <trkpt lat="29.5613533" lon="103.3453683"><ele>1679.21</ele><time>2025-11-06T05:34:16.000Z</time></trkpt>
        <trkpt lat="29.5612433" lon="103.345375"><ele>1679.68</ele><time>2025-11-06T05:36:56.000Z</time></trkpt>
        <trkpt lat="29.5611517" lon="103.3453317"><ele>1680.16</ele><time>2025-11-06T05:38:00.000Z</time></trkpt>
        <trkpt lat="29.5610983" lon="103.3452367"><ele>1680.69</ele><time>2025-11-06T05:39:32.000Z</time></trkpt>
        <trkpt lat="29.5610717" lon="103.3451117"><ele>1682.29</ele><time>2025-11-06T05:40:38.000Z</time></trkpt>
        <trkpt lat="29.5609717" lon="103.3450667"><ele>1683.88</ele><time>2025-11-06T05:41:20.000Z</time></trkpt>
        <trkpt lat="29.5609267" lon="103.344965"><ele>1684.97</ele><time>2025-11-06T05:42:54.000Z</time></trkpt>
        <trkpt lat="29.56086" lon="103.3448917"><ele>1685.71</ele><time>2025-11-06T05:44:54.000Z</time></trkpt>
        <trkpt lat="29.5607633" lon="103.3447217"><ele>1685.97</ele><time>2025-11-06T05:48:12.000Z</time></trkpt>
        <trkpt lat="29.560685" lon="103.3446667"><ele>1687.4</ele><time>2025-11-06T05:49:36.000Z</time></trkpt>
        <trkpt lat="29.56059" lon="103.3446183"><ele>1688.78</ele><time>2025-11-06T05:50:50.000Z</time></trkpt>
        <trkpt lat="29.5605067" lon="103.3445683"><ele>1689.47</ele><time>2025-11-06T05:52:06.000Z</time></trkpt>
        <trkpt lat="29.5604433" lon="103.34449"><ele>1690.35</ele><time>2025-11-06T05:53:26.000Z</time></trkpt>
        <trkpt lat="29.5603567" lon="103.3444017"><ele>1691.32</ele><time>2025-11-06T05:53:54.000Z</time></trkpt>
        <trkpt lat="29.5602672" lon="103.3443035"><ele>1692.51</ele><time>2025-11-06T05:54:02.000Z</time></trkpt>
        <trkpt lat="29.5601862" lon="103.3441816"><ele>1693.76</ele><time>2025-11-06T05:54:52.000Z</time></trkpt>
        <trkpt lat="29.5601154" lon="103.3440662"><ele>1695.06</ele><time>2025-11-06T05:55:16.000Z</time></trkpt>
        <trkpt lat="29.5600933" lon="103.3439617"><ele>1696.07</ele><time>2025-11-06T05:56:30.000Z</time></trkpt>
        <trkpt lat="29.5600967" lon="103.3438567"><ele>1697.72</ele><time>2025-11-06T05:57:52.000Z</time></trkpt>
        <trkpt lat="29.56011" lon="103.3437483"><ele>1700.25</ele><time>2025-11-06T06:02:26.000Z</time></trkpt>
        <trkpt lat="29.5602017" lon="103.3437533"><ele>1704.18</ele><time>2025-11-06T06:04:08.000Z</time></trkpt>
        <trkpt lat="29.5601633" lon="103.3436483"><ele>1706.99</ele><time>2025-11-06T06:04:40.000Z</time></trkpt>
        <trkpt lat="29.5600799" lon="103.3436251"><ele>1708.97</ele><time>2025-11-06T06:05:12.000Z</time></trkpt>
        <trkpt lat="29.5599961" lon="103.3435431"><ele>1710.23</ele><time>2025-11-06T06:05:22.000Z</time></trkpt>
        <trkpt lat="29.5599459" lon="103.3434995"><ele>1710.86</ele><time>2025-11-06T06:05:24.000Z</time></trkpt>
        <trkpt lat="29.5598972" lon="103.3434003"><ele>1711.22</ele><time>2025-11-06T06:05:30.000Z</time></trkpt>
        <trkpt lat="29.5598315" lon="103.3430955"><ele>1711.39</ele><time>2025-11-06T06:05:38.000Z</time></trkpt>
        <trkpt lat="29.5598153" lon="103.3428991"><ele>1711.74</ele><time>2025-11-06T06:05:44.000Z</time></trkpt>
        <trkpt lat="29.559814" lon="103.3427474"><ele>1712.15</ele><time>2025-11-06T06:05:48.000Z</time></trkpt>
        <trkpt lat="29.5598281" lon="103.3427166"><ele>1712.64</ele><time>2025-11-06T06:05:52.000Z</time></trkpt>
        <trkpt lat="29.5597958" lon="103.3426403"><ele>1713.01</ele><time>2025-11-06T06:06:02.000Z</time></trkpt>
        <trkpt lat="29.5597206" lon="103.3426573"><ele>1713.78</ele><time>2025-11-06T06:06:20.000Z</time></trkpt>
        <trkpt lat="29.5596915" lon="103.3425227"><ele>1715.12</ele><time>2025-11-06T06:06:26.000Z</time></trkpt>
        <trkpt lat="29.5596648" lon="103.3423906"><ele>1716.15</ele><time>2025-11-06T06:06:30.000Z</time></trkpt>
        <trkpt lat="29.5596319" lon="103.3425213"><ele>1717.42</ele><time>2025-11-06T06:06:34.000Z</time></trkpt>
        <trkpt lat="29.5596223" lon="103.3427644"><ele>1718.57</ele><time>2025-11-06T06:06:38.000Z</time></trkpt>
        <trkpt lat="29.5596127" lon="103.3430267"><ele>1719.49</ele><time>2025-11-06T06:06:40.000Z</time></trkpt>
        <trkpt lat="29.5596142" lon="103.3432455"><ele>1720.18</ele><time>2025-11-06T06:06:44.000Z</time></trkpt>
        <trkpt lat="29.5596166" lon="103.3433877"><ele>1720.83</ele><time>2025-11-06T06:06:54.000Z</time></trkpt>
        <trkpt lat="29.559542" lon="103.3430543"><ele>1721.64</ele><time>2025-11-06T06:06:58.000Z</time></trkpt>
        <trkpt lat="29.5595076" lon="103.3428159"><ele>1722.83</ele><time>2025-11-06T06:07:04.000Z</time></trkpt>
        <trkpt lat="29.5595143" lon="103.3426149"><ele>1724.28</ele><time>2025-11-06T06:07:06.000Z</time></trkpt>
        <trkpt lat="29.559531" lon="103.3424608"><ele>1725.28</ele><time>2025-11-06T06:07:08.000Z</time></trkpt>
        <trkpt lat="29.5595564" lon="103.3423093"><ele>1725.97</ele><time>2025-11-06T06:07:18.000Z</time></trkpt>
        <trkpt lat="29.5595933" lon="103.3423457"><ele>1727.84</ele><time>2025-11-06T06:07:36.000Z</time></trkpt>
        <trkpt lat="29.5595541" lon="103.3424588"><ele>1731.35</ele><time>2025-11-06T06:07:48.000Z</time></trkpt>
        <trkpt lat="29.5595395" lon="103.3426156"><ele>1735.54</ele><time>2025-11-06T06:07:50.000Z</time></trkpt>
        <trkpt lat="29.5595387" lon="103.3427397"><ele>1738.66</ele><time>2025-11-06T06:07:52.000Z</time></trkpt>
        <trkpt lat="29.5595558" lon="103.342858"><ele>1741.13</ele><time>2025-11-06T06:07:56.000Z</time></trkpt>
        <trkpt lat="29.5596341" lon="103.3428555"><ele>1743.87</ele><time>2025-11-06T06:08:28.000Z</time></trkpt>
        <trkpt lat="29.5597422" lon="103.3429645"><ele>1750.21</ele><time>2025-11-06T06:08:52.000Z</time></trkpt>
        <trkpt lat="29.5597108" lon="103.3430828"><ele>1759.15</ele><time>2025-11-06T06:09:04.000Z</time></trkpt>
        <trkpt lat="29.5598517" lon="103.34319"><ele>1766.61</ele><time>2025-11-06T06:11:32.000Z</time></trkpt>
        <trkpt lat="29.5599333" lon="103.3432483"><ele>1775.51</ele><time>2025-11-06T06:11:36.000Z</time></trkpt>
        <trkpt lat="29.559991" lon="103.3434209"><ele>1780.5</ele><time>2025-11-06T06:11:48.000Z</time></trkpt>
        <trkpt lat="29.5600303" lon="103.3436458"><ele>1783.77</ele><time>2025-11-06T06:11:54.000Z</time></trkpt>
        <trkpt lat="29.560075" lon="103.3438138"><ele>1786.49</ele><time>2025-11-06T06:12:18.000Z</time></trkpt>
        <trkpt lat="29.5600083" lon="103.3438983"><ele>1790.88</ele><time>2025-11-06T06:13:22.000Z</time></trkpt>
        <trkpt lat="29.5599133" lon="103.3438533"><ele>1794.55</ele><time>2025-11-06T06:15:06.000Z</time></trkpt>
        <trkpt lat="29.5598433" lon="103.3439317"><ele>1797.75</ele><time>2025-11-06T06:15:32.000Z</time></trkpt>
        <trkpt lat="29.5597987" lon="103.3438619"><ele>1800.01</ele><time>2025-11-06T06:16:16.000Z</time></trkpt>
        <trkpt lat="29.5597167" lon="103.3438067"><ele>1801.17</ele><time>2025-11-06T06:18:10.000Z</time></trkpt>
        <trkpt lat="29.5596283" lon="103.3438567"><ele>1804.45</ele><time>2025-11-06T06:20:06.000Z</time></trkpt>
        <trkpt lat="29.5595283" lon="103.34387"><ele>1807.05</ele><time>2025-11-06T06:21:04.000Z</time></trkpt>
        <trkpt lat="29.5594255" lon="103.3438382"><ele>1808.92</ele><time>2025-11-06T06:21:48.000Z</time></trkpt>
        <trkpt lat="29.559325" lon="103.343865"><ele>1812.48</ele><time>2025-11-06T06:29:46.000Z</time></trkpt>
        <trkpt lat="29.5592333" lon="103.34386"><ele>1819.89</ele><time>2025-11-06T06:32:04.000Z</time></trkpt>
        <trkpt lat="29.5591417" lon="103.3438917"><ele>1825.74</ele><time>2025-11-06T06:34:32.000Z</time></trkpt>
        <trkpt lat="29.559005" lon="103.3438183"><ele>1832.74</ele><time>2025-11-06T06:35:14.000Z</time></trkpt>
        <trkpt lat="29.5589628" lon="103.3437958"><ele>1837.45</ele><time>2025-11-06T06:35:16.000Z</time></trkpt>
        <trkpt lat="29.558882" lon="103.3437037"><ele>1840.14</ele><time>2025-11-06T06:35:24.000Z</time></trkpt>
        <trkpt lat="29.5587859" lon="103.343599"><ele>1842.19</ele><time>2025-11-06T06:35:44.000Z</time></trkpt>
        <trkpt lat="29.558685" lon="103.3436083"><ele>1844.47</ele><time>2025-11-06T06:37:28.000Z</time></trkpt>
        <trkpt lat="29.5588233" lon="103.344405"><ele>1845.43</ele><time>2025-11-06T06:38:36.000Z</time></trkpt>
        <trkpt lat="29.5587967" lon="103.3442517"><ele>1880.28</ele><time>2025-11-06T06:40:58.000Z</time></trkpt>
        <trkpt lat="29.5586967" lon="103.344185"><ele>1906.74</ele><time>2025-11-06T06:41:48.000Z</time></trkpt>
        <trkpt lat="29.5586117" lon="103.3441217"><ele>1922.25</ele><time>2025-11-06T06:42:54.000Z</time></trkpt>
        <trkpt lat="29.5585067" lon="103.3441117"><ele>1932.38</ele><time>2025-11-06T06:43:42.000Z</time></trkpt>
        <trkpt lat="29.5583933" lon="103.344105"><ele>1939.06</ele><time>2025-11-06T06:44:42.000Z</time></trkpt>
        <trkpt lat="29.5583017" lon="103.34413"><ele>1944.15</ele><time>2025-11-06T06:45:14.000Z</time></trkpt>
        <trkpt lat="29.5582791" lon="103.344124"><ele>1947.7</ele><time>2025-11-06T06:45:16.000Z</time></trkpt>
        <trkpt lat="29.5581877" lon="103.3441292"><ele>1949.76</ele><time>2025-11-06T06:45:20.000Z</time></trkpt>
        <trkpt lat="29.5580677" lon="103.3440913"><ele>1951.16</ele><time>2025-11-06T06:45:24.000Z</time></trkpt>
        <trkpt lat="29.5579297" lon="103.3440806"><ele>1952.16</ele><time>2025-11-06T06:46:23.000Z</time></trkpt>
        <trkpt lat="29.5578238" lon="103.3440458"><ele>1970.46</ele><time>2025-11-06T06:46:29.000Z</time></trkpt>
        <trkpt lat="29.557831" lon="103.3441033"><ele>1986.44</ele><time>2025-11-06T06:47:27.000Z</time></trkpt>
        <trkpt lat="29.557819" lon="103.3440494"><ele>1997.52</ele><time>2025-11-06T06:47:41.000Z</time></trkpt>
        <trkpt lat="29.5577685" lon="103.3439704"><ele>2003.88</ele><time>2025-11-06T06:48:13.000Z</time></trkpt>
        <trkpt lat="29.5576117" lon="103.3439017"><ele>2007.97</ele><time>2025-11-06T06:49:41.000Z</time></trkpt>
        <trkpt lat="29.5575283" lon="103.34383"><ele>2023</ele><time>2025-11-06T06:50:03.000Z</time></trkpt>
        <trkpt lat="29.5575014" lon="103.3437273"><ele>2029.84</ele><time>2025-11-06T06:50:13.000Z</time></trkpt>
        <trkpt lat="29.5574369" lon="103.3436487"><ele>2032.57</ele><time>2025-11-06T06:50:45.000Z</time></trkpt>
        <trkpt lat="29.5574023" lon="103.3435537"><ele>2033.36</ele><time>2025-11-06T06:50:53.000Z</time></trkpt>
        <trkpt lat="29.55743" lon="103.3434611"><ele>2033.76</ele><time>2025-11-06T06:51:13.000Z</time></trkpt>
        <trkpt lat="29.5574633" lon="103.3435983"><ele>2033.91</ele><time>2025-11-06T06:54:53.000Z</time></trkpt>
        <trkpt lat="29.55739" lon="103.3436583"><ele>2032.66</ele><time>2025-11-06T06:59:17.000Z</time></trkpt>
        <trkpt lat="29.5572883" lon="103.3436533"><ele>2032.33</ele><time>2025-11-06T06:59:39.000Z</time></trkpt>
        <trkpt lat="29.5571937" lon="103.3436173"><ele>2032.62</ele><time>2025-11-06T07:00:35.000Z</time></trkpt>
        <trkpt lat="29.5571033" lon="103.3435983"><ele>2033.56</ele><time>2025-11-06T07:01:37.000Z</time></trkpt>
        <trkpt lat="29.5570333" lon="103.3436667"><ele>2035.21</ele><time>2025-11-06T07:02:29.000Z</time></trkpt>
        <trkpt lat="29.5569337" lon="103.3437195"><ele>2036.93</ele><time>2025-11-06T07:03:03.000Z</time></trkpt>
        <trkpt lat="29.5567783" lon="103.343755"><ele>2037.95</ele><time>2025-11-06T07:05:35.000Z</time></trkpt>
        <trkpt lat="29.5566783" lon="103.343765"><ele>2042.14</ele><time>2025-11-06T07:06:11.000Z</time></trkpt>
        <trkpt lat="29.55662" lon="103.3438583"><ele>2045.57</ele><time>2025-11-06T07:09:01.000Z</time></trkpt>
        <trkpt lat="29.5565833" lon="103.3439733"><ele>2048.98</ele><time>2025-11-06T07:09:51.000Z</time></trkpt>
        <trkpt lat="29.556535" lon="103.34407"><ele>2052</ele><time>2025-11-06T07:10:57.000Z</time></trkpt>
        <trkpt lat="29.5564667" lon="103.3441517"><ele>2054.24</ele><time>2025-11-06T07:13:09.000Z</time></trkpt>
        <trkpt lat="29.5563783" lon="103.344215"><ele>2055.98</ele><time>2025-11-06T07:13:45.000Z</time></trkpt>
        <trkpt lat="29.556315" lon="103.3443033"><ele>2056.85</ele><time>2025-11-06T07:14:55.000Z</time></trkpt>
        <trkpt lat="29.5562217" lon="103.3443633"><ele>2057.86</ele><time>2025-11-06T07:15:21.000Z</time></trkpt>
        <trkpt lat="29.556185" lon="103.3444583"><ele>2058.57</ele><time>2025-11-06T07:19:51.000Z</time></trkpt>
        <trkpt lat="29.556145" lon="103.344555"><ele>2060.56</ele><time>2025-11-06T07:23:23.000Z</time></trkpt>
        <trkpt lat="29.5560583" lon="103.3446067"><ele>2071.03</ele><time>2025-11-06T07:24:27.000Z</time></trkpt>
        <trkpt lat="29.5560033" lon="103.3446933"><ele>2077.17</ele><time>2025-11-06T07:25:27.000Z</time></trkpt>
        <trkpt lat="29.5559117" lon="103.3447483"><ele>2080.84</ele><time>2025-11-06T07:26:33.000Z</time></trkpt>
        <trkpt lat="29.555815" lon="103.344805"><ele>2083.23</ele><time>2025-11-06T07:27:21.000Z</time></trkpt>
        <trkpt lat="29.5557197" lon="103.3448476"><ele>2084.34</ele><time>2025-11-06T07:27:51.000Z</time></trkpt>
        <trkpt lat="29.5556367" lon="103.3449033"><ele>2085.22</ele><time>2025-11-06T07:29:07.000Z</time></trkpt>
        <trkpt lat="29.555555" lon="103.3449633"><ele>2086.07</ele><time>2025-11-06T07:31:15.000Z</time></trkpt>
        <trkpt lat="29.5554633" lon="103.3449367"><ele>2087.16</ele><time>2025-11-06T07:32:05.000Z</time></trkpt>
        <trkpt lat="29.5553733" lon="103.3449383"><ele>2088.04</ele><time>2025-11-06T07:33:23.000Z</time></trkpt>
        <trkpt lat="29.555295" lon="103.3450017"><ele>2088.97</ele><time>2025-11-06T07:34:01.000Z</time></trkpt>
        <trkpt lat="29.5551969" lon="103.3450721"><ele>2088.98</ele><time>2025-11-06T07:34:21.000Z</time></trkpt>
        <trkpt lat="29.5551185" lon="103.3451437"><ele>2088.65</ele><time>2025-11-06T07:34:47.000Z</time></trkpt>
        <trkpt lat="29.5550233" lon="103.3451533"><ele>2088.5</ele><time>2025-11-06T07:36:39.000Z</time></trkpt>
        <trkpt lat="29.5549217" lon="103.3451533"><ele>2088.58</ele><time>2025-11-06T07:37:17.000Z</time></trkpt>
        <trkpt lat="29.5548397" lon="103.3452238"><ele>2088.72</ele><time>2025-11-06T07:37:37.000Z</time></trkpt>
        <trkpt lat="29.5547729" lon="103.3453081"><ele>2088.88</ele><time>2025-11-06T07:38:31.000Z</time></trkpt>
        <trkpt lat="29.5547517" lon="103.3454417"><ele>2089.15</ele><time>2025-11-06T07:39:37.000Z</time></trkpt>
        <trkpt lat="29.55469" lon="103.34552"><ele>2089.51</ele><time>2025-11-06T07:41:09.000Z</time></trkpt>
        <trkpt lat="29.5545983" lon="103.3455683"><ele>2089.68</ele><time>2025-11-06T07:42:15.000Z</time></trkpt>
        <trkpt lat="29.55451" lon="103.3455"><ele>2089.69</ele><time>2025-11-06T07:42:29.000Z</time></trkpt>
        <trkpt lat="29.554445" lon="103.345575"><ele>2089.99</ele><time>2025-11-06T07:43:57.000Z</time></trkpt>
        <trkpt lat="29.5543717" lon="103.345655"><ele>2090.17</ele><time>2025-11-06T07:45:19.000Z</time></trkpt>
        <trkpt lat="29.5542767" lon="103.3456733"><ele>2089.58</ele><time>2025-11-06T07:46:03.000Z</time></trkpt>
        <trkpt lat="29.5541817" lon="103.3456533"><ele>2089.46</ele><time>2025-11-06T07:47:41.000Z</time></trkpt>
        <trkpt lat="29.55409" lon="103.3456367"><ele>2089.91</ele><time>2025-11-06T07:49:47.000Z</time></trkpt>
        <trkpt lat="29.55401" lon="103.3456867"><ele>2090.38</ele><time>2025-11-06T07:50:41.000Z</time></trkpt>
        <trkpt lat="29.5539133" lon="103.3456867"><ele>2090.65</ele><time>2025-11-06T07:52:01.000Z</time></trkpt>
        <trkpt lat="29.553765" lon="103.3456533"><ele>2090.97</ele><time>2025-11-06T07:52:29.000Z</time></trkpt>
        <trkpt lat="29.5536449" lon="103.34562"><ele>2091.71</ele><time>2025-11-06T07:52:41.000Z</time></trkpt>
        <trkpt lat="29.55358" lon="103.34555"><ele>2092.27</ele><time>2025-11-06T07:54:27.000Z</time></trkpt>
        <trkpt lat="29.553485" lon="103.345525"><ele>2092.71</ele><time>2025-11-06T07:56:15.000Z</time></trkpt>
        <trkpt lat="29.553405" lon="103.3454667"><ele>2094</ele><time>2025-11-06T08:01:21.000Z</time></trkpt>
        <trkpt lat="29.55334" lon="103.3455533"><ele>2095.07</ele><time>2025-11-06T08:01:57.000Z</time></trkpt>
        <trkpt lat="29.5532722" lon="103.3456329"><ele>2095.21</ele><time>2025-11-06T08:02:35.000Z</time></trkpt>
        <trkpt lat="29.5531961" lon="103.3457087"><ele>2095.04</ele><time>2025-11-06T08:02:59.000Z</time></trkpt>
        <trkpt lat="29.5531062" lon="103.3457695"><ele>2094.76</ele><time>2025-11-06T08:03:37.000Z</time></trkpt>
        <trkpt lat="29.5529767" lon="103.3456717"><ele>2094.78</ele><time>2025-11-06T08:04:51.000Z</time></trkpt>
        <trkpt lat="29.5528783" lon="103.3456633"><ele>2094.44</ele><time>2025-11-06T08:05:19.000Z</time></trkpt>
        <trkpt lat="29.5527603" lon="103.3456832"><ele>2094.55</ele><time>2025-11-06T08:05:59.000Z</time></trkpt>
        <trkpt lat="29.5526593" lon="103.3456656"><ele>2095.18</ele><time>2025-11-06T08:06:39.000Z</time></trkpt>
        <trkpt lat="29.5525748" lon="103.3455813"><ele>2095.49</ele><time>2025-11-06T08:06:55.000Z</time></trkpt>
        <trkpt lat="29.5524873" lon="103.3454887"><ele>2095.49</ele><time>2025-11-06T08:07:25.000Z</time></trkpt>
        <trkpt lat="29.5524139" lon="103.3453908"><ele>2095.58</ele><time>2025-11-06T08:07:49.000Z</time></trkpt>
        <trkpt lat="29.5523289" lon="103.3453176"><ele>2095.89</ele><time>2025-11-06T08:08:11.000Z</time></trkpt>
        <trkpt lat="29.5522299" lon="103.3452451"><ele>2095.98</ele><time>2025-11-06T08:08:25.000Z</time></trkpt>
        <trkpt lat="29.552131" lon="103.3451588"><ele>2095.99</ele><time>2025-11-06T08:08:45.000Z</time></trkpt>
        <trkpt lat="29.5520466" lon="103.3450821"><ele>2095.95</ele><time>2025-11-06T08:09:11.000Z</time></trkpt>
        <trkpt lat="29.5519629" lon="103.3450122"><ele>2095.63</ele><time>2025-11-06T08:09:27.000Z</time></trkpt>
        <trkpt lat="29.5518978" lon="103.3449018"><ele>2095.4</ele><time>2025-11-06T08:09:43.000Z</time></trkpt>
        <trkpt lat="29.5518215" lon="103.3448151"><ele>2095.31</ele><time>2025-11-06T08:10:13.000Z</time></trkpt>
        <trkpt lat="29.5517463" lon="103.344734"><ele>2095.78</ele><time>2025-11-06T08:10:51.000Z</time></trkpt>
        <trkpt lat="29.5516763" lon="103.3446484"><ele>2096.56</ele><time>2025-11-06T08:11:03.000Z</time></trkpt>
        <trkpt lat="29.5515933" lon="103.3445244"><ele>2097.1</ele><time>2025-11-06T08:11:13.000Z</time></trkpt>
        <trkpt lat="29.5515001" lon="103.3445066"><ele>2097.66</ele><time>2025-11-06T08:11:31.000Z</time></trkpt>
        <trkpt lat="29.55139" lon="103.344526"><ele>2098.75</ele><time>2025-11-06T08:11:47.000Z</time></trkpt>
        <trkpt lat="29.5512758" lon="103.3445116"><ele>2099.76</ele><time>2025-11-06T08:11:57.000Z</time></trkpt>
        <trkpt lat="29.5511815" lon="103.3444404"><ele>2100.6</ele><time>2025-11-06T08:12:11.000Z</time></trkpt>
        <trkpt lat="29.5510829" lon="103.3444304"><ele>2101.5</ele><time>2025-11-06T08:12:49.000Z</time></trkpt>
        <trkpt lat="29.5510172" lon="103.3443643"><ele>2102.32</ele><time>2025-11-06T08:13:27.000Z</time></trkpt>
        <trkpt lat="29.5509359" lon="103.3442946"><ele>2102.96</ele><time>2025-11-06T08:14:05.000Z</time></trkpt>
        <trkpt lat="29.5508521" lon="103.3442231"><ele>2103.49</ele><time>2025-11-06T08:14:23.000Z</time></trkpt>
        <trkpt lat="29.5507597" lon="103.3441661"><ele>2104.14</ele><time>2025-11-06T08:14:35.000Z</time></trkpt>
        <trkpt lat="29.5506656" lon="103.3440876"><ele>2104.85</ele><time>2025-11-06T08:14:47.000Z</time></trkpt>
        <trkpt lat="29.5505762" lon="103.3440196"><ele>2105.65</ele><time>2025-11-06T08:15:17.000Z</time></trkpt>
        <trkpt lat="29.5505179" lon="103.3439215"><ele>2106.32</ele><time>2025-11-06T08:15:33.000Z</time></trkpt>
        <trkpt lat="29.5504256" lon="103.3438423"><ele>2106.7</ele><time>2025-11-06T08:15:43.000Z</time></trkpt>
        <trkpt lat="29.5503494" lon="103.343709"><ele>2107</ele><time>2025-11-06T08:16:09.000Z</time></trkpt>
        <trkpt lat="29.5502649" lon="103.3436096"><ele>2107.64</ele><time>2025-11-06T08:16:27.000Z</time></trkpt>
        <trkpt lat="29.5501907" lon="103.3435118"><ele>2108.92</ele><time>2025-11-06T08:16:59.000Z</time></trkpt>
        <trkpt lat="29.5501344" lon="103.3434103"><ele>2109.94</ele><time>2025-11-06T08:17:25.000Z</time></trkpt>
        <trkpt lat="29.5500691" lon="103.3433099"><ele>2110.05</ele><time>2025-11-06T08:17:53.000Z</time></trkpt>
        <trkpt lat="29.5500106" lon="103.3432098"><ele>2109.6</ele><time>2025-11-06T08:18:13.000Z</time></trkpt>
        <trkpt lat="29.5499494" lon="103.3430923"><ele>2109.6</ele><time>2025-11-06T08:18:29.000Z</time></trkpt>
        <trkpt lat="29.5499081" lon="103.3429747"><ele>2110.03</ele><time>2025-11-06T08:18:43.000Z</time></trkpt>
        <trkpt lat="29.5498389" lon="103.3428768"><ele>2110.83</ele><time>2025-11-06T08:19:11.000Z</time></trkpt>
        <trkpt lat="29.5497722" lon="103.342789"><ele>2112.45</ele><time>2025-11-06T08:19:29.000Z</time></trkpt>
        <trkpt lat="29.5496847" lon="103.3427017"><ele>2114.24</ele><time>2025-11-06T08:19:49.000Z</time></trkpt>
        <trkpt lat="29.5496225" lon="103.3426073"><ele>2116.5</ele><time>2025-11-06T08:20:07.000Z</time></trkpt>
        <trkpt lat="29.5495797" lon="103.3424947"><ele>2118.69</ele><time>2025-11-06T08:20:27.000Z</time></trkpt>
        <trkpt lat="29.5495584" lon="103.3423668"><ele>2120.12</ele><time>2025-11-06T08:20:51.000Z</time></trkpt>
        <trkpt lat="29.5495359" lon="103.3422293"><ele>2122.05</ele><time>2025-11-06T08:21:41.000Z</time></trkpt>
        <trkpt lat="29.5494683" lon="103.3421533"><ele>2124.31</ele><time>2025-11-06T08:23:11.000Z</time></trkpt>
        <trkpt lat="29.5494533" lon="103.342035"><ele>2127.57</ele><time>2025-11-06T08:28:43.000Z</time></trkpt>
        <trkpt lat="29.5494083" lon="103.341885"><ele>2130.34</ele><time>2025-11-06T08:31:57.000Z</time></trkpt>
        <trkpt lat="29.5493983" lon="103.341765"><ele>2135.74</ele><time>2025-11-06T08:32:17.000Z</time></trkpt>
        <trkpt lat="29.5493827" lon="103.3416394"><ele>2140.97</ele><time>2025-11-06T08:32:49.000Z</time></trkpt>
        <trkpt lat="29.5493223" lon="103.3415603"><ele>2145.33</ele><time>2025-11-06T08:33:11.000Z</time></trkpt>
        <trkpt lat="29.5492417" lon="103.3414996"><ele>2147.94</ele><time>2025-11-06T08:33:57.000Z</time></trkpt>
        <trkpt lat="29.5491463" lon="103.3414604"><ele>2149.9</ele><time>2025-11-06T08:34:39.000Z</time></trkpt>
        <trkpt lat="29.549035" lon="103.3414733"><ele>2151.54</ele><time>2025-11-06T08:36:11.000Z</time></trkpt>
        <trkpt lat="29.5489367" lon="103.3414733"><ele>2152.64</ele><time>2025-11-06T08:36:39.000Z</time></trkpt>
        <trkpt lat="29.548844" lon="103.3414762"><ele>2153.18</ele><time>2025-11-06T08:37:35.000Z</time></trkpt>
        <trkpt lat="29.5487517" lon="103.3414733"><ele>2153.58</ele><time>2025-11-06T08:38:43.000Z</time></trkpt>
        <trkpt lat="29.54865" lon="103.341475"><ele>2153.46</ele><time>2025-11-06T08:40:05.000Z</time></trkpt>
        <trkpt lat="29.5485583" lon="103.341495"><ele>2153.95</ele><time>2025-11-06T08:40:45.000Z</time></trkpt>
        <trkpt lat="29.5484554" lon="103.341484"><ele>2154.23</ele><time>2025-11-06T08:41:15.000Z</time></trkpt>
        <trkpt lat="29.5483414" lon="103.3414675"><ele>2154.95</ele><time>2025-11-06T08:41:57.000Z</time></trkpt>
        <trkpt lat="29.5482417" lon="103.3413483"><ele>2155.23</ele><time>2025-11-06T08:43:33.000Z</time></trkpt>
        <trkpt lat="29.5481983" lon="103.34125"><ele>2156.25</ele><time>2025-11-06T08:45:29.000Z</time></trkpt>
        <trkpt lat="29.548105" lon="103.341225"><ele>2158.08</ele><time>2025-11-06T08:47:11.000Z</time></trkpt>
        <trkpt lat="29.54798" lon="103.3413067"><ele>2162.35</ele><time>2025-11-06T08:47:41.000Z</time></trkpt>
        <trkpt lat="29.5478747" lon="103.3413404"><ele>2165.98</ele><time>2025-11-06T08:48:01.000Z</time></trkpt>
        <trkpt lat="29.5477768" lon="103.3413412"><ele>2168.7</ele><time>2025-11-06T08:48:19.000Z</time></trkpt>
        <trkpt lat="29.5477014" lon="103.3412361"><ele>2170.38</ele><time>2025-11-06T08:48:31.000Z</time></trkpt>
        <trkpt lat="29.5476036" lon="103.3411971"><ele>2171.63</ele><time>2025-11-06T08:49:21.000Z</time></trkpt>
        <trkpt lat="29.5474846" lon="103.3411954"><ele>2172.61</ele><time>2025-11-06T08:49:59.000Z</time></trkpt>
        <trkpt lat="29.5473784" lon="103.3411865"><ele>2173.81</ele><time>2025-11-06T08:50:29.000Z</time></trkpt>
        <trkpt lat="29.5472367" lon="103.341213"><ele>2173.89</ele><time>2025-11-06T08:50:43.000Z</time></trkpt>
        <trkpt lat="29.5470947" lon="103.3412432"><ele>2174.02</ele><time>2025-11-06T08:51:03.000Z</time></trkpt>
        <trkpt lat="29.5469732" lon="103.3412474"><ele>2173.84</ele><time>2025-11-06T08:51:31.000Z</time></trkpt>
        <trkpt lat="29.5468403" lon="103.3412458"><ele>2173.65</ele><time>2025-11-06T08:51:57.000Z</time></trkpt>
        <trkpt lat="29.5467302" lon="103.3412276"><ele>2173.97</ele><time>2025-11-06T08:52:35.000Z</time></trkpt>
        <trkpt lat="29.5466283" lon="103.3412033"><ele>2174.33</ele><time>2025-11-06T08:53:37.000Z</time></trkpt>
        <trkpt lat="29.5465483" lon="103.341135"><ele>2174.83</ele><time>2025-11-06T08:55:19.000Z</time></trkpt>
        <trkpt lat="29.5464767" lon="103.3410583"><ele>2175.77</ele><time>2025-11-06T08:57:31.000Z</time></trkpt>
        <trkpt lat="29.546455" lon="103.3409567"><ele>2176.9</ele><time>2025-11-06T08:59:19.000Z</time></trkpt>
        <trkpt lat="29.5464283" lon="103.340855"><ele>2177.42</ele><time>2025-11-06T09:01:31.000Z</time></trkpt>
        <trkpt lat="29.5465183" lon="103.3407967"><ele>2177.62</ele><time>2025-11-06T09:01:43.000Z</time></trkpt>
        <trkpt lat="29.5465483" lon="103.340675"><ele>2177.79</ele><time>2025-11-06T09:03:25.000Z</time></trkpt>
        <trkpt lat="29.5466333" lon="103.3405917"><ele>2178.26</ele><time>2025-11-06T09:03:57.000Z</time></trkpt>
        <trkpt lat="29.54667" lon="103.3404483"><ele>2178.58</ele><time>2025-11-06T09:05:25.000Z</time></trkpt>
        <trkpt lat="29.5467017" lon="103.3403283"><ele>2179.62</ele><time>2025-11-06T09:06:09.000Z</time></trkpt>
        <trkpt lat="29.54675" lon="103.3402233"><ele>2180.34</ele><time>2025-11-06T09:07:21.000Z</time></trkpt>
        <trkpt lat="29.5467917" lon="103.34009"><ele>2180.8</ele><time>2025-11-06T09:07:55.000Z</time></trkpt>
        <trkpt lat="29.5468573" lon="103.3396464"><ele>2181.27</ele><time>2025-11-06T09:08:13.000Z</time></trkpt>
        <trkpt lat="29.5468867" lon="103.33949"><ele>2182.32</ele><time>2025-11-06T09:10:31.000Z</time></trkpt>
        <trkpt lat="29.5469217" lon="103.339355"><ele>2184.2</ele><time>2025-11-06T09:13:47.000Z</time></trkpt>
        <trkpt lat="29.5469367" lon="103.3392067"><ele>2187.77</ele><time>2025-11-06T09:16:43.000Z</time></trkpt>
        <trkpt lat="29.5468683" lon="103.3391283"><ele>2191.7</ele><time>2025-11-06T09:18:49.000Z</time></trkpt>
        <trkpt lat="29.5467667" lon="103.3391383"><ele>2194.88</ele><time>2025-11-06T09:20:45.000Z</time></trkpt>
        <trkpt lat="29.5466717" lon="103.3392183"><ele>2197.56</ele><time>2025-11-06T09:20:55.000Z</time></trkpt>
        <trkpt lat="29.5465612" lon="103.3392659"><ele>2199.51</ele><time>2025-11-06T09:21:27.000Z</time></trkpt>
        <trkpt lat="29.5464582" lon="103.3392665"><ele>2201.36</ele><time>2025-11-06T09:22:15.000Z</time></trkpt>
        <trkpt lat="29.54636" lon="103.3392533"><ele>2202.71</ele><time>2025-11-06T09:23:43.000Z</time></trkpt>
        <trkpt lat="29.5462633" lon="103.3392383"><ele>2204.04</ele><time>2025-11-06T09:25:15.000Z</time></trkpt>
        <trkpt lat="29.5461667" lon="103.3392"><ele>2205.18</ele><time>2025-11-06T09:26:51.000Z</time></trkpt>
        <trkpt lat="29.5461167" lon="103.3391067"><ele>2206.48</ele><time>2025-11-06T09:28:03.000Z</time></trkpt>
        <trkpt lat="29.5460167" lon="103.3390017"><ele>2207.65</ele><time>2025-11-06T09:28:29.000Z</time></trkpt>
        <trkpt lat="29.5459933" lon="103.3388967"><ele>2208.62</ele><time>2025-11-06T09:29:43.000Z</time></trkpt>
        <trkpt lat="29.5460183" lon="103.338795"><ele>2209.73</ele><time>2025-11-06T09:30:47.000Z</time></trkpt>
        <trkpt lat="29.546085" lon="103.338715"><ele>2210.62</ele><time>2025-11-06T09:32:15.000Z</time></trkpt>
        <trkpt lat="29.5461117" lon="103.3386067"><ele>2211.21</ele><time>2025-11-06T09:33:53.000Z</time></trkpt>
        <trkpt lat="29.5461033" lon="103.3385"><ele>2211.55</ele><time>2025-11-06T09:37:11.000Z</time></trkpt>
        <trkpt lat="29.546115" lon="103.338395"><ele>2213.12</ele><time>2025-11-06T09:38:07.000Z</time></trkpt>
        <trkpt lat="29.5460632" lon="103.3383069"><ele>2214.36</ele><time>2025-11-06T09:38:17.000Z</time></trkpt>
        <trkpt lat="29.5460333" lon="103.3381983"><ele>2216.14</ele><time>2025-11-06T09:39:21.000Z</time></trkpt>
        <trkpt lat="29.5460283" lon="103.3380883"><ele>2218.02</ele><time>2025-11-06T09:39:55.000Z</time></trkpt>
        <trkpt lat="29.5460868" lon="103.3379924"><ele>2219.56</ele><time>2025-11-06T09:40:13.000Z</time></trkpt>
        <trkpt lat="29.5461025" lon="103.3378862"><ele>2221.17</ele><time>2025-11-06T09:40:33.000Z</time></trkpt>
        <trkpt lat="29.54618" lon="103.337775"><ele>2223.38</ele><time>2025-11-06T09:41:41.000Z</time></trkpt>
        <trkpt lat="29.5462" lon="103.3377383"><ele>2231.86</ele><time>2025-11-06T09:41:45.000Z</time></trkpt>
        <trkpt lat="29.546244" lon="103.3376481"><ele>2237.25</ele><time>2025-11-06T09:42:03.000Z</time></trkpt>
        <trkpt lat="29.5463133" lon="103.3375483"><ele>2242.82</ele><time>2025-11-06T09:44:03.000Z</time></trkpt>
        <trkpt lat="29.5463033" lon="103.3374433"><ele>2247.24</ele><time>2025-11-06T09:47:37.000Z</time></trkpt>
        <trkpt lat="29.5463383" lon="103.3373333"><ele>2251.1</ele><time>2025-11-06T09:49:43.000Z</time></trkpt>
        <trkpt lat="29.5463517" lon="103.3372017"><ele>2255.66</ele><time>2025-11-06T09:49:51.000Z</time></trkpt>
        <trkpt lat="29.5463763" lon="103.3370841"><ele>2261.14</ele><time>2025-11-06T09:50:07.000Z</time></trkpt>
        <trkpt lat="29.5463067" lon="103.3370217"><ele>2264.65</ele><time>2025-11-06T09:51:51.000Z</time></trkpt>
        <trkpt lat="29.5462467" lon="103.33694"><ele>2269.19</ele><time>2025-11-06T09:53:45.000Z</time></trkpt>
        <trkpt lat="29.546225" lon="103.3368333"><ele>2273.67</ele><time>2025-11-06T09:56:53.000Z</time></trkpt>
        <trkpt lat="29.5462533" lon="103.3367333"><ele>2278.93</ele><time>2025-11-06T09:57:33.000Z</time></trkpt>
        <trkpt lat="29.5462704" lon="103.3366263"><ele>2283.22</ele><time>2025-11-06T09:58:31.000Z</time></trkpt>
        <trkpt lat="29.5463009" lon="103.3365193"><ele>2285.79</ele><time>2025-11-06T09:59:13.000Z</time></trkpt>
        <trkpt lat="29.5463368" lon="103.3364172"><ele>2287.26</ele><time>2025-11-06T09:59:59.000Z</time></trkpt>
        <trkpt lat="29.5463718" lon="103.3363009"><ele>2287.32</ele><time>2025-11-06T10:00:23.000Z</time></trkpt>
        <trkpt lat="29.5463961" lon="103.3361603"><ele>2287.65</ele><time>2025-11-06T10:00:47.000Z</time></trkpt>
        <trkpt lat="29.5464325" lon="103.336019"><ele>2287.8</ele><time>2025-11-06T10:01:01.000Z</time></trkpt>
        <trkpt lat="29.546505" lon="103.3358892"><ele>2287.8</ele><time>2025-11-06T10:01:15.000Z</time></trkpt>
        <trkpt lat="29.5465616" lon="103.3357658"><ele>2287.84</ele><time>2025-11-06T10:01:33.000Z</time></trkpt>
        <trkpt lat="29.5466" lon="103.3356596"><ele>2288.13</ele><time>2025-11-06T10:02:13.000Z</time></trkpt>
        <trkpt lat="29.5466128" lon="103.3355468"><ele>2288.67</ele><time>2025-11-06T10:02:49.000Z</time></trkpt>
        <trkpt lat="29.5465808" lon="103.3354441"><ele>2289.42</ele><time>2025-11-06T10:03:41.000Z</time></trkpt>
        <trkpt lat="29.5465091" lon="103.3353425"><ele>2290.01</ele><time>2025-11-06T10:03:57.000Z</time></trkpt>
        <trkpt lat="29.5464164" lon="103.335278"><ele>2291.86</ele><time>2025-11-06T10:04:09.000Z</time></trkpt>
        <trkpt lat="29.5463376" lon="103.3351942"><ele>2293.81</ele><time>2025-11-06T10:04:37.000Z</time></trkpt>
        <trkpt lat="29.5462908" lon="103.3350822"><ele>2295.83</ele><time>2025-11-06T10:05:05.000Z</time></trkpt>
        <trkpt lat="29.5462468" lon="103.3349773"><ele>2299</ele><time>2025-11-06T10:05:47.000Z</time></trkpt>
        <trkpt lat="29.5461633" lon="103.3349317"><ele>2302.66</ele><time>2025-11-06T10:06:57.000Z</time></trkpt>
        <trkpt lat="29.546075" lon="103.3349017"><ele>2305.56</ele><time>2025-11-06T10:07:45.000Z</time></trkpt>
        <trkpt lat="29.5459951" lon="103.3348449"><ele>2307.08</ele><time>2025-11-06T10:08:27.000Z</time></trkpt>
        <trkpt lat="29.5459116" lon="103.3347743"><ele>2308.08</ele><time>2025-11-06T10:08:45.000Z</time></trkpt>
        <trkpt lat="29.545822" lon="103.3347106"><ele>2309.72</ele><time>2025-11-06T10:09:11.000Z</time></trkpt>
        <trkpt lat="29.5457301" lon="103.3346564"><ele>2310.87</ele><time>2025-11-06T10:09:53.000Z</time></trkpt>
        <trkpt lat="29.5456365" lon="103.334601"><ele>2312.35</ele><time>2025-11-06T10:10:03.000Z</time></trkpt>
        <trkpt lat="29.5455476" lon="103.3345512"><ele>2314.26</ele><time>2025-11-06T10:10:17.000Z</time></trkpt>
        <trkpt lat="29.5454456" lon="103.3345057"><ele>2316.52</ele><time>2025-11-06T10:10:43.000Z</time></trkpt>
        <trkpt lat="29.5453587" lon="103.334444"><ele>2318.44</ele><time>2025-11-06T10:11:41.000Z</time></trkpt>
        <trkpt lat="29.5452605" lon="103.3344047"><ele>2320.28</ele><time>2025-11-06T10:12:03.000Z</time></trkpt>
        <trkpt lat="29.5451652" lon="103.3343642"><ele>2321.88</ele><time>2025-11-06T10:12:55.000Z</time></trkpt>
        <trkpt lat="29.5450575" lon="103.3343275"><ele>2322.92</ele><time>2025-11-06T10:13:37.000Z</time></trkpt>
        <trkpt lat="29.5449516" lon="103.3342716"><ele>2323.51</ele><time>2025-11-06T10:13:53.000Z</time></trkpt>
        <trkpt lat="29.5448496" lon="103.3342234"><ele>2324.11</ele><time>2025-11-06T10:14:21.000Z</time></trkpt>
        <trkpt lat="29.544778" lon="103.3341225"><ele>2325.44</ele><time>2025-11-06T10:14:35.000Z</time></trkpt>
        <trkpt lat="29.54469" lon="103.334095"><ele>2326.58</ele><time>2025-11-06T10:15:15.000Z</time></trkpt>
        <trkpt lat="29.544588" lon="103.3341122"><ele>2327.8</ele><time>2025-11-06T10:15:37.000Z</time></trkpt>
        <trkpt lat="29.5444908" lon="103.3341884"><ele>2328.96</ele><time>2025-11-06T10:15:51.000Z</time></trkpt>
        <trkpt lat="29.5443875" lon="103.334236"><ele>2330.27</ele><time>2025-11-06T10:16:27.000Z</time></trkpt>
        <trkpt lat="29.5442833" lon="103.3342605"><ele>2331.61</ele><time>2025-11-06T10:16:47.000Z</time></trkpt>
        <trkpt lat="29.5441704" lon="103.3342514"><ele>2332.9</ele><time>2025-11-06T10:17:03.000Z</time></trkpt>
        <trkpt lat="29.5440521" lon="103.3341945"><ele>2334.32</ele><time>2025-11-06T10:17:19.000Z</time></trkpt>
        <trkpt lat="29.5439512" lon="103.3341172"><ele>2335.95</ele><time>2025-11-06T10:17:33.000Z</time></trkpt>
        <trkpt lat="29.5438724" lon="103.3340249"><ele>2337.69</ele><time>2025-11-06T10:17:55.000Z</time></trkpt>
        <trkpt lat="29.5437784" lon="103.3339967"><ele>2339.37</ele><time>2025-11-06T10:18:31.000Z</time></trkpt>
        <trkpt lat="29.5436836" lon="103.3339406"><ele>2340.89</ele><time>2025-11-06T10:18:47.000Z</time></trkpt>
        <trkpt lat="29.5436061" lon="103.3338594"><ele>2341.67</ele><time>2025-11-06T10:19:07.000Z</time></trkpt>
        <trkpt lat="29.5435412" lon="103.3337633"><ele>2342.03</ele><time>2025-11-06T10:19:43.000Z</time></trkpt>
        <trkpt lat="29.54348" lon="103.3336745"><ele>2342.06</ele><time>2025-11-06T10:20:19.000Z</time></trkpt>
        <trkpt lat="29.543434" lon="103.3335675"><ele>2341.77</ele><time>2025-11-06T10:20:41.000Z</time></trkpt>
        <trkpt lat="29.5433689" lon="103.3334506"><ele>2341.83</ele><time>2025-11-06T10:20:55.000Z</time></trkpt>
        <trkpt lat="29.5433281" lon="103.3333113"><ele>2342.5</ele><time>2025-11-06T10:21:19.000Z</time></trkpt>
        <trkpt lat="29.5432578" lon="103.333175"><ele>2344.05</ele><time>2025-11-06T10:21:43.000Z</time></trkpt>
        <trkpt lat="29.5431806" lon="103.3330842"><ele>2346.05</ele><time>2025-11-06T10:22:13.000Z</time></trkpt>
        <trkpt lat="29.543083" lon="103.3330335"><ele>2347.53</ele><time>2025-11-06T10:22:35.000Z</time></trkpt>
        <trkpt lat="29.5429852" lon="103.3329778"><ele>2349.58</ele><time>2025-11-06T10:22:55.000Z</time></trkpt>
        <trkpt lat="29.5428889" lon="103.332917"><ele>2352.77</ele><time>2025-11-06T10:23:17.000Z</time></trkpt>
        <trkpt lat="29.5428078" lon="103.3328391"><ele>2357.3</ele><time>2025-11-06T10:23:31.000Z</time></trkpt>
        <trkpt lat="29.5427477" lon="103.3327218"><ele>2361.34</ele><time>2025-11-06T10:23:53.000Z</time></trkpt>
        <trkpt lat="29.5426708" lon="103.3326335"><ele>2366.1</ele><time>2025-11-06T10:24:15.000Z</time></trkpt>
        <trkpt lat="29.54257" lon="103.3325958"><ele>2369.97</ele><time>2025-11-06T10:24:33.000Z</time></trkpt>
        <trkpt lat="29.5425132" lon="103.3325099"><ele>2373.64</ele><time>2025-11-06T10:24:51.000Z</time></trkpt>
        <trkpt lat="29.5424976" lon="103.3323898"><ele>2375.77</ele><time>2025-11-06T10:25:11.000Z</time></trkpt>
        <trkpt lat="29.5424504" lon="103.3322784"><ele>2376.9</ele><time>2025-11-06T10:25:33.000Z</time></trkpt>
        <trkpt lat="29.5424034" lon="103.3321687"><ele>2378.75</ele><time>2025-11-06T10:25:47.000Z</time></trkpt>
        <trkpt lat="29.5423441" lon="103.3320543"><ele>2381.27</ele><time>2025-11-06T10:26:07.000Z</time></trkpt>
        <trkpt lat="29.5422628" lon="103.3319661"><ele>2383.69</ele><time>2025-11-06T10:26:47.000Z</time></trkpt>
        <trkpt lat="29.5421291" lon="103.3319743"><ele>2384.55</ele><time>2025-11-06T10:27:27.000Z</time></trkpt>
        <trkpt lat="29.542019" lon="103.3319526"><ele>2384.92</ele><time>2025-11-06T10:28:19.000Z</time></trkpt>
        <trkpt lat="29.5418988" lon="103.3319642"><ele>2384.27</ele><time>2025-11-06T10:28:37.000Z</time></trkpt>
        <trkpt lat="29.5417743" lon="103.3319651"><ele>2382.65</ele><time>2025-11-06T10:28:55.000Z</time></trkpt>
        <trkpt lat="29.5417331" lon="103.3319658"><ele>2379.96</ele><time>2025-11-06T10:28:57.000Z</time></trkpt>
        <trkpt lat="29.5417555" lon="103.3318842"><ele>2378.3</ele><time>2025-11-06T10:29:47.000Z</time></trkpt>
        <trkpt lat="29.5418096" lon="103.3317308"><ele>2378</ele><time>2025-11-06T10:30:09.000Z</time></trkpt>
        <trkpt lat="29.5417067" lon="103.3316407"><ele>2377.48</ele><time>2025-11-06T10:30:45.000Z</time></trkpt>
        <trkpt lat="29.5416005" lon="103.3316148"><ele>2378.95</ele><time>2025-11-06T10:30:55.000Z</time></trkpt>
        <trkpt lat="29.5415481" lon="103.3316199"><ele>2380.18</ele><time>2025-11-06T10:30:59.000Z</time></trkpt>
        <trkpt lat="29.5414611" lon="103.3316476"><ele>2381.39</ele><time>2025-11-06T10:31:15.000Z</time></trkpt>
        <trkpt lat="29.5413579" lon="103.3316775"><ele>2383.33</ele><time>2025-11-06T10:31:31.000Z</time></trkpt>
        <trkpt lat="29.5412462" lon="103.3317088"><ele>2384.91</ele><time>2025-11-06T10:31:51.000Z</time></trkpt>
        <trkpt lat="29.5411567" lon="103.3317883"><ele>2385.64</ele><time>2025-11-06T10:33:41.000Z</time></trkpt>
        <trkpt lat="29.5408583" lon="103.3316833"><ele>2385.79</ele><time>2025-11-06T10:35:10.000Z</time></trkpt>
        <trkpt lat="29.541145" lon="103.33163"><ele>2394.96</ele><time>2025-11-06T10:35:18.000Z</time></trkpt>
        <trkpt lat="29.54123" lon="103.3317501"><ele>2394.93</ele><time>2025-11-06T10:35:20.000Z</time></trkpt>
        <trkpt lat="29.541188" lon="103.3318508"><ele>2390.96</ele><time>2025-11-06T10:35:30.000Z</time></trkpt>
        <trkpt lat="29.5411553" lon="103.3318698"><ele>2386.68</ele><time>2025-11-06T10:35:32.000Z</time></trkpt>
        <trkpt lat="29.5412151" lon="103.3318876"><ele>2383.8</ele><time>2025-11-06T10:35:58.000Z</time></trkpt>
        <trkpt lat="29.5412253" lon="103.3318951"><ele>2382.43</ele><time>2025-11-06T10:36:00.000Z</time></trkpt>
        <trkpt lat="29.5411616" lon="103.331934"><ele>2381.38</ele><time>2025-11-06T10:36:04.000Z</time></trkpt>
        <trkpt lat="29.5411277" lon="103.3318682"><ele>2380.06</ele><time>2025-11-06T10:36:16.000Z</time></trkpt>
        <trkpt lat="29.5410645" lon="103.3319058"><ele>2377.88</ele><time>2025-11-06T10:36:22.000Z</time></trkpt>
        <trkpt lat="29.5410268" lon="103.3319339"><ele>2373.93</ele><time>2025-11-06T10:36:26.000Z</time></trkpt>
        <trkpt lat="29.5410893" lon="103.3319167"><ele>2371.68</ele><time>2025-11-06T10:37:14.000Z</time></trkpt>
        <trkpt lat="29.54121" lon="103.3317333"><ele>2372.12</ele><time>2025-11-06T10:49:08.000Z</time></trkpt>
        <trkpt lat="29.54124" lon="103.331605"><ele>2375.42</ele><time>2025-11-06T10:50:20.000Z</time></trkpt>
        <trkpt lat="29.541165" lon="103.3315167"><ele>2378.17</ele><time>2025-11-06T10:50:38.000Z</time></trkpt>
        <trkpt lat="29.5410759" lon="103.3314424"><ele>2380.46</ele><time>2025-11-06T10:50:54.000Z</time></trkpt>
        <trkpt lat="29.5409907" lon="103.3313656"><ele>2382.24</ele><time>2025-11-06T10:51:08.000Z</time></trkpt>
        <trkpt lat="29.5409042" lon="103.3312791"><ele>2383.47</ele><time>2025-11-06T10:51:24.000Z</time></trkpt>
        <trkpt lat="29.5408235" lon="103.3311767"><ele>2384.3</ele><time>2025-11-06T10:51:44.000Z</time></trkpt>
        <trkpt lat="29.5407977" lon="103.3310624"><ele>2384.95</ele><time>2025-11-06T10:51:56.000Z</time></trkpt>
        <trkpt lat="29.5407729" lon="103.3309463"><ele>2385.01</ele><time>2025-11-06T10:52:10.000Z</time></trkpt>
        <trkpt lat="29.5407729" lon="103.3309463"><ele>2385.01</ele><time>2025-11-06T10:56:09.000Z</time></trkpt>
      </trkseg>
      <trkseg>
        <trkpt lat="29.5401933" lon="103.3315437"><ele>2385.48</ele><time>2025-11-06T17:40:16.000Z</time></trkpt>
        <trkpt lat="29.5401933" lon="103.3315437"><ele>2385.48</ele><time>2025-11-06T17:40:20.000Z</time></trkpt>
        <trkpt lat="29.5405013" lon="103.33128"><ele>2397.3</ele><time>2025-11-06T17:40:24.000Z</time></trkpt>
        <trkpt lat="29.5406643" lon="103.3311176"><ele>2409.73</ele><time>2025-11-06T17:40:28.000Z</time></trkpt>
        <trkpt lat="29.5405717" lon="103.3310797"><ele>2409.8</ele><time>2025-11-06T17:41:26.000Z</time></trkpt>
        <trkpt lat="29.5404641" lon="103.3311397"><ele>2400.85</ele><time>2025-11-06T17:41:38.000Z</time></trkpt>
        <trkpt lat="29.5403643" lon="103.3312275"><ele>2396.14</ele><time>2025-11-06T17:41:47.000Z</time></trkpt>
        <trkpt lat="29.5402501" lon="103.3313058"><ele>2393.63</ele><time>2025-11-06T17:42:00.000Z</time></trkpt>
        <trkpt lat="29.5401607" lon="103.331391"><ele>2392.07</ele><time>2025-11-06T17:42:08.000Z</time></trkpt>
        <trkpt lat="29.5400856" lon="103.3314873"><ele>2390.96</ele><time>2025-11-06T17:42:16.000Z</time></trkpt>
        <trkpt lat="29.5400034" lon="103.3315696"><ele>2389.86</ele><time>2025-11-06T17:42:26.000Z</time></trkpt>
        <trkpt lat="29.5398928" lon="103.3316479"><ele>2387.9</ele><time>2025-11-06T17:42:40.000Z</time></trkpt>
        <trkpt lat="29.5397492" lon="103.3317733"><ele>2387.08</ele><time>2025-11-06T17:43:00.000Z</time></trkpt>
        <trkpt lat="29.5396866" lon="103.3318311"><ele>2387.82</ele><time>2025-11-06T17:43:04.000Z</time></trkpt>
        <trkpt lat="29.539655" lon="103.3319418"><ele>2388.8</ele><time>2025-11-06T17:43:16.000Z</time></trkpt>
        <trkpt lat="29.5397193" lon="103.3320354"><ele>2389.79</ele><time>2025-11-06T17:43:26.000Z</time></trkpt>
        <trkpt lat="29.539749" lon="103.3320736"><ele>2390.65</ele><time>2025-11-06T17:43:28.000Z</time></trkpt>
        <trkpt lat="29.539784" lon="103.3321629"><ele>2391.15</ele><time>2025-11-06T17:43:44.000Z</time></trkpt>
        <trkpt lat="29.5397691" lon="103.332264"><ele>2391.64</ele><time>2025-11-06T17:44:08.000Z</time></trkpt>
        <trkpt lat="29.5397285" lon="103.3323695"><ele>2392.83</ele><time>2025-11-06T17:44:28.000Z</time></trkpt>
        <trkpt lat="29.5396517" lon="103.332439"><ele>2394.06</ele><time>2025-11-06T17:45:00.000Z</time></trkpt>
        <trkpt lat="29.5395604" lon="103.3324932"><ele>2394.77</ele><time>2025-11-06T17:45:18.000Z</time></trkpt>
        <trkpt lat="29.5394609" lon="103.3325558"><ele>2394.65</ele><time>2025-11-06T17:46:12.000Z</time></trkpt>
        <trkpt lat="29.5393722" lon="103.3326256"><ele>2394.8</ele><time>2025-11-06T17:46:26.000Z</time></trkpt>
        <trkpt lat="29.5392943" lon="103.3327034"><ele>2394.93</ele><time>2025-11-06T17:46:56.000Z</time></trkpt>
        <trkpt lat="29.5392081" lon="103.332779"><ele>2394.66</ele><time>2025-11-06T17:47:12.000Z</time></trkpt>
        <trkpt lat="29.5391173" lon="103.332862"><ele>2394.5</ele><time>2025-11-06T17:47:28.000Z</time></trkpt>
        <trkpt lat="29.5390263" lon="103.3329376"><ele>2394.72</ele><time>2025-11-06T17:47:46.000Z</time></trkpt>
        <trkpt lat="29.5389218" lon="103.3330024"><ele>2395.14</ele><time>2025-11-06T17:48:02.000Z</time></trkpt>
        <trkpt lat="29.5388226" lon="103.3330709"><ele>2395.55</ele><time>2025-11-06T17:48:14.000Z</time></trkpt>
        <trkpt lat="29.5387075" lon="103.3331315"><ele>2396.09</ele><time>2025-11-06T17:48:30.000Z</time></trkpt>
        <trkpt lat="29.5386029" lon="103.3331517"><ele>2397.04</ele><time>2025-11-06T17:48:50.000Z</time></trkpt>
        <trkpt lat="29.5384844" lon="103.3331752"><ele>2397.32</ele><time>2025-11-06T17:49:06.000Z</time></trkpt>
        <trkpt lat="29.5383732" lon="103.3332012"><ele>2397.57</ele><time>2025-11-06T17:49:34.000Z</time></trkpt>
        <trkpt lat="29.538268" lon="103.3332517"><ele>2398.4</ele><time>2025-11-06T17:49:50.000Z</time></trkpt>
        <trkpt lat="29.5381699" lon="103.3333029"><ele>2399.43</ele><time>2025-11-06T17:50:06.000Z</time></trkpt>
        <trkpt lat="29.5380653" lon="103.3333683"><ele>2400.37</ele><time>2025-11-06T17:50:22.000Z</time></trkpt>
        <trkpt lat="29.5379716" lon="103.3334195"><ele>2401.11</ele><time>2025-11-06T17:50:42.000Z</time></trkpt>
        <trkpt lat="29.5378743" lon="103.3334719"><ele>2401.54</ele><time>2025-11-06T17:50:56.000Z</time></trkpt>
        <trkpt lat="29.537774" lon="103.3335737"><ele>2401.91</ele><time>2025-11-06T17:51:23.000Z</time></trkpt>
        <trkpt lat="29.5376762" lon="103.333695"><ele>2404.49</ele><time>2025-11-06T17:51:50.000Z</time></trkpt>
        <trkpt lat="29.5375744" lon="103.3337517"><ele>2409.05</ele><time>2025-11-06T17:52:08.000Z</time></trkpt>
        <trkpt lat="29.5374711" lon="103.3337774"><ele>2412.34</ele><time>2025-11-06T17:52:46.000Z</time></trkpt>
        <trkpt lat="29.5373661" lon="103.3338064"><ele>2414.04</ele><time>2025-11-06T17:53:26.000Z</time></trkpt>
        <trkpt lat="29.5372945" lon="103.3338847"><ele>2414.63</ele><time>2025-11-06T17:54:10.000Z</time></trkpt>
        <trkpt lat="29.5372015" lon="103.3339447"><ele>2414.92</ele><time>2025-11-06T17:54:44.000Z</time></trkpt>
        <trkpt lat="29.5371015" lon="103.3340198"><ele>2415.21</ele><time>2025-11-06T17:55:02.000Z</time></trkpt>
        <trkpt lat="29.5370041" lon="103.3341368"><ele>2415.59</ele><time>2025-11-06T17:56:00.000Z</time></trkpt>
        <trkpt lat="29.536915" lon="103.334215"><ele>2416.03</ele><time>2025-11-06T17:57:06.000Z</time></trkpt>
        <trkpt lat="29.5368233" lon="103.3342717"><ele>2416.27</ele><time>2025-11-06T17:57:42.000Z</time></trkpt>
        <trkpt lat="29.5367133" lon="103.33429"><ele>2416.63</ele><time>2025-11-06T17:58:56.000Z</time></trkpt>
        <trkpt lat="29.5366167" lon="103.334315"><ele>2417.18</ele><time>2025-11-06T17:59:30.000Z</time></trkpt>
        <trkpt lat="29.5365073" lon="103.3343287"><ele>2417.62</ele><time>2025-11-06T17:59:50.000Z</time></trkpt>
        <trkpt lat="29.5363996" lon="103.3343559"><ele>2417.57</ele><time>2025-11-06T17:59:58.000Z</time></trkpt>
        <trkpt lat="29.5362835" lon="103.3343583"><ele>2417.37</ele><time>2025-11-06T18:00:10.000Z</time></trkpt>
        <trkpt lat="29.5361783" lon="103.3343333"><ele>2417.25</ele><time>2025-11-06T18:01:26.000Z</time></trkpt>
        <trkpt lat="29.5360933" lon="103.334275"><ele>2417.53</ele><time>2025-11-06T18:02:42.000Z</time></trkpt>
        <trkpt lat="29.5360067" lon="103.3341917"><ele>2417.69</ele><time>2025-11-06T18:02:58.000Z</time></trkpt>
        <trkpt lat="29.5359256" lon="103.3340928"><ele>2417.91</ele><time>2025-11-06T18:03:14.000Z</time></trkpt>
        <trkpt lat="29.5358495" lon="103.3340041"><ele>2419.58</ele><time>2025-11-06T18:03:54.000Z</time></trkpt>
        <trkpt lat="29.53577" lon="103.3339433"><ele>2423.68</ele><time>2025-11-06T18:05:36.000Z</time></trkpt>
        <trkpt lat="29.5356833" lon="103.3339"><ele>2426.22</ele><time>2025-11-06T18:06:30.000Z</time></trkpt>
        <trkpt lat="29.5355896" lon="103.3338567"><ele>2427.81</ele><time>2025-11-06T18:07:12.000Z</time></trkpt>
        <trkpt lat="29.5354869" lon="103.3337992"><ele>2428.88</ele><time>2025-11-06T18:07:24.000Z</time></trkpt>
        <trkpt lat="29.5353977" lon="103.3337185"><ele>2429.58</ele><time>2025-11-06T18:07:52.000Z</time></trkpt>
        <trkpt lat="29.5353283" lon="103.3336367"><ele>2430.19</ele><time>2025-11-06T18:09:02.000Z</time></trkpt>
        <trkpt lat="29.5352867" lon="103.333545"><ele>2430.41</ele><time>2025-11-06T18:10:28.000Z</time></trkpt>
        <trkpt lat="29.5352083" lon="103.333485"><ele>2430.88</ele><time>2025-11-06T18:11:54.000Z</time></trkpt>
        <trkpt lat="29.5351733" lon="103.33337"><ele>2430.76</ele><time>2025-11-06T18:13:02.000Z</time></trkpt>
        <trkpt lat="29.5351183" lon="103.3332883"><ele>2429.96</ele><time>2025-11-06T18:14:18.000Z</time></trkpt>
        <trkpt lat="29.5350367" lon="103.3332167"><ele>2429.85</ele><time>2025-11-06T18:14:44.000Z</time></trkpt>
        <trkpt lat="29.5350367" lon="103.3332167"><ele>2429.85</ele><time>2025-11-06T18:15:48.000Z</time></trkpt>
      </trkseg>
      <trkseg>
        <trkpt lat="29.5228055" lon="103.334774"><ele>3016.5</ele><time>2025-11-06T18:47:30.000Z</time></trkpt>
        <trkpt lat="29.5228055" lon="103.334774"><ele>3016.5</ele><time>2025-11-06T18:47:32.000Z</time></trkpt>
        <trkpt lat="29.5228055" lon="103.334774"><ele>3016.5</ele><time>2025-11-06T18:54:16.000Z</time></trkpt>
        <trkpt lat="29.5228055" lon="103.334774"><ele>3016.5</ele><time>2025-11-06T18:54:34.000Z</time></trkpt>
      </trkseg>
      <trkseg>
        <trkpt lat="29.5227367" lon="103.3358717"><ele>3016.5</ele><time>2025-11-06T19:12:55.000Z</time></trkpt>
        <trkpt lat="29.5227367" lon="103.3358717"><ele>3016.5</ele><time>2025-11-06T19:13:48.000Z</time></trkpt>
        <trkpt lat="29.5228183" lon="103.3358267"><ele>3022.44</ele><time>2025-11-06T19:14:02.000Z</time></trkpt>
        <trkpt lat="29.5228069" lon="103.3357295"><ele>3025.73</ele><time>2025-11-06T19:14:17.000Z</time></trkpt>
        <trkpt lat="29.5227906" lon="103.3356166"><ele>3027.1</ele><time>2025-11-06T19:14:41.000Z</time></trkpt>
        <trkpt lat="29.5227861" lon="103.3355049"><ele>3026.75</ele><time>2025-11-06T19:15:40.000Z</time></trkpt>
        <trkpt lat="29.5227784" lon="103.3353922"><ele>3024.02</ele><time>2025-11-06T19:15:52.000Z</time></trkpt>
        <trkpt lat="29.5227703" lon="103.3352827"><ele>3022.16</ele><time>2025-11-06T19:16:06.000Z</time></trkpt>
        <trkpt lat="29.5227739" lon="103.3351687"><ele>3020.63</ele><time>2025-11-06T19:16:28.000Z</time></trkpt>
        <trkpt lat="29.5227807" lon="103.3350557"><ele>3018.42</ele><time>2025-11-06T19:16:46.000Z</time></trkpt>
        <trkpt lat="29.5227758" lon="103.3349435"><ele>3015.83</ele><time>2025-11-06T19:17:02.000Z</time></trkpt>
        <trkpt lat="29.5227387" lon="103.3348441"><ele>3013.02</ele><time>2025-11-06T19:17:20.000Z</time></trkpt>
        <trkpt lat="29.5227991" lon="103.3347796"><ele>3010.47</ele><time>2025-11-06T19:17:37.000Z</time></trkpt>
        <trkpt lat="29.5228921" lon="103.3347571"><ele>3008.68</ele><time>2025-11-06T19:17:54.000Z</time></trkpt>
        <trkpt lat="29.5229915" lon="103.3347452"><ele>3006.97</ele><time>2025-11-06T19:18:12.000Z</time></trkpt>
        <trkpt lat="29.523103" lon="103.3347588"><ele>3005.6</ele><time>2025-11-06T19:18:24.000Z</time></trkpt>
        <trkpt lat="29.5232" lon="103.3348029"><ele>3004.18</ele><time>2025-11-06T19:18:34.000Z</time></trkpt>
        <trkpt lat="29.5232874" lon="103.3348543"><ele>3002.9</ele><time>2025-11-06T19:18:50.000Z</time></trkpt>
        <trkpt lat="29.5233846" lon="103.3348927"><ele>3001.35</ele><time>2025-11-06T19:19:01.000Z</time></trkpt>
        <trkpt lat="29.5234772" lon="103.3349219"><ele>2999.95</ele><time>2025-11-06T19:19:12.000Z</time></trkpt>
        <trkpt lat="29.5235639" lon="103.334961"><ele>2998.98</ele><time>2025-11-06T19:19:30.000Z</time></trkpt>
        <trkpt lat="29.5236535" lon="103.3350179"><ele>2997.61</ele><time>2025-11-06T19:19:42.000Z</time></trkpt>
        <trkpt lat="29.5237471" lon="103.3350646"><ele>2996.23</ele><time>2025-11-06T19:19:54.000Z</time></trkpt>
        <trkpt lat="29.5238272" lon="103.3351202"><ele>2994.84</ele><time>2025-11-06T19:20:04.000Z</time></trkpt>
        <trkpt lat="29.5239058" lon="103.3351752"><ele>2994.31</ele><time>2025-11-06T19:20:14.000Z</time></trkpt>
        <trkpt lat="29.5239746" lon="103.3352457"><ele>2994.65</ele><time>2025-11-06T19:20:28.000Z</time></trkpt>
        <trkpt lat="29.5240377" lon="103.3353217"><ele>2995.79</ele><time>2025-11-06T19:20:56.000Z</time></trkpt>
        <trkpt lat="29.52398" lon="103.33524"><ele>2996.31</ele><time>2025-11-06T19:22:31.000Z</time></trkpt>
        <trkpt lat="29.52397" lon="103.3353483"><ele>2997.98</ele><time>2025-11-06T19:22:45.000Z</time></trkpt>
        <trkpt lat="29.5240249" lon="103.3354271"><ele>2998.81</ele><time>2025-11-06T19:22:58.000Z</time></trkpt>
        <trkpt lat="29.5240912" lon="103.3355121"><ele>2998.85</ele><time>2025-11-06T19:23:12.000Z</time></trkpt>
        <trkpt lat="29.5241628" lon="103.3355839"><ele>2999.56</ele><time>2025-11-06T19:23:24.000Z</time></trkpt>
        <trkpt lat="29.5242287" lon="103.3356662"><ele>3000.26</ele><time>2025-11-06T19:23:40.000Z</time></trkpt>
        <trkpt lat="29.5243062" lon="103.3357369"><ele>3001.1</ele><time>2025-11-06T19:24:04.000Z</time></trkpt>
        <trkpt lat="29.5243875" lon="103.3357933"><ele>3002.69</ele><time>2025-11-06T19:24:17.000Z</time></trkpt>
        <trkpt lat="29.5244743" lon="103.3358413"><ele>3003.73</ele><time>2025-11-06T19:24:29.000Z</time></trkpt>
        <trkpt lat="29.5245524" lon="103.3358973"><ele>3003.5</ele><time>2025-11-06T19:24:39.000Z</time></trkpt>
        <trkpt lat="29.5245524" lon="103.3358973"><ele>3003.5</ele><time>2025-11-06T19:26:38.000Z</time></trkpt>
      </trkseg>
      <trkseg>
        <trkpt lat="29.5246217" lon="103.3358217"><ele>3004.02</ele><time>2025-11-06T19:26:42.000Z</time></trkpt>
        <trkpt lat="29.5246217" lon="103.3358217"><ele>3004.02</ele><time>2025-11-06T19:27:20.000Z</time></trkpt>
        <trkpt lat="29.524725" lon="103.335825"><ele>3006.07</ele><time>2025-11-06T19:27:38.000Z</time></trkpt>
        <trkpt lat="29.5248072" lon="103.3357691"><ele>3006.86</ele><time>2025-11-06T19:27:46.000Z</time></trkpt>
        <trkpt lat="29.5249113" lon="103.3357632"><ele>3007.26</ele><time>2025-11-06T19:28:02.000Z</time></trkpt>
        <trkpt lat="29.5250135" lon="103.3357663"><ele>3008.48</ele><time>2025-11-06T19:28:17.000Z</time></trkpt>
        <trkpt lat="29.5249582" lon="103.3357845"><ele>3009.74</ele><time>2025-11-06T19:28:26.000Z</time></trkpt>
        <trkpt lat="29.5248474" lon="103.3358059"><ele>3009.89</ele><time>2025-11-06T19:28:34.000Z</time></trkpt>
        <trkpt lat="29.5248162" lon="103.3358145"><ele>3009.94</ele><time>2025-11-06T19:28:42.000Z</time></trkpt>
        <trkpt lat="29.52474" lon="103.3358683"><ele>3009.45</ele><time>2025-11-06T19:29:50.000Z</time></trkpt>
        <trkpt lat="29.52466" lon="103.335935"><ele>3007.32</ele><time>2025-11-06T19:29:58.000Z</time></trkpt>
        <trkpt lat="29.5245673" lon="103.3359072"><ele>3006.11</ele><time>2025-11-06T19:30:08.000Z</time></trkpt>
        <trkpt lat="29.5244749" lon="103.3358498"><ele>3006.06</ele><time>2025-11-06T19:30:17.000Z</time></trkpt>
        <trkpt lat="29.5244466" lon="103.3358441"><ele>3006.25</ele><time>2025-11-06T19:30:28.000Z</time></trkpt>
        <trkpt lat="29.5243889" lon="103.3357828"><ele>3006.4</ele><time>2025-11-06T19:30:40.000Z</time></trkpt>
        <trkpt lat="29.5243136" lon="103.3357218"><ele>3006.14</ele><time>2025-11-06T19:30:54.000Z</time></trkpt>
        <trkpt lat="29.5242191" lon="103.3356623"><ele>3006.3</ele><time>2025-11-06T19:31:08.000Z</time></trkpt>
        <trkpt lat="29.5241624" lon="103.335566"><ele>3006.38</ele><time>2025-11-06T19:31:16.000Z</time></trkpt>
        <trkpt lat="29.5240846" lon="103.3355007"><ele>3006.43</ele><time>2025-11-06T19:31:23.000Z</time></trkpt>
        <trkpt lat="29.5240041" lon="103.3354328"><ele>3006.51</ele><time>2025-11-06T19:31:34.000Z</time></trkpt>
        <trkpt lat="29.5239532" lon="103.3353272"><ele>3006.16</ele><time>2025-11-06T19:31:40.000Z</time></trkpt>
        <trkpt lat="29.523936" lon="103.3352102"><ele>3005.45</ele><time>2025-11-06T19:31:46.000Z</time></trkpt>
        <trkpt lat="29.5239147" lon="103.3350874"><ele>3005.12</ele><time>2025-11-06T19:31:53.000Z</time></trkpt>
        <trkpt lat="29.5239056" lon="103.3349691"><ele>3004.51</ele><time>2025-11-06T19:32:04.000Z</time></trkpt>
        <trkpt lat="29.5239749" lon="103.3349063"><ele>3003.17</ele><time>2025-11-06T19:32:17.000Z</time></trkpt>
        <trkpt lat="29.5240867" lon="103.3349092"><ele>3001.85</ele><time>2025-11-06T19:32:26.000Z</time></trkpt>
        <trkpt lat="29.5242089" lon="103.3349108"><ele>3000.75</ele><time>2025-11-06T19:32:34.000Z</time></trkpt>
        <trkpt lat="29.5243301" lon="103.334923"><ele>3000.9</ele><time>2025-11-06T19:32:42.000Z</time></trkpt>
        <trkpt lat="29.5244438" lon="103.3349178"><ele>3002.06</ele><time>2025-11-06T19:32:52.000Z</time></trkpt>
        <trkpt lat="29.524537" lon="103.3348854"><ele>3003.54</ele><time>2025-11-06T19:33:04.000Z</time></trkpt>
        <trkpt lat="29.5246159" lon="103.3348129"><ele>3005.07</ele><time>2025-11-06T19:33:16.000Z</time></trkpt>
        <trkpt lat="29.5247042" lon="103.3347773"><ele>3006.03</ele><time>2025-11-06T19:33:25.000Z</time></trkpt>
        <trkpt lat="29.5248148" lon="103.3347756"><ele>3006.32</ele><time>2025-11-06T19:33:38.000Z</time></trkpt>
        <trkpt lat="29.5249123" lon="103.3347772"><ele>3005.45</ele><time>2025-11-06T19:33:44.000Z</time></trkpt>
        <trkpt lat="29.525009" lon="103.3348004"><ele>3003.62</ele><time>2025-11-06T19:33:52.000Z</time></trkpt>
        <trkpt lat="29.5250966" lon="103.33476"><ele>3000.77</ele><time>2025-11-06T19:34:07.000Z</time></trkpt>
        <trkpt lat="29.5251899" lon="103.3346984"><ele>2996.96</ele><time>2025-11-06T19:34:20.000Z</time></trkpt>
        <trkpt lat="29.5252795" lon="103.3346564"><ele>2994.09</ele><time>2025-11-06T19:34:32.000Z</time></trkpt>
        <trkpt lat="29.525354" lon="103.3345967"><ele>2989.45</ele><time>2025-11-06T19:34:42.000Z</time></trkpt>
        <trkpt lat="29.5254081" lon="103.3345131"><ele>2985.04</ele><time>2025-11-06T19:34:52.000Z</time></trkpt>
        <trkpt lat="29.5254707" lon="103.3344219"><ele>2981.63</ele><time>2025-11-06T19:35:02.000Z</time></trkpt>
        <trkpt lat="29.5255267" lon="103.3343349"><ele>2978.52</ele><time>2025-11-06T19:35:08.000Z</time></trkpt>
        <trkpt lat="29.5255921" lon="103.3342432"><ele>2975.71</ele><time>2025-11-06T19:35:17.000Z</time></trkpt>
        <trkpt lat="29.5256639" lon="103.3341504"><ele>2971.19</ele><time>2025-11-06T19:35:30.000Z</time></trkpt>
        <trkpt lat="29.5257516" lon="103.334089"><ele>2967.84</ele><time>2025-11-06T19:35:38.000Z</time></trkpt>
        <trkpt lat="29.5258434" lon="103.3340157"><ele>2964.81</ele><time>2025-11-06T19:35:44.000Z</time></trkpt>
        <trkpt lat="29.5259218" lon="103.3339502"><ele>2962.91</ele><time>2025-11-06T19:35:58.000Z</time></trkpt>
        <trkpt lat="29.5259983" lon="103.3338925"><ele>2962.91</ele><time>2025-11-06T19:36:08.000Z</time></trkpt>
        <trkpt lat="29.5260894" lon="103.3338433"><ele>2963.29</ele><time>2025-11-06T19:36:17.000Z</time></trkpt>
        <trkpt lat="29.526171" lon="103.3337877"><ele>2963.25</ele><time>2025-11-06T19:36:30.000Z</time></trkpt>
        <trkpt lat="29.5262523" lon="103.3337278"><ele>2962.71</ele><time>2025-11-06T19:36:40.000Z</time></trkpt>
        <trkpt lat="29.5263412" lon="103.33369"><ele>2961.76</ele><time>2025-11-06T19:36:47.000Z</time></trkpt>
        <trkpt lat="29.5264317" lon="103.3336428"><ele>2961</ele><time>2025-11-06T19:36:56.000Z</time></trkpt>
        <trkpt lat="29.5265311" lon="103.33359"><ele>2958.72</ele><time>2025-11-06T19:37:08.000Z</time></trkpt>
        <trkpt lat="29.5266399" lon="103.3335487"><ele>2955.49</ele><time>2025-11-06T19:37:19.000Z</time></trkpt>
        <trkpt lat="29.5267414" lon="103.3335069"><ele>2951.92</ele><time>2025-11-06T19:37:32.000Z</time></trkpt>
        <trkpt lat="29.5268356" lon="103.333472"><ele>2948.86</ele><time>2025-11-06T19:37:45.000Z</time></trkpt>
        <trkpt lat="29.5269258" lon="103.3334468"><ele>2945.61</ele><time>2025-11-06T19:38:00.000Z</time></trkpt>
        <trkpt lat="29.5270188" lon="103.3333922"><ele>2942.64</ele><time>2025-11-06T19:38:10.000Z</time></trkpt>
        <trkpt lat="29.5270931" lon="103.3333059"><ele>2940.47</ele><time>2025-11-06T19:38:16.000Z</time></trkpt>
        <trkpt lat="29.5271193" lon="103.3331968"><ele>2939.36</ele><time>2025-11-06T19:38:30.000Z</time></trkpt>
        <trkpt lat="29.5270802" lon="103.3330792"><ele>2937.44</ele><time>2025-11-06T19:38:40.000Z</time></trkpt>
        <trkpt lat="29.5270367" lon="103.3329497"><ele>2936.65</ele><time>2025-11-06T19:38:46.000Z</time></trkpt>
        <trkpt lat="29.527042" lon="103.3328402"><ele>2936.37</ele><time>2025-11-06T19:38:55.000Z</time></trkpt>
        <trkpt lat="29.527068" lon="103.3327333"><ele>2935.95</ele><time>2025-11-06T19:39:22.000Z</time></trkpt>
        <trkpt lat="29.5270732" lon="103.3326297"><ele>2935.67</ele><time>2025-11-06T19:39:28.000Z</time></trkpt>
        <trkpt lat="29.5270739" lon="103.3325207"><ele>2935.77</ele><time>2025-11-06T19:39:43.000Z</time></trkpt>
        <trkpt lat="29.527067" lon="103.3324157"><ele>2932.73</ele><time>2025-11-06T19:39:50.000Z</time></trkpt>
        <trkpt lat="29.5270878" lon="103.3323173"><ele>2930.44</ele><time>2025-11-06T19:40:02.000Z</time></trkpt>
        <trkpt lat="29.5271444" lon="103.3322375"><ele>2928.01</ele><time>2025-11-06T19:40:09.000Z</time></trkpt>
        <trkpt lat="29.5271965" lon="103.3322991"><ele>2926.97</ele><time>2025-11-06T19:40:20.000Z</time></trkpt>
        <trkpt lat="29.5272507" lon="103.3324013"><ele>2925.95</ele><time>2025-11-06T19:40:26.000Z</time></trkpt>
        <trkpt lat="29.5273007" lon="103.3324547"><ele>2923.35</ele><time>2025-11-06T19:40:36.000Z</time></trkpt>
        <trkpt lat="29.5273987" lon="103.3324986"><ele>2920.66</ele><time>2025-11-06T19:40:44.000Z</time></trkpt>
        <trkpt lat="29.5274889" lon="103.3324531"><ele>2918.53</ele><time>2025-11-06T19:40:56.000Z</time></trkpt>
        <trkpt lat="29.5275661" lon="103.3323787"><ele>2917.01</ele><time>2025-11-06T19:41:04.000Z</time></trkpt>
        <trkpt lat="29.5275949" lon="103.3322736"><ele>2916.53</ele><time>2025-11-06T19:41:18.000Z</time></trkpt>
        <trkpt lat="29.5275737" lon="103.3321603"><ele>2916.78</ele><time>2025-11-06T19:41:32.000Z</time></trkpt>
        <trkpt lat="29.5276083" lon="103.3320641"><ele>2917.91</ele><time>2025-11-06T19:41:48.000Z</time></trkpt>
        <trkpt lat="29.5276725" lon="103.3319905"><ele>2917.82</ele><time>2025-11-06T19:42:02.000Z</time></trkpt>
        <trkpt lat="29.5277042" lon="103.3318955"><ele>2917.25</ele><time>2025-11-06T19:42:16.000Z</time></trkpt>
        <trkpt lat="29.5277005" lon="103.3317766"><ele>2916.07</ele><time>2025-11-06T19:42:26.000Z</time></trkpt>
        <trkpt lat="29.5277185" lon="103.3316534"><ele>2914.96</ele><time>2025-11-06T19:42:36.000Z</time></trkpt>
        <trkpt lat="29.5277618" lon="103.3315427"><ele>2914.12</ele><time>2025-11-06T19:42:44.000Z</time></trkpt>
        <trkpt lat="29.5278105" lon="103.3314428"><ele>2912.48</ele><time>2025-11-06T19:42:54.000Z</time></trkpt>
        <trkpt lat="29.5278611" lon="103.3313529"><ele>2908.31</ele><time>2025-11-06T19:43:10.000Z</time></trkpt>
        <trkpt lat="29.5279364" lon="103.3312549"><ele>2901.68</ele><time>2025-11-06T19:43:22.000Z</time></trkpt>
        <trkpt lat="29.5279988" lon="103.3311454"><ele>2894.16</ele><time>2025-11-06T19:43:31.000Z</time></trkpt>
        <trkpt lat="29.5280473" lon="103.3310455"><ele>2889.27</ele><time>2025-11-06T19:43:44.000Z</time></trkpt>
        <trkpt lat="29.5280893" lon="103.3309509"><ele>2886.83</ele><time>2025-11-06T19:43:52.000Z</time></trkpt>
        <trkpt lat="29.5281596" lon="103.3308757"><ele>2885.36</ele><time>2025-11-06T19:44:14.000Z</time></trkpt>
        <trkpt lat="29.5282033" lon="103.330787"><ele>2882.06</ele><time>2025-11-06T19:44:20.000Z</time></trkpt>
        <trkpt lat="29.5282438" lon="103.330691"><ele>2879.41</ele><time>2025-11-06T19:44:30.000Z</time></trkpt>
        <trkpt lat="29.5283026" lon="103.3306048"><ele>2878.07</ele><time>2025-11-06T19:44:42.000Z</time></trkpt>
        <trkpt lat="29.5283462" lon="103.3305089"><ele>2877.35</ele><time>2025-11-06T19:44:58.000Z</time></trkpt>
        <trkpt lat="29.5283372" lon="103.3303941"><ele>2876.17</ele><time>2025-11-06T19:45:10.000Z</time></trkpt>
        <trkpt lat="29.5283459" lon="103.330274"><ele>2874.42</ele><time>2025-11-06T19:45:24.000Z</time></trkpt>
        <trkpt lat="29.5284004" lon="103.3301783"><ele>2872.73</ele><time>2025-11-06T19:45:32.000Z</time></trkpt>
        <trkpt lat="29.5284786" lon="103.3300912"><ele>2870.48</ele><time>2025-11-06T19:45:40.000Z</time></trkpt>
        <trkpt lat="29.5285446" lon="103.3299963"><ele>2868.12</ele><time>2025-11-06T19:45:47.000Z</time></trkpt>
        <trkpt lat="29.5286011" lon="103.3298764"><ele>2866.52</ele><time>2025-11-06T19:45:56.000Z</time></trkpt>
        <trkpt lat="29.5286185" lon="103.3297599"><ele>2865.74</ele><time>2025-11-06T19:46:05.000Z</time></trkpt>
        <trkpt lat="29.5286256" lon="103.3296471"><ele>2866.07</ele><time>2025-11-06T19:46:16.000Z</time></trkpt>
        <trkpt lat="29.5286311" lon="103.3295287"><ele>2865.87</ele><time>2025-11-06T19:46:32.000Z</time></trkpt>
        <trkpt lat="29.5286516" lon="103.3294147"><ele>2864.37</ele><time>2025-11-06T19:46:40.000Z</time></trkpt>
        <trkpt lat="29.5287037" lon="103.3293063"><ele>2863.31</ele><time>2025-11-06T19:46:50.000Z</time></trkpt>
        <trkpt lat="29.5287594" lon="103.3292162"><ele>2863.56</ele><time>2025-11-06T19:46:58.000Z</time></trkpt>
        <trkpt lat="29.5288147" lon="103.3291149"><ele>2863.97</ele><time>2025-11-06T19:47:08.000Z</time></trkpt>
        <trkpt lat="29.5288685" lon="103.3290196"><ele>2863.46</ele><time>2025-11-06T19:47:20.000Z</time></trkpt>
        <trkpt lat="29.528925" lon="103.3289315"><ele>2863.18</ele><time>2025-11-06T19:47:26.000Z</time></trkpt>
        <trkpt lat="29.5289772" lon="103.3288432"><ele>2862.46</ele><time>2025-11-06T19:47:32.000Z</time></trkpt>
        <trkpt lat="29.5290188" lon="103.3287418"><ele>2861.27</ele><time>2025-11-06T19:47:42.000Z</time></trkpt>
        <trkpt lat="29.5290641" lon="103.3286327"><ele>2858.79</ele><time>2025-11-06T19:47:52.000Z</time></trkpt>
        <trkpt lat="29.5291114" lon="103.3285326"><ele>2855.65</ele><time>2025-11-06T19:48:06.000Z</time></trkpt>
        <trkpt lat="29.5291521" lon="103.3284241"><ele>2852.23</ele><time>2025-11-06T19:48:22.000Z</time></trkpt>
        <trkpt lat="29.529179" lon="103.3283186"><ele>2848.91</ele><time>2025-11-06T19:48:34.000Z</time></trkpt>
        <trkpt lat="29.52922" lon="103.3282197"><ele>2845.89</ele><time>2025-11-06T19:48:52.000Z</time></trkpt>
        <trkpt lat="29.5292583" lon="103.3281144"><ele>2842.67</ele><time>2025-11-06T19:49:04.000Z</time></trkpt>
        <trkpt lat="29.5292666" lon="103.3280002"><ele>2839.76</ele><time>2025-11-06T19:49:16.000Z</time></trkpt>
        <trkpt lat="29.5293015" lon="103.3278904"><ele>2836.16</ele><time>2025-11-06T19:49:28.000Z</time></trkpt>
        <trkpt lat="29.5293339" lon="103.3277891"><ele>2832.22</ele><time>2025-11-06T19:49:39.000Z</time></trkpt>
        <trkpt lat="29.5294113" lon="103.3277673"><ele>2828.13</ele><time>2025-11-06T19:49:47.000Z</time></trkpt>
        <trkpt lat="29.5295186" lon="103.3277767"><ele>2825.4</ele><time>2025-11-06T19:49:58.000Z</time></trkpt>
        <trkpt lat="29.529623" lon="103.3277653"><ele>2823.47</ele><time>2025-11-06T19:50:05.000Z</time></trkpt>
        <trkpt lat="29.5297197" lon="103.3277584"><ele>2821.76</ele><time>2025-11-06T19:50:12.000Z</time></trkpt>
        <trkpt lat="29.5298007" lon="103.3277121"><ele>2820.87</ele><time>2025-11-06T19:50:26.000Z</time></trkpt>
        <trkpt lat="29.5298345" lon="103.3275917"><ele>2820.2</ele><time>2025-11-06T19:50:36.000Z</time></trkpt>
        <trkpt lat="29.5298616" lon="103.3274723"><ele>2820.11</ele><time>2025-11-06T19:50:44.000Z</time></trkpt>
        <trkpt lat="29.5299019" lon="103.3273645"><ele>2820.49</ele><time>2025-11-06T19:50:52.000Z</time></trkpt>
        <trkpt lat="29.5299575" lon="103.327276"><ele>2820.84</ele><time>2025-11-06T19:50:58.000Z</time></trkpt>
        <trkpt lat="29.5300417" lon="103.3272028"><ele>2821.12</ele><time>2025-11-06T19:51:06.000Z</time></trkpt>
        <trkpt lat="29.5301193" lon="103.327132"><ele>2821.24</ele><time>2025-11-06T19:51:16.000Z</time></trkpt>
        <trkpt lat="29.5302014" lon="103.327066"><ele>2821.4</ele><time>2025-11-06T19:51:26.000Z</time></trkpt>
        <trkpt lat="29.5302857" lon="103.3269984"><ele>2821.36</ele><time>2025-11-06T19:51:34.000Z</time></trkpt>
        <trkpt lat="29.5303702" lon="103.3269483"><ele>2821.07</ele><time>2025-11-06T19:51:46.000Z</time></trkpt>
        <trkpt lat="29.5304619" lon="103.3269044"><ele>2819.92</ele><time>2025-11-06T19:51:58.000Z</time></trkpt>
        <trkpt lat="29.5305571" lon="103.3268855"><ele>2818.32</ele><time>2025-11-06T19:52:12.000Z</time></trkpt>
        <trkpt lat="29.5306469" lon="103.3268584"><ele>2815.47</ele><time>2025-11-06T19:52:24.000Z</time></trkpt>
        <trkpt lat="29.5307368" lon="103.3268328"><ele>2812.43</ele><time>2025-11-06T19:52:46.000Z</time></trkpt>
        <trkpt lat="29.5308104" lon="103.3268823"><ele>2807.6</ele><time>2025-11-06T19:53:10.000Z</time></trkpt>
        <trkpt lat="29.5308782" lon="103.3269564"><ele>2801.92</ele><time>2025-11-06T19:53:20.000Z</time></trkpt>
        <trkpt lat="29.5309672" lon="103.3270038"><ele>2797.87</ele><time>2025-11-06T19:53:38.000Z</time></trkpt>
        <trkpt lat="29.5310548" lon="103.3270467"><ele>2795.26</ele><time>2025-11-06T19:53:46.000Z</time></trkpt>
        <trkpt lat="29.5311386" lon="103.3270974"><ele>2792.82</ele><time>2025-11-06T19:53:56.000Z</time></trkpt>
        <trkpt lat="29.5312094" lon="103.3271685"><ele>2790.36</ele><time>2025-11-06T19:54:12.000Z</time></trkpt>
        <trkpt lat="29.5312418" lon="103.3272717"><ele>2787.24</ele><time>2025-11-06T19:54:28.000Z</time></trkpt>
        <trkpt lat="29.531247" lon="103.3273891"><ele>2783.48</ele><time>2025-11-06T19:54:50.000Z</time></trkpt>
        <trkpt lat="29.531246" lon="103.3275003"><ele>2779.32</ele><time>2025-11-06T19:55:04.000Z</time></trkpt>
        <trkpt lat="29.5312457" lon="103.3276173"><ele>2775.39</ele><time>2025-11-06T19:55:19.000Z</time></trkpt>
        <trkpt lat="29.5312511" lon="103.3277418"><ele>2771.31</ele><time>2025-11-06T19:55:31.000Z</time></trkpt>
        <trkpt lat="29.5312458" lon="103.3278259"><ele>2767.52</ele><time>2025-11-06T19:55:48.000Z</time></trkpt>
        <trkpt lat="29.5312555" lon="103.3279306"><ele>2764.33</ele><time>2025-11-06T19:56:02.000Z</time></trkpt>
        <trkpt lat="29.5312514" lon="103.3280484"><ele>2760.7</ele><time>2025-11-06T19:56:12.000Z</time></trkpt>
        <trkpt lat="29.5312418" lon="103.3281721"><ele>2757.22</ele><time>2025-11-06T19:56:24.000Z</time></trkpt>
        <trkpt lat="29.5312282" lon="103.3282859"><ele>2753.94</ele><time>2025-11-06T19:56:34.000Z</time></trkpt>
        <trkpt lat="29.5312061" lon="103.3283927"><ele>2751.82</ele><time>2025-11-06T19:56:44.000Z</time></trkpt>
        <trkpt lat="29.5311753" lon="103.3284922"><ele>2750.6</ele><time>2025-11-06T19:56:58.000Z</time></trkpt>
        <trkpt lat="29.531157" lon="103.3285932"><ele>2749.44</ele><time>2025-11-06T19:57:12.000Z</time></trkpt>
        <trkpt lat="29.5311254" lon="103.3286917"><ele>2747.87</ele><time>2025-11-06T19:57:24.000Z</time></trkpt>
        <trkpt lat="29.5310911" lon="103.3287945"><ele>2745.82</ele><time>2025-11-06T19:57:38.000Z</time></trkpt>
        <trkpt lat="29.5310729" lon="103.3289104"><ele>2743.4</ele><time>2025-11-06T19:57:48.000Z</time></trkpt>
        <trkpt lat="29.5310847" lon="103.3290272"><ele>2741.55</ele><time>2025-11-06T19:58:02.000Z</time></trkpt>
        <trkpt lat="29.5310969" lon="103.3291387"><ele>2739.9</ele><time>2025-11-06T19:58:10.000Z</time></trkpt>
        <trkpt lat="29.5311159" lon="103.3292439"><ele>2738.82</ele><time>2025-11-06T19:58:18.000Z</time></trkpt>
        <trkpt lat="29.531129" lon="103.3293582"><ele>2738.17</ele><time>2025-11-06T19:58:30.000Z</time></trkpt>
        <trkpt lat="29.5311476" lon="103.3294699"><ele>2736.98</ele><time>2025-11-06T19:58:39.000Z</time></trkpt>
        <trkpt lat="29.5311906" lon="103.3295678"><ele>2735.09</ele><time>2025-11-06T19:58:55.000Z</time></trkpt>
        <trkpt lat="29.5312372" lon="103.3296607"><ele>2732.77</ele><time>2025-11-06T19:59:28.000Z</time></trkpt>
        <trkpt lat="29.5312797" lon="103.329755"><ele>2729.86</ele><time>2025-11-06T19:59:48.000Z</time></trkpt>
        <trkpt lat="29.5313586" lon="103.3298204"><ele>2726.69</ele><time>2025-11-06T20:00:24.000Z</time></trkpt>
        <trkpt lat="29.5314342" lon="103.3298881"><ele>2721.58</ele><time>2025-11-06T20:00:45.000Z</time></trkpt>
        <trkpt lat="29.5315239" lon="103.3299546"><ele>2718.32</ele><time>2025-11-06T20:01:22.000Z</time></trkpt>
        <trkpt lat="29.5316303" lon="103.3300177"><ele>2713.92</ele><time>2025-11-06T20:02:14.000Z</time></trkpt>
        <trkpt lat="29.5317266" lon="103.3300487"><ele>2708.75</ele><time>2025-11-06T20:02:40.000Z</time></trkpt>
        <trkpt lat="29.5317987" lon="103.3301261"><ele>2703.61</ele><time>2025-11-06T20:02:56.000Z</time></trkpt>
        <trkpt lat="29.5318592" lon="103.3302123"><ele>2698.27</ele><time>2025-11-06T20:03:10.000Z</time></trkpt>
        <trkpt lat="29.531958" lon="103.3302815"><ele>2693.42</ele><time>2025-11-06T20:03:42.000Z</time></trkpt>
        <trkpt lat="29.5320595" lon="103.330302"><ele>2687.56</ele><time>2025-11-06T20:03:58.000Z</time></trkpt>
        <trkpt lat="29.5321531" lon="103.3302748"><ele>2683.32</ele><time>2025-11-06T20:04:20.000Z</time></trkpt>
        <trkpt lat="29.5321651" lon="103.3303382"><ele>2677.72</ele><time>2025-11-06T20:05:04.000Z</time></trkpt>
        <trkpt lat="29.5321913" lon="103.3304312"><ele>2670.91</ele><time>2025-11-06T20:05:34.000Z</time></trkpt>
        <trkpt lat="29.5321956" lon="103.3305424"><ele>2662.95</ele><time>2025-11-06T20:05:52.000Z</time></trkpt>
        <trkpt lat="29.5321861" lon="103.3306646"><ele>2657.29</ele><time>2025-11-06T20:06:10.000Z</time></trkpt>
        <trkpt lat="29.5321911" lon="103.3308094"><ele>2652.87</ele><time>2025-11-06T20:06:19.000Z</time></trkpt>
        <trkpt lat="29.5321882" lon="103.330933"><ele>2650.13</ele><time>2025-11-06T20:06:25.000Z</time></trkpt>
        <trkpt lat="29.5321826" lon="103.331039"><ele>2648.18</ele><time>2025-11-06T20:06:44.000Z</time></trkpt>
        <trkpt lat="29.5321815" lon="103.331151"><ele>2646.47</ele><time>2025-11-06T20:07:05.000Z</time></trkpt>
        <trkpt lat="29.5321838" lon="103.3312599"><ele>2644.55</ele><time>2025-11-06T20:07:22.000Z</time></trkpt>
        <trkpt lat="29.5321886" lon="103.3313703"><ele>2642.59</ele><time>2025-11-06T20:07:36.000Z</time></trkpt>
        <trkpt lat="29.5322341" lon="103.3313351"><ele>2639.71</ele><time>2025-11-06T20:07:56.000Z</time></trkpt>
        <trkpt lat="29.5322867" lon="103.3312378"><ele>2634.63</ele><time>2025-11-06T20:08:12.000Z</time></trkpt>
        <trkpt lat="29.5323534" lon="103.3312625"><ele>2629.46</ele><time>2025-11-06T20:08:35.000Z</time></trkpt>
        <trkpt lat="29.5324236" lon="103.3313406"><ele>2627.93</ele><time>2025-11-06T20:08:48.000Z</time></trkpt>
        <trkpt lat="29.5324646" lon="103.3314493"><ele>2626.97</ele><time>2025-11-06T20:09:03.000Z</time></trkpt>
        <trkpt lat="29.5325089" lon="103.3315612"><ele>2625.48</ele><time>2025-11-06T20:09:22.000Z</time></trkpt>
        <trkpt lat="29.5325504" lon="103.3316678"><ele>2623.64</ele><time>2025-11-06T20:09:42.000Z</time></trkpt>
        <trkpt lat="29.5325913" lon="103.3317789"><ele>2620.52</ele><time>2025-11-06T20:10:10.000Z</time></trkpt>
        <trkpt lat="29.5326261" lon="103.3318832"><ele>2616.04</ele><time>2025-11-06T20:10:24.000Z</time></trkpt>
        <trkpt lat="29.5326463" lon="103.3319856"><ele>2611.72</ele><time>2025-11-06T20:10:52.000Z</time></trkpt>
        <trkpt lat="29.5327092" lon="103.3320547"><ele>2607.02</ele><time>2025-11-06T20:11:05.000Z</time></trkpt>
        <trkpt lat="29.5327775" lon="103.332133"><ele>2602.15</ele><time>2025-11-06T20:11:41.000Z</time></trkpt>
        <trkpt lat="29.5328535" lon="103.3322027"><ele>2599.03</ele><time>2025-11-06T20:11:54.000Z</time></trkpt>
        <trkpt lat="29.5329172" lon="103.3322899"><ele>2595.41</ele><time>2025-11-06T20:12:08.000Z</time></trkpt>
        <trkpt lat="29.5329867" lon="103.3323779"><ele>2591.7</ele><time>2025-11-06T20:12:23.000Z</time></trkpt>
        <trkpt lat="29.5330584" lon="103.3324531"><ele>2588.26</ele><time>2025-11-06T20:12:34.000Z</time></trkpt>
        <trkpt lat="29.5331307" lon="103.3325208"><ele>2585.27</ele><time>2025-11-06T20:12:47.000Z</time></trkpt>
        <trkpt lat="29.5332091" lon="103.3325963"><ele>2582.01</ele><time>2025-11-06T20:13:02.000Z</time></trkpt>
        <trkpt lat="29.5332846" lon="103.3326703"><ele>2579.04</ele><time>2025-11-06T20:13:17.000Z</time></trkpt>
        <trkpt lat="29.5333636" lon="103.3327387"><ele>2575.71</ele><time>2025-11-06T20:13:35.000Z</time></trkpt>
        <trkpt lat="29.5334476" lon="103.3328076"><ele>2571.53</ele><time>2025-11-06T20:13:55.000Z</time></trkpt>
        <trkpt lat="29.533532" lon="103.3328757"><ele>2566.87</ele><time>2025-11-06T20:14:12.000Z</time></trkpt>
        <trkpt lat="29.5336098" lon="103.33295"><ele>2562.76</ele><time>2025-11-06T20:14:30.000Z</time></trkpt>
        <trkpt lat="29.5336762" lon="103.3330292"><ele>2559.2</ele><time>2025-11-06T20:14:43.000Z</time></trkpt>
        <trkpt lat="29.5337512" lon="103.3330948"><ele>2556.06</ele><time>2025-11-06T20:15:00.000Z</time></trkpt>
        <trkpt lat="29.5338251" lon="103.3331689"><ele>2553.02</ele><time>2025-11-06T20:15:20.000Z</time></trkpt>
        <trkpt lat="29.5339023" lon="103.3332278"><ele>2549.7</ele><time>2025-11-06T20:15:36.000Z</time></trkpt>
        <trkpt lat="29.5339907" lon="103.3332371"><ele>2545.92</ele><time>2025-11-06T20:15:48.000Z</time></trkpt>
        <trkpt lat="29.5340831" lon="103.333224"><ele>2541.69</ele><time>2025-11-06T20:16:00.000Z</time></trkpt>
        <trkpt lat="29.5341737" lon="103.3331821"><ele>2538.21</ele><time>2025-11-06T20:16:13.000Z</time></trkpt>
        <trkpt lat="29.5342718" lon="103.3331463"><ele>2534.77</ele><time>2025-11-06T20:16:26.000Z</time></trkpt>
        <trkpt lat="29.5343662" lon="103.3331233"><ele>2530.87</ele><time>2025-11-06T20:16:44.000Z</time></trkpt>
        <trkpt lat="29.5344625" lon="103.3331001"><ele>2526.79</ele><time>2025-11-06T20:16:58.000Z</time></trkpt>
        <trkpt lat="29.5345518" lon="103.3330542"><ele>2522.5</ele><time>2025-11-06T20:17:07.000Z</time></trkpt>
        <trkpt lat="29.5346435" lon="103.3330364"><ele>2518.97</ele><time>2025-11-06T20:17:17.000Z</time></trkpt>
        <trkpt lat="29.5347364" lon="103.3330063"><ele>2516.14</ele><time>2025-11-06T20:17:33.000Z</time></trkpt>
        <trkpt lat="29.5348209" lon="103.332962"><ele>2512.98</ele><time>2025-11-06T20:17:52.000Z</time></trkpt>
        <trkpt lat="29.5348861" lon="103.332889"><ele>2509.51</ele><time>2025-11-06T20:18:03.000Z</time></trkpt>
        <trkpt lat="29.5349672" lon="103.3328189"><ele>2506.19</ele><time>2025-11-06T20:18:13.000Z</time></trkpt>
        <trkpt lat="29.5350454" lon="103.3328484"><ele>2504.47</ele><time>2025-11-06T20:18:21.000Z</time></trkpt>
        <trkpt lat="29.5351185" lon="103.3329226"><ele>2502.38</ele><time>2025-11-06T20:18:38.000Z</time></trkpt>
        <trkpt lat="29.5351185" lon="103.3329226"><ele>2502.38</ele><time>2025-11-06T20:18:49.000Z</time></trkpt>
      </trkseg>
  </trk>
</gpx>